[[{"header":{"parameterUnit":"m.s-1","parameterCategory":1,"la1":30.6,"la2":29.2853,"lo1":-89.7004,"lo2":-87.6739,"dy":0.0162,"dx":0.0183,"nx":112,"ny":82,"refTime":"2026-03-20T00:00:00:Z","depth":0,"parameterNumber":2,"parameterNumberName":"U-component_of_WINDS"},"data":[0.0,0.0,0.0,0.0,0.0,0.0,0.0,0.0,0.0,0.0,0.0,0.0,0.0,0.0,0.0,0.0,0.0,0.0,0.0,0.0,0.0,0.0,0.0,0.0,0.0,0.0,0.0,0.0,0.0,0.0,0.0,0.0,0.0,0.0,0.0,0.0,0.0,0.0,0.0,0.0,0.0,0.0,0.0,0.0,0.0,0.0,0.0,0.0,0.0,0.0,0.0,0.0,0.0,0.0,0.0,0.0,0.0,0.0,0.0,0.0,0.0,0.0,0.0,0.0,0.0,0.0,0.0,0.0,0.0,0.0,0.0,0.0,0.0,0.0,0.0,0.0,0.0,0.0,0.0,0.0,0.0,0.0,0.0,0.0,0.0,0.0,0.0,0.0,0.0,0.0,-4.1907,-4.2598,-4.4761,-4.5893,-4.5353,-4.523,-4.319,-3.848,0.0,0.0,0.0,0.0,0.0,0.0,0.0,0.0,0.0,0.0,0.0,0.0,0.0,0.0,0.0,0.0,0.0,0.0,0.0,0.0,0.0,0.0,0.0,0.0,0.0,0.0,0.0,0.0,0.0,0.0,0.0,0.0,0.0,0.0,0.0,0.0,0.0,0.0,0.0,0.0,0.0,0.0,0.0,0.0,0.0,0.0,0.0,0.0,0.0,0.0,0.0,0.0,0.0,0.0,0.0,0.0,0.0,0.0,0.0,0.0,0.0,0.0,0.0,0.0,0.0,0.0,0.0,0.0,0.0,0.0,0.0,0.0,0.0,0.0,0.0,0.0,0.0,0.0,0.0,0.0,0.0,0.0,0.0,0.0,0.0,0.0,0.0,0.0,0.0,0.0,0.0,0.0,0.0,0.0,0.0,0.0,0.0,0.0,0.0,0.0,0.0,0.0,0.0,0.0,-4.1083,-4.4844,-4.5322,-4.5346,-4.5307,-4.4979,-4.3153,-3.926,0.0,0.0,0.0,0.0,0.0,0.0,0.0,0.0,0.0,0.0,0.0,0.0,0.0,0.0,0.0,0.0,0.0,0.0,0.0,0.0,0.0,0.0,0.0,0.0,0.0,0.0,0.0,0.0,0.0,0.0,0.0,0.0,0.0,0.0,0.0,0.0,0.0,0.0,0.0,0.0,0.0,0.0,0.0,0.0,0.0,0.0,0.0,0.0,0.0,0.0,0.0,0.0,0.0,0.0,0.0,0.0,0.0,0.0,0.0,0.0,0.0,0.0,0.0,0.0,0.0,0.0,0.0,0.0,0.0,0.0,0.0,0.0,0.0,0.0,0.0,0.0,0.0,0.0,0.0,0.0,0.0,0.0,0.0,0.0,0.0,0.0,0.0,0.0,0.0,0.0,0.0,0.0,0.0,0.0,0.0,0.0,0.0,0.0,0.0,0.0,0.0,0.0,0.0,-3.9653,-4.1128,-4.4468,-4.4662,-4.4482,-4.4346,-4.4168,-4.2375,-3.842,-3.7612,0.0,0.0,0.0,0.0,0.0,0.0,0.0,0.0,0.0,0.0,0.0,0.0,0.0,0.0,0.0,0.0,0.0,0.0,0.0,0.0,0.0,0.0,0.0,0.0,0.0,0.0,0.0,0.0,0.0,0.0,0.0,0.0,0.0,0.0,0.0,0.0,0.0,0.0,0.0,0.0,0.0,0.0,0.0,0.0,0.0,0.0,0.0,0.0,0.0,0.0,0.0,0.0,0.0,0.0,0.0,0.0,0.0,0.0,0.0,0.0,0.0,0.0,0.0,0.0,0.0,0.0,0.0,0.0,0.0,0.0,0.0,0.0,0.0,0.0,0.0,0.0,0.0,0.0,0.0,0.0,0.0,0.0,0.0,0.0,0.0,0.0,0.0,0.0,0.0,0.0,0.0,0.0,0.0,0.0,0.0,0.0,0.0,0.0,0.0,0.0,0.0,0.0,-4.1033,-4.185,-4.3677,-4.3881,-4.3772,-4.3513,-4.3149,-4.132,-3.7539,-3.6932,0.0,0.0,0.0,0.0,0.0,0.0,0.0,0.0,0.0,0.0,0.0,0.0,0.0,0.0,0.0,0.0,0.0,0.0,0.0,0.0,0.0,0.0,0.0,0.0,0.0,0.0,0.0,0.0,0.0,0.0,0.0,0.0,0.0,0.0,0.0,0.0,0.0,0.0,0.0,0.0,0.0,0.0,0.0,0.0,0.0,0.0,0.0,0.0,0.0,0.0,0.0,0.0,0.0,0.0,0.0,0.0,0.0,0.0,0.0,0.0,0.0,0.0,0.0,0.0,0.0,0.0,0.0,0.0,0.0,0.0,0.0,0.0,0.0,0.0,0.0,0.0,0.0,0.0,0.0,0.0,0.0,0.0,0.0,0.0,0.0,0.0,0.0,0.0,0.0,0.0,0.0,0.0,0.0,0.0,0.0,0.0,0.0,0.0,0.0,0.0,0.0,0.0,-4.1473,-4.3347,-4.3512,-4.3531,-4.3531,-4.3496,-4.2139,-4.0137,-3.7468,-3.5901,0.0,0.0,0.0,0.0,0.0,0.0,0.0,0.0,0.0,0.0,0.0,0.0,0.0,0.0,0.0,0.0,0.0,0.0,0.0,0.0,0.0,0.0,0.0,0.0,0.0,0.0,0.0,0.0,0.0,0.0,0.0,0.0,0.0,0.0,0.0,0.0,0.0,0.0,0.0,0.0,0.0,0.0,0.0,0.0,0.0,0.0,0.0,0.0,0.0,0.0,0.0,0.0,0.0,0.0,0.0,0.0,0.0,0.0,0.0,0.0,0.0,0.0,0.0,0.0,0.0,0.0,0.0,0.0,0.0,0.0,0.0,0.0,0.0,0.0,0.0,0.0,0.0,0.0,0.0,0.0,0.0,0.0,0.0,0.0,0.0,0.0,0.0,0.0,0.0,0.0,0.0,0.0,0.0,0.0,0.0,0.0,0.0,0.0,0.0,0.0,0.0,0.0,-3.9898,-4.1827,0.0,-4.3515,-4.3515,-4.3515,-4.2174,-4.0004,-3.6809,0.0,0.0,0.0,0.0,0.0,0.0,0.0,0.0,0.0,0.0,0.0,0.0,0.0,0.0,0.0,0.0,0.0,0.0,0.0,0.0,0.0,0.0,0.0,0.0,0.0,0.0,0.0,0.0,0.0,0.0,0.0,0.0,0.0,0.0,0.0,0.0,0.0,0.0,0.0,0.0,0.0,0.0,0.0,0.0,0.0,0.0,0.0,0.0,0.0,0.0,0.0,0.0,0.0,0.0,0.0,0.0,0.0,0.0,0.0,0.0,0.0,0.0,0.0,0.0,0.0,0.0,0.0,0.0,0.0,0.0,0.0,0.0,0.0,0.0,0.0,0.0,0.0,0.0,0.0,0.0,0.0,0.0,0.0,0.0,0.0,0.0,0.0,0.0,0.0,0.0,0.0,0.0,0.0,0.0,0.0,0.0,0.0,0.0,0.0,0.0,0.0,0.0,-3.6973,-3.9268,-4.1337,0.0,-4.325,-4.3068,-4.265,-4.1088,-3.8831,-3.5792,0.0,0.0,0.0,0.0,0.0,0.0,0.0,0.0,0.0,0.0,0.0,0.0,0.0,0.0,0.0,0.0,0.0,0.0,0.0,0.0,0.0,0.0,0.0,0.0,0.0,0.0,0.0,0.0,0.0,0.0,0.0,0.0,0.0,0.0,0.0,0.0,0.0,0.0,0.0,0.0,0.0,0.0,0.0,0.0,0.0,0.0,0.0,0.0,0.0,0.0,0.0,0.0,0.0,0.0,0.0,0.0,0.0,0.0,0.0,0.0,0.0,0.0,0.0,0.0,0.0,0.0,0.0,0.0,0.0,0.0,0.0,0.0,0.0,0.0,0.0,0.0,0.0,0.0,0.0,0.0,0.0,0.0,0.0,0.0,0.0,0.0,0.0,0.0,0.0,0.0,0.0,0.0,0.0,0.0,0.0,0.0,0.0,0.0,0.0,0.0,0.0,0.0,-3.6713,-4.0019,-4.2372,-4.2623,-4.2675,-4.2139,-4.0798,-3.8539,-3.6368,0.0,0.0,0.0,0.0,0.0,0.0,0.0,0.0,0.0,0.0,0.0,0.0,0.0,0.0,0.0,0.0,0.0,0.0,0.0,0.0,0.0,0.0,0.0,0.0,0.0,0.0,0.0,0.0,0.0,0.0,0.0,0.0,0.0,0.0,0.0,0.0,0.0,0.0,0.0,0.0,0.0,0.0,0.0,0.0,0.0,0.0,0.0,0.0,0.0,0.0,0.0,0.0,0.0,0.0,0.0,0.0,0.0,0.0,0.0,0.0,0.0,0.0,0.0,0.0,0.0,0.0,0.0,0.0,0.0,0.0,0.0,0.0,0.0,0.0,0.0,0.0,0.0,0.0,0.0,0.0,0.0,0.0,0.0,0.0,0.0,0.0,0.0,0.0,0.0,0.0,0.0,0.0,0.0,0.0,0.0,0.0,0.0,0.0,0.0,0.0,0.0,0.0,0.0,-3.4929,-3.7754,-3.9929,-4.0907,-4.0715,-4.0354,-3.9964,-3.7963,-3.5549,-3.2857,0.0,0.0,0.0,0.0,0.0,0.0,0.0,0.0,0.0,0.0,0.0,0.0,0.0,0.0,0.0,0.0,0.0,0.0,0.0,0.0,0.0,0.0,0.0,0.0,0.0,0.0,0.0,0.0,0.0,0.0,0.0,0.0,0.0,0.0,0.0,0.0,0.0,0.0,0.0,0.0,0.0,0.0,0.0,0.0,0.0,0.0,0.0,0.0,0.0,0.0,0.0,0.0,0.0,0.0,0.0,0.0,0.0,0.0,0.0,0.0,0.0,0.0,0.0,0.0,0.0,0.0,0.0,0.0,0.0,0.0,0.0,0.0,0.0,0.0,0.0,0.0,0.0,0.0,0.0,0.0,0.0,0.0,0.0,0.0,0.0,0.0,0.0,0.0,0.0,0.0,0.0,0.0,0.0,0.0,0.0,0.0,0.0,0.0,0.0,0.0,0.0,0.0,-3.3657,-3.631,-3.8385,-3.9548,-3.9413,-3.9041,-3.8531,-3.6772,-3.455,-3.1849,0.0,0.0,0.0,0.0,0.0,0.0,0.0,0.0,0.0,0.0,0.0,0.0,0.0,0.0,0.0,0.0,0.0,0.0,0.0,0.0,0.0,0.0,0.0,0.0,0.0,0.0,0.0,0.0,0.0,0.0,0.0,0.0,0.0,0.0,0.0,0.0,0.0,0.0,0.0,0.0,0.0,0.0,0.0,0.0,0.0,0.0,0.0,0.0,0.0,0.0,0.0,0.0,0.0,0.0,0.0,0.0,0.0,0.0,0.0,0.0,0.0,0.0,0.0,0.0,0.0,0.0,0.0,0.0,0.0,0.0,0.0,0.0,0.0,0.0,0.0,0.0,0.0,0.0,0.0,0.0,0.0,0.0,0.0,0.0,0.0,0.0,0.0,0.0,0.0,0.0,0.0,0.0,0.0,0.0,0.0,0.0,0.0,0.0,0.0,0.0,0.0,0.0,-3.2683,-3.5307,-3.7314,-3.8273,-3.8291,-3.777,-3.6672,-3.5187,-3.3339,-3.114,0.0,0.0,0.0,0.0,0.0,0.0,0.0,0.0,0.0,0.0,0.0,0.0,0.0,0.0,0.0,0.0,0.0,0.0,0.0,0.0,0.0,0.0,0.0,0.0,0.0,0.0,0.0,0.0,0.0,0.0,0.0,0.0,0.0,0.0,0.0,0.0,0.0,0.0,0.0,0.0,0.0,0.0,0.0,0.0,0.0,0.0,0.0,0.0,0.0,0.0,0.0,0.0,0.0,0.0,0.0,0.0,0.0,0.0,0.0,0.0,-3.9513,0.0,0.0,0.0,0.0,0.0,0.0,0.0,0.0,0.0,0.0,0.0,0.0,0.0,0.0,0.0,0.0,0.0,0.0,0.0,0.0,0.0,0.0,0.0,0.0,0.0,0.0,0.0,0.0,0.0,0.0,0.0,0.0,0.0,0.0,0.0,0.0,0.0,0.0,0.0,0.0,0.0,-3.1029,-3.302,-3.4693,-3.5896,-3.5132,-3.4657,-3.4967,-3.363,-3.1836,-2.9619,-2.7858,0.0,0.0,0.0,0.0,0.0,0.0,0.0,0.0,0.0,0.0,0.0,0.0,0.0,0.0,0.0,0.0,0.0,0.0,0.0,0.0,0.0,0.0,0.0,0.0,0.0,0.0,0.0,0.0,0.0,0.0,0.0,0.0,0.0,0.0,0.0,0.0,0.0,0.0,0.0,0.0,0.0,0.0,0.0,0.0,0.0,0.0,0.0,0.0,0.0,0.0,0.0,0.0,0.0,0.0,0.0,0.0,0.0,0.0,0.0,0.0,-4.0296,0.0,0.0,0.0,0.0,0.0,0.0,0.0,0.0,0.0,0.0,0.0,0.0,0.0,0.0,0.0,0.0,0.0,0.0,0.0,0.0,0.0,0.0,0.0,0.0,0.0,0.0,0.0,0.0,0.0,0.0,0.0,0.0,0.0,0.0,0.0,0.0,0.0,0.0,0.0,0.0,-3.0191,-3.1879,-3.326,-3.4281,-3.3798,-3.3558,-3.3931,-3.2953,-3.1667,-3.0161,-2.8281,0.0,0.0,0.0,0.0,0.0,0.0,0.0,0.0,0.0,0.0,0.0,0.0,0.0,0.0,0.0,0.0,0.0,0.0,0.0,0.0,0.0,0.0,0.0,0.0,0.0,0.0,0.0,0.0,0.0,0.0,0.0,0.0,0.0,0.0,0.0,0.0,0.0,0.0,0.0,0.0,0.0,0.0,0.0,0.0,0.0,0.0,0.0,0.0,0.0,0.0,0.0,0.0,0.0,-4.5624,-4.6037,-4.6056,-4.6778,-4.6721,-4.5885,-4.3151,-4.1968,-4.1943,0.0,0.0,0.0,0.0,0.0,0.0,0.0,0.0,0.0,0.0,0.0,0.0,0.0,0.0,0.0,0.0,0.0,0.0,0.0,0.0,0.0,0.0,0.0,0.0,0.0,-3.1371,-3.0972,0.0,0.0,0.0,0.0,0.0,0.0,0.0,0.0,0.0,0.0,0.0,0.0,-2.9617,-3.1072,-3.2259,-3.3119,-3.3102,-3.3068,-3.3203,-3.2527,-3.1802,-3.1055,-2.899,-2.7469,0.0,0.0,0.0,0.0,0.0,0.0,0.0,0.0,0.0,0.0,0.0,0.0,0.0,0.0,0.0,0.0,0.0,0.0,0.0,0.0,0.0,0.0,0.0,0.0,0.0,0.0,0.0,0.0,0.0,0.0,0.0,0.0,-4.2266,-4.3242,0.0,0.0,0.0,0.0,0.0,0.0,0.0,0.0,0.0,0.0,0.0,0.0,0.0,0.0,-4.5075,-4.597,-4.6442,-4.6567,-4.7375,-4.7778,-4.7778,-4.7894,-4.7875,-4.7712,-4.6589,0.0,-4.3504,-4.2337,0.0,0.0,0.0,0.0,0.0,0.0,0.0,0.0,0.0,0.0,0.0,0.0,0.0,0.0,0.0,0.0,0.0,0.0,0.0,0.0,0.0,0.0,-3.2942,-3.2744,-3.1956,-3.0983,0.0,-2.8655,-2.7384,-2.6437,0.0,0.0,0.0,0.0,0.0,0.0,0.0,0.0,-2.8857,-2.9871,-3.092,-3.231,-3.1867,-3.1749,-3.2395,-3.1765,-3.1021,-3.0294,-2.8703,-2.7469,-2.6725,-2.5185,0.0,0.0,0.0,0.0,0.0,0.0,0.0,0.0,0.0,0.0,0.0,0.0,0.0,0.0,0.0,0.0,0.0,0.0,0.0,0.0,0.0,0.0,0.0,0.0,0.0,0.0,0.0,0.0,0.0,-4.1523,-4.3086,-4.2988,-4.3044,-4.2571,0.0,0.0,0.0,0.0,0.0,0.0,0.0,0.0,0.0,-4.496,-4.5163,-4.5586,-4.6317,-4.7163,-4.7817,-4.8317,-4.8663,-4.9086,-4.9529,-4.9048,-4.8836,-4.8759,-4.7471,-4.6397,-4.5438,-4.3551,-4.1637,-3.9764,0.0,0.0,0.0,0.0,0.0,-3.6431,-3.7331,-3.6872,0.0,0.0,0.0,0.0,0.0,0.0,0.0,0.0,0.0,0.0,0.0,0.0,0.0,-3.3228,-3.2505,-3.1735,-3.1413,-3.048,-2.9245,0.0,-2.7046,-2.6336,-2.4778,0.0,0.0,0.0,0.0,0.0,-2.8146,-2.8991,-2.9738,-3.0381,-3.0161,-3.0093,-3.0415,-3.0161,-2.9839,-2.9499,-2.8415,-2.7655,-2.7317,-2.5896,-2.4669,0.0,0.0,0.0,0.0,0.0,0.0,0.0,0.0,0.0,0.0,0.0,0.0,0.0,0.0,0.0,0.0,0.0,0.0,0.0,0.0,0.0,0.0,0.0,0.0,0.0,0.0,0.0,0.0,-4.2381,-4.3768,-4.3144,-4.3828,-4.3613,0.0,0.0,0.0,0.0,0.0,0.0,-4.4123,-4.4213,-4.4936,-4.6574,-4.7218,-4.7644,-4.7875,-4.8471,-4.9086,-4.9721,-4.9721,-4.9952,-5.0346,-4.9702,-4.9279,-4.899,-4.7528,-4.6904,-4.6723,-4.4288,-4.2447,-4.1025,-3.9785,-3.8579,-3.7606,-3.8208,-3.79,-3.7386,-3.8597,-3.834,-3.7327,-3.6303,0.0,-3.4606,-3.2709,0.0,0.0,0.0,0.0,-3.2195,-3.2499,0.0,-3.2882,-3.3068,-3.2544,-3.2022,-3.2022,-3.1599,-3.0632,0.0,-2.8229,-2.752,-2.5659,0.0,0.0,0.0,0.0,-2.6759,-2.7689,-2.8332,-2.8755,-2.8976,-2.8993,-2.8993,-2.8993,-2.8993,-2.8993,-2.8993,-2.8247,-2.7807,-2.7807,-2.6556,-2.5378,-2.4348,0.0,0.0,0.0,0.0,0.0,0.0,0.0,0.0,0.0,0.0,0.0,0.0,0.0,0.0,0.0,0.0,0.0,0.0,0.0,0.0,0.0,0.0,0.0,0.0,0.0,0.0,0.0,0.0,0.0,-4.4863,-4.5644,0.0,0.0,0.0,0.0,-4.3462,-4.4181,-4.5343,-4.7014,-4.6979,-4.7669,-4.9352,-4.9329,-4.9663,-5.05,-5.0558,-5.0596,-5.0635,-5.0635,-5.0221,-4.9452,-4.9413,-4.8952,-4.8125,-4.7278,-4.6904,-4.6723,-4.4288,-4.3234,-4.3007,-4.1554,-4.093,-4.0857,-4.0893,-4.0414,-3.9717,-3.9808,-3.8814,-3.7621,-3.8285,-3.7463,-3.612,-3.5605,-3.4852,0.0,0.0,-3.3009,-3.3068,-3.3281,-3.2324,-3.1478,-3.2192,-3.1802,-3.1258,-3.1258,-3.1224,-3.0954,0.0,-2.9414,-2.8653,-2.7773,0.0,-2.5778,-2.6471,-2.6065,-2.6167,-2.7621,-2.7841,-2.8145,-2.8925,-2.8993,-2.8993,-2.8993,-2.8993,-2.8993,-2.8993,-2.8247,-2.7807,-2.7807,-2.7063,-2.6302,-2.5526,-2.4798,0.0,0.0,0.0,0.0,0.0,0.0,0.0,0.0,0.0,0.0,0.0,0.0,0.0,0.0,0.0,0.0,0.0,0.0,0.0,0.0,0.0,0.0,0.0,0.0,0.0,0.0,0.0,0.0,-4.568,-4.6972,0.0,-4.5097,-4.5195,-4.5605,-4.6129,-4.646,-4.7347,-4.895,-4.89,-4.9322,-5.0393,-5.0312,-5.0385,-5.0712,-5.0712,-5.0712,-5.0693,-5.0125,-4.9702,-4.9356,-4.8279,-4.7625,-4.7278,-4.6432,-4.6067,-4.5991,-4.4908,-4.3997,-4.3202,-4.2239,-4.157,-4.104,-4.0524,-4.0139,-3.9827,-3.9313,-3.8744,-3.823,-3.7991,-3.7184,-3.627,-3.6117,-3.5669,-3.5008,-3.4165,-3.3864,-3.3755,-3.3587,-3.2717,-3.2052,-3.2625,-3.1954,-3.1072,-3.0598,-3.0497,-3.0277,-2.9533,-2.9179,-2.8604,-2.7317,-2.6657,-2.6234,-2.6031,-2.6167,-2.6505,-2.7029,-2.7097,-2.7199,-2.7503,-2.752,-2.752,-2.752,-2.752,-2.7334,-2.6843,-2.6556,-2.637,-2.637,-2.5676,-2.5168,-2.4897,-2.4169,-2.3351,0.0,0.0,0.0,0.0,0.0,0.0,0.0,0.0,0.0,0.0,0.0,0.0,0.0,0.0,0.0,0.0,0.0,0.0,0.0,0.0,0.0,0.0,0.0,0.0,0.0,0.0,-4.6352,-4.6466,-4.8042,-4.8482,-4.6829,-4.6972,-4.7539,-4.8418,-4.8476,-4.9061,-5.039,-5.0345,-5.0491,-5.0946,-5.0835,-5.0604,-5.0269,-5.0269,-5.0106,-4.9817,-4.924,-4.8817,-4.8529,-4.7413,-4.674,-4.6432,-4.5845,-4.5594,-4.5577,-4.5232,-4.4395,-4.3259,-4.2987,-4.2308,-4.1425,-4.091,-4.0359,-3.9772,-3.8982,-3.8707,-3.8615,-3.8065,-3.7533,-3.711,-3.711,-3.6708,-3.6095,-3.5379,-3.4741,-3.4146,-3.3547,-3.2759,-3.2183,-3.2357,-3.1579,-3.0683,-3.0226,-2.9905,-2.9499,-2.8738,-2.8602,-2.8264,-2.7249,-2.686,-2.6522,-2.6048,-2.6387,-2.6691,-2.6691,-2.6691,-2.6691,-2.6691,-2.6691,-2.659,-2.6353,-2.6336,-2.6015,-2.527,-2.522,-2.522,-2.522,-2.4762,-2.4491,-2.4491,-2.378,-2.2844,-2.172,0.0,0.0,0.0,0.0,0.0,0.0,0.0,0.0,0.0,0.0,0.0,0.0,0.0,0.0,0.0,0.0,0.0,0.0,0.0,0.0,0.0,0.0,0.0,-4.3144,-4.5499,-4.7178,-4.7266,-4.8918,-4.9362,-4.7684,-4.8391,-4.9336,-5.0176,-5.0234,-5.0586,-5.1367,-5.127,-5.1167,-5.1103,-5.0946,-5.0391,-4.9413,-4.9384,-4.8933,-4.8105,-4.8067,-4.7663,-4.6904,-4.6865,-4.6394,-4.5594,-4.5594,-4.5594,-4.5577,-4.5223,-4.4368,-4.3353,-4.3787,-4.3286,-4.2268,-4.2231,-4.1222,-3.9753,-3.8964,-3.8707,-3.8707,-3.8707,-3.8689,-3.867,-3.867,-3.8102,-3.7348,-3.6799,-3.5566,-3.4183,-3.3263,-3.2433,-3.1716,-3.1334,-3.0673,-3.0129,-3.0059,-2.9502,-2.8757,-2.7908,-2.7773,-2.7773,-2.7773,-2.7182,-2.6691,-2.6691,-2.6691,0.0,-2.6691,-2.6674,-2.6657,-2.6657,-2.664,-2.6336,-2.5642,-2.5575,-2.5253,-2.4508,-2.4457,-2.4457,-2.4457,-2.444,-2.4423,-2.4423,-2.3729,-2.2471,-2.0612,0.0,0.0,0.0,0.0,0.0,0.0,0.0,0.0,0.0,0.0,0.0,0.0,0.0,0.0,0.0,0.0,0.0,0.0,0.0,0.0,0.0,0.0,-4.3918,-4.4812,-4.6612,-4.8094,-4.8858,-5.0033,-5.0626,-5.0201,-5.048,-5.0801,-5.1055,-5.1074,-5.1172,-5.1387,-5.127,-5.1194,-5.1174,-5.0373,-4.9821,-4.9556,-4.8812,-4.8336,-4.8086,-4.7509,-4.7115,-4.6885,-4.624,-4.5825,-4.5594,-4.5594,-4.5594,-4.5547,-4.4822,-4.4182,-4.3643,-4.3282,-4.2434,-4.1352,-4.0763,-3.99,-3.9001,-3.8781,-3.8707,-3.8707,-3.8707,-3.8303,-3.7841,-3.7841,-3.7272,-3.6472,-3.57,-3.4948,-3.4279,-3.371,-3.2936,-3.2226,-3.1875,-3.1364,-3.0592,-2.9179,-2.8698,-2.827,-2.7216,-2.6996,-2.6996,-2.6996,-2.6826,-2.6691,-2.6691,0.0,0.0,-2.6691,-2.6234,-2.5896,-2.5896,-2.5406,-2.5015,-2.4829,-2.4795,-2.4491,-2.3763,-2.3712,-2.3712,-2.3712,-2.319,-2.2902,-2.2902,-2.2716,-2.2082,0.0,0.0,0.0,0.0,0.0,0.0,0.0,0.0,0.0,0.0,0.0,0.0,0.0,0.0,0.0,0.0,0.0,0.0,0.0,0.0,0.0,0.0,-4.3704,-4.563,-4.7,-4.8029,-4.9007,-4.9956,-5.0674,-5.1122,-5.1147,-5.1294,-5.1406,-5.1406,-5.1406,-5.1406,-5.1406,-5.1321,-5.1109,-5.0716,-5.0043,-4.9304,-4.8526,-4.7893,-4.7413,-4.7048,-4.6586,-4.6355,-4.6336,-4.5825,-4.5402,0.0,-4.5056,-4.4863,-4.4509,-4.4008,-4.3387,0.0,0.0,0.0,0.0,0.0,-3.9093,-3.8707,-3.8707,-3.8707,-3.8652,-3.8303,-3.7878,-3.7437,-3.7107,-3.6413,-3.5646,-3.5151,-3.4593,-3.4047,-3.3664,-3.2913,-3.2188,-3.1801,-3.1008,-3.0035,-2.8907,-2.8282,-2.7728,-2.7089,0.0,0.0,-2.6691,-2.6691,-2.6691,-2.6691,-2.6437,-2.6234,0.0,-2.5592,-2.5135,-2.5135,-2.4762,-2.4372,-2.4068,-2.4051,0.0,0.0,0.0,-2.2936,-2.2936,-2.253,0.0,0.0,0.0,0.0,0.0,0.0,0.0,0.0,-2.1771,-2.2107,0.0,0.0,0.0,0.0,0.0,0.0,0.0,0.0,0.0,0.0,0.0,0.0,0.0,0.0,0.0,0.0,-4.544,-4.7278,-4.9269,-4.9548,-4.9817,-5.0616,-5.0925,-5.1074,-5.1108,-5.1273,-5.1386,-5.1406,-5.1406,-5.1406,-5.1406,0.0,0.0,0.0,0.0,-4.871,-4.7036,-4.6841,-4.6374,-4.5594,-4.5594,-4.5594,-4.5594,-4.5498,-4.5037,-4.4297,-4.4201,-4.3758,-4.3085,-4.2989,-4.2228,-4.1146,-4.1595,-4.1089,-3.9997,-3.905,-3.8707,0.0,0.0,0.0,0.0,-3.7639,-3.7309,-3.7088,-3.6376,-3.555,-3.4857,-3.4857,-3.4344,-3.3703,-3.3238,-3.2593,-3.1913,-3.1324,-3.0127,-2.91,-2.895,-2.8067,-2.7287,-2.7241,-2.6878,-2.6553,-2.652,-2.6555,-2.6573,-2.6573,-2.5947,0.0,-2.549,-2.4831,-2.4372,-2.4372,0.0,0.0,-2.3325,-2.3274,-2.3004,-2.233,-2.2296,-2.2296,-2.2296,-2.2296,-2.2296,-2.2296,-2.2296,-2.2296,-2.2296,-2.2296,-2.2296,-2.2296,-2.2296,-2.2296,0.0,0.0,0.0,0.0,0.0,0.0,0.0,0.0,0.0,0.0,0.0,0.0,0.0,0.0,0.0,-4.4551,-4.6801,-4.8823,-5.025,-5.0462,-5.0519,-5.0673,-5.0835,-5.0979,-5.1079,-5.1171,-5.1273,-5.1386,-5.1406,-5.1406,-5.1406,-5.0781,0.0,-5.0174,-4.8554,-4.7533,-4.7155,-4.629,-4.5768,-4.5594,0.0,0.0,-4.5575,-4.4874,-4.4451,-4.4259,-4.3605,-4.3239,-4.3047,-4.2335,-4.1208,-3.9913,-3.9758,-3.9417,-3.8979,-3.8793,-3.8707,-3.8615,-3.797,-3.7731,-3.7603,-3.678,-3.6064,-3.5445,-3.5298,-3.4674,0.0,-3.4027,-3.3917,-3.3628,-3.2907,-3.2587,-3.2135,-3.0742,-3.0183,-2.9701,-2.8729,-2.7838,-2.7139,-2.6862,-2.623,-2.5652,-2.5382,-2.5611,-2.5812,-2.5812,-2.5186,-2.4711,-2.4711,-2.4068,-2.3613,-2.3613,-2.3088,-2.2682,-2.2516,-2.2499,-2.2448,-2.2296,-2.2296,-2.2296,-2.2296,-2.2296,-2.2296,-2.2296,-2.2296,-2.2296,-2.2296,-2.2296,-2.2296,-2.2296,-2.2296,-2.2296,0.0,0.0,0.0,0.0,0.0,0.0,0.0,0.0,0.0,0.0,0.0,-3.7617,-3.8841,0.0,-4.372,-4.5517,-4.7345,-4.8979,-5.0232,-5.0565,-5.0712,-5.0712,-5.0822,-5.094,-5.1098,-5.1154,-5.1265,-5.1386,-5.1406,-5.1211,-5.082,-5.043,-4.9805,-4.8926,-4.7852,-4.7049,-4.655,-4.5977,-4.5665,-4.5594,-4.5594,-4.5364,-4.4932,-4.4489,-4.3835,-4.3028,-4.2624,-4.22,-4.1758,-4.1335,-4.0641,-3.9781,-3.9041,-3.8728,-3.8652,-3.8248,-3.8102,-3.7973,-3.718,-3.6905,-3.6762,-3.5917,-3.5353,-3.4931,-3.4509,-3.4119,-3.3807,-3.3807,-3.3513,-3.3109,-3.2693,-3.1995,-3.1201,-3.0393,-2.9886,-2.9428,-2.8822,-2.7918,-2.7149,-2.6977,-2.6175,-2.5447,-2.5285,-2.498,-2.4825,-2.5014,-2.4423,-2.3949,-2.3949,-2.3308,-2.2852,-2.2852,-2.2516,-2.2296,-2.2296,-2.2296,-2.2296,-2.2296,-2.2296,-2.2296,-2.2296,-2.2296,-2.2296,-2.2296,-2.2296,-2.2296,-2.2296,-2.2296,-2.2296,-2.2296,-2.2296,-2.2296,0.0,0.0,0.0,0.0,0.0,0.0,0.0,0.0,-3.51,-3.5314,-3.739,-3.9424,-4.0292,-4.2287,-4.4393,-4.622,-4.7646,-4.8902,-4.996,-5.0298,-5.0462,-5.0462,-5.0683,-5.0925,-5.1074,-5.116,-5.1234,-5.1386,-5.1269,-5.0879,-5.0234,-4.9883,-4.9043,-4.7637,-4.7307,-4.6741,-4.5903,-4.5825,-4.5725,-4.5594,-4.5441,-4.4979,-4.4297,-4.3951,-4.3085,-4.1788,-4.1623,-4.1143,-4.0496,-4.0323,-4.0089,-3.9728,-3.8652,-3.829,-3.8298,-3.7537,-3.7272,-3.7144,-3.6321,-3.6046,-3.5917,-3.5041,-3.4766,-3.4656,-3.4009,-3.3807,-3.377,-3.3605,-3.3096,-3.2528,-3.2216,-3.1182,-3.0173,-3.0008,-2.9354,-2.8767,-2.8767,-2.7747,-2.6844,-2.6844,-2.599,-2.5237,-2.5156,-2.444,-2.3983,-2.4317,-2.3706,-2.319,-2.319,-2.2682,-2.2296,-2.2296,-2.2296,-2.2296,-2.2296,-2.2296,-2.2296,-2.2296,-2.2296,-2.2296,-2.2296,-2.2296,-2.2296,-2.2296,-2.2296,-2.2296,-2.2296,-2.2296,-2.2296,-2.2296,-2.2296,-2.2296,-3.1888,-3.0717,-3.07,-3.2669,-3.3213,-3.3807,0.0,0.0,-3.6853,-3.7923,-3.8986,-4.0038,-4.1061,-4.3257,-4.5275,-4.6339,-4.8101,-4.9537,-5.0024,-4.978,-4.9548,-4.9548,-5.0231,-5.083,-5.1088,-5.1103,-5.1197,-5.1386,-5.0742,-5.0293,-5.0195,-4.873,-4.7793,-4.7617,-4.6719,-4.6137,-4.5903,-4.5825,-4.5725,-4.5594,-4.4816,-4.4393,-4.4239,-4.2758,-4.1981,-4.175,-4.0969,-4.0593,-4.0439,-3.9727,-3.9246,-3.8861,-3.7956,-3.7465,-3.7202,-3.6639,-3.6431,-3.6303,-3.5445,-3.5151,-3.5004,-3.4211,-3.3935,-3.3917,-3.3825,-3.3807,-3.3642,-3.2931,-3.2674,-3.2271,-3.0852,-3.0338,-3.0026,-2.9299,-2.8521,-2.7934,-2.7934,-2.6701,-2.5599,-2.5599,-2.4927,-2.4249,-2.3952,-2.3797,-2.3785,-2.3939,-2.3098,-2.2415,-2.2415,-2.2347,-2.2296,-2.2296,-2.2296,-2.2296,-2.2296,-2.2296,-2.2296,-2.2296,-2.2296,-2.2296,-2.2296,-2.2296,-2.2296,-2.2296,-2.2296,-2.2296,-2.2296,-2.2296,-2.2296,-2.2296,-2.2296,-2.2296,-3.215,-3.2239,0.0,0.0,-3.4404,-3.5622,-3.6592,-3.7472,-3.8214,-3.8747,-3.9978,-4.1102,-4.1546,-4.3419,-4.515,0.0,-4.7648,-4.8857,-4.8975,-4.9231,-4.9202,-4.8702,-4.8971,-4.9291,-4.9552,-4.9596,-4.9685,-4.9921,-4.9629,-4.9219,-4.8711,-4.8008,-4.7363,-4.6855,-4.6442,-4.6149,-4.6027,-4.5442,-4.5089,-4.495,-4.4036,-4.3335,-4.2816,-4.2115,-4.1527,-4.0989,-4.0169,-3.9804,-3.9746,-3.8892,-3.8454,-3.8224,-3.7198,-3.6729,-3.6566,-3.6031,-3.5827,-3.5689,-3.4664,-3.4289,-3.4252,-3.3917,-3.3807,-3.3715,-3.3238,-3.3096,-3.2926,-3.2137,-3.1568,-3.1054,-3.0375,-2.9861,-2.9299,-2.8484,-2.8044,-2.7658,-2.72,-2.6219,-2.5393,-2.5393,-2.475,-2.4161,-2.4016,-2.3827,-2.3714,-2.3774,-2.3066,-2.249,-2.2307,-2.2296,-2.2296,-2.2296,-2.2296,-2.2296,-2.2296,-2.2296,-2.2296,-2.2296,-2.2296,-2.2296,-2.2296,-2.2296,-2.2296,-2.2296,-2.2296,-2.2296,-2.2296,-2.2296,-2.2296,-2.2296,-2.2296,-2.2296,-3.2564,0.0,0.0,-3.3998,-3.5518,-3.7115,-3.7524,-3.8755,-3.9781,-3.9781,-4.0834,-4.1853,-4.2021,-4.3383,-4.4785,-4.5755,-4.7258,-4.8287,-4.8207,-4.8682,-4.8721,-4.7875,-4.7567,-4.7515,-4.7763,-4.8219,-4.8617,-4.8886,-4.8672,-4.8262,-4.7637,-4.7363,-4.6953,-4.6328,-4.6308,-4.6128,-4.5757,-4.5043,-4.4501,-4.4131,-4.3189,-4.2412,-4.1769,-4.1316,-4.0777,-4.0131,-3.9304,-3.8931,-3.8873,-3.8007,-3.7642,-3.7531,-3.6484,-3.6075,-3.6014,-3.557,-3.5349,-3.5159,-3.4215,-3.3915,-3.3865,-3.3558,-3.3476,-3.333,-3.2522,-3.2284,-3.21,-3.1292,-3.065,-3.0155,-2.9934,-2.9262,-2.851,-2.7934,-2.7467,-2.699,-2.6392,-2.565,-2.5062,-2.5062,-2.4603,-2.419,-2.419,-2.3996,-2.3806,-2.3714,-2.32,-2.2738,-2.2453,-2.2349,-2.2296,-2.2296,-2.2296,-2.2296,-2.2296,-2.2296,-2.2296,-2.2296,-2.2296,-2.2296,-2.2296,-2.2296,-2.2296,-2.2296,-2.2296,-2.2296,-2.2296,-2.2296,-2.2296,-2.2296,-2.2296,-2.2296,0.0,0.0,-3.2886,-3.4991,-3.6563,-3.7945,-3.9396,-4.074,-4.1732,-4.1732,-4.1771,-4.1979,-4.2559,-4.3362,-4.4353,-4.5682,-4.7258,-4.8287,-4.8207,-4.8167,-4.7836,-4.7019,-4.6182,-4.5765,0.0,-4.7518,-4.8617,-4.8886,-4.8125,-4.7637,-4.7598,-4.6797,-4.6328,-4.6308,-4.6308,-4.5835,-4.4857,-4.475,-4.421,-4.3221,-4.2294,-4.1827,-4.1731,-4.0123,-3.9361,-3.9284,-3.8411,-3.8046,-3.7969,-3.7103,-3.6731,-3.6654,-3.5839,-3.5512,-3.5484,-3.5201,-3.4955,-3.468,-3.4311,-3.4195,-3.4017,-3.2974,-3.2638,-3.2491,-3.1678,-3.1452,-3.1268,-3.0467,-3.0228,-3.0026,-2.9244,-2.8448,-2.7835,-2.7816,-2.6605,-2.5466,-2.5429,-2.4805,-2.4245,-2.4245,-2.4208,-2.419,-2.419,-2.419,-2.4074,-2.3753,-2.3403,-2.3069,-2.2733,-2.2463,-2.2296,-2.2296,-2.2296,-2.2296,-2.2296,-2.2296,-2.2296,-2.2296,-2.2296,-2.2296,-2.2296,-2.2296,-2.2296,-2.2296,-2.2296,-2.2296,-2.2296,-2.2296,-2.2296,-2.2296,-2.2296,-2.2296,0.0,0.0,-3.4582,-3.5813,-3.7113,-3.8373,-3.9536,-4.0232,-4.0637,-4.0782,-4.1159,-4.1438,-4.1388,-4.2362,-4.3413,-4.4176,-4.6115,-4.7286,-4.6684,-4.746,-4.7586,-4.6201,-4.5787,0.0,0.0,0.0,0.0,-4.7148,-4.6894,-4.6738,-4.6738,-4.6465,-4.6035,-4.5469,-4.5449,-4.4999,-4.4077,-4.3337,-4.2812,-4.2452,-4.1421,-4.0662,-4.0123,-3.9573,-3.8977,-3.8392,-3.7526,-3.7142,-3.7065,-3.6231,-3.5904,-3.5885,-3.5615,-3.55,-3.5479,-3.5198,-3.4681,-3.4119,-3.4177,-3.3722,-3.308,-3.2713,-3.2247,-3.1641,-3.0852,-3.0595,-3.0448,-2.9629,-2.939,-2.9335,-2.9078,-2.8411,-2.7658,-2.7126,-2.6182,-2.5246,-2.4713,-2.4392,-2.419,-2.419,-2.419,-2.419,-2.419,-2.419,-2.4084,-2.3746,-2.3242,-2.2764,-2.2463,-2.2363,-2.2296,-2.2296,-2.2296,-2.2296,-2.2296,-2.2296,-2.2296,-2.2296,-2.2296,-2.2296,-2.2296,-2.2296,-2.2296,-2.2296,-2.2296,-2.2296,-2.2296,-2.2296,-2.2296,-2.2296,-2.2296,-2.2296,-3.3185,-3.4327,-3.5618,-3.6898,-3.7997,-3.9031,-4.0092,-4.0575,-4.083,-4.097,-4.1361,-4.1569,-4.1278,-4.1973,-4.2829,-4.356,-4.5204,-4.6247,-4.5849,-4.6868,-4.7163,-4.5768,-4.5594,-4.5688,0.0,0.0,0.0,-4.6289,-4.6308,-4.6308,-4.6308,-4.5996,-4.5586,-4.5019,-4.4707,-4.4121,-4.3242,-4.2471,-4.1915,-4.1512,-4.0544,-3.9804,-3.9284,-3.8642,-3.8065,-3.7488,-3.6635,-3.6269,-3.6231,-3.5712,-3.55,-3.55,-3.55,-3.55,-3.5448,-3.496,-3.4358,-3.3805,-3.3778,-3.314,-3.2244,-3.1881,-3.1384,-3.0815,-3.0026,-2.9757,-2.9647,-2.9152,-2.9005,-2.9005,-2.9005,-2.818,-2.7236,-2.6722,-2.5768,-2.4824,-2.43,-2.419,-2.419,-2.419,-2.419,-2.419,-2.419,-2.419,-2.4084,-2.3746,-2.3335,-2.2952,-2.266,-2.2517,-2.2436,-2.2436,-2.2363,-2.2296,-2.2296,-2.2296,-2.2296,-2.2296,-2.2296,-2.2296,-2.2296,-2.2296,-2.2296,-2.2296,-2.2296,-2.2296,-2.2296,-2.2296,-2.2296,-2.2296,-2.2296,-2.2296,-3.4774,-3.5389,-3.598,-3.8133,-3.915,-3.9897,-4.0998,-4.1696,-4.2125,-4.2155,-4.2206,-4.2176,0.0,0.0,-4.2576,-4.3658,-4.4575,-4.5289,-4.5708,-4.6421,-4.6586,0.0,0.0,0.0,0.0,0.0,0.0,-4.621,0.0,-4.623,-4.623,-4.541,-4.4902,-4.4863,-4.4062,-4.3223,-4.2344,-4.2139,-4.1509,-4.0435,-3.9669,-3.9246,-3.9111,-3.745,-3.6673,-3.6596,-3.5827,-3.55,-3.55,-3.55,-3.55,-3.55,-3.55,-3.5462,-3.5327,-3.45,-3.3959,-3.3589,-3.3077,-3.2389,-3.1573,-3.0542,-3.0197,-3.0001,-2.9237,-2.9005,-2.9005,-2.9005,-2.9005,-2.8987,-2.895,-2.7776,-2.6583,-2.6557,-2.5346,-2.419,-2.419,-2.419,-2.419,-2.419,-2.419,-2.419,-2.419,-2.419,-2.4094,-2.3774,-2.3742,-2.3599,-2.3253,-2.2923,-2.2733,-2.2733,-2.2504,-2.2352,-2.2307,-2.2352,-2.2321,-2.2296,-2.2307,-2.2307,-2.2296,-2.2296,-2.2296,-2.2296,-2.2296,-2.2296,-2.2296,-2.2296,-2.2296,-2.2296,-2.2296,-2.2296,-3.5013,-3.6415,-3.7749,-3.8326,-3.9122,-3.9884,-4.0377,-4.0721,-4.0807,-4.0387,-4.0842,-4.0815,0.0,0.0,0.0,-4.1713,-4.4085,0.0,-4.5346,-4.6203,0.0,-4.571,0.0,-4.5688,-4.5876,-4.535,0.0,0.0,-4.5332,-4.5332,-4.5332,-4.4512,-4.373,-4.3086,-4.2851,-4.2344,-4.1504,-4.1259,-4.0635,-3.9682,-3.9408,-3.8623,-3.7353,-3.6904,-3.6365,-3.5788,-3.5596,-3.55,-3.55,-3.55,-3.55,-3.55,-3.55,-3.5103,-3.4474,-3.4064,-3.3073,-3.1889,-3.1553,-3.1289,-3.1072,-3.0629,-3.0097,-2.9535,-2.9129,-2.9005,-2.9005,-2.9005,-2.9005,-2.8858,-2.8264,-2.7365,-2.6447,-2.5852,-2.4934,-2.419,-2.419,-2.419,-2.419,-2.419,-2.419,-2.419,-2.419,-2.419,-2.417,-2.4084,-2.4074,-2.3847,-2.3288,-2.3129,-2.3081,-2.3081,-2.3014,-2.2883,-2.2625,-2.2832,-2.2773,-2.2338,-2.2487,-2.2514,-2.231,-2.2296,-2.2296,-2.2296,-2.2296,-2.2296,-2.2296,-2.2296,-2.2296,-2.2296,-2.2296,-2.2296,-3.6397,-3.7777,-3.8958,-3.9101,-3.9559,-3.9961,-3.9934,-4.0042,-3.9953,-3.9299,-3.9582,0.0,0.0,0.0,0.0,0.0,0.0,0.0,-4.5137,-4.5812,-4.6144,0.0,-4.5594,0.0,-4.5385,-4.4961,-4.4614,0.0,-4.4433,-4.4433,-4.4433,-4.3594,-4.291,-4.2422,-4.2051,-4.1444,-4.0558,-4.0394,-3.9821,-3.8825,-3.8421,-3.77,-3.6692,-3.6327,-3.5923,-3.55,0.0,-3.5269,-3.493,-3.493,-3.4699,-3.4365,-3.4365,-3.4064,-3.3577,-3.3065,-3.2276,-3.1407,-3.0876,-3.0677,-3.063,-3.0302,-2.9828,-2.9372,-2.9214,-2.9089,-2.9005,-2.9005,-2.9005,-2.8803,-2.8007,-2.72,-2.641,-2.5595,-2.4787,-2.419,-2.419,-2.419,-2.419,-2.419,-2.419,-2.419,-2.419,-2.419,-2.419,-2.419,-2.419,-2.4064,-2.3692,-2.3511,-2.3414,-2.3414,-2.3153,-2.2972,-2.2923,-2.296,-2.2903,-2.2712,-2.2704,-2.2621,-2.2473,-2.236,-2.2296,-2.2296,-2.2296,-2.2296,-2.2296,-2.2296,-2.2296,-2.2296,-2.2296,-2.2296,-3.8097,-3.8986,-3.9676,-4.0022,-4.0117,-4.0024,-3.9673,-3.9586,-3.9336,-3.8574,0.0,-3.8471,-3.8068,-3.9536,-4.09,-4.1167,0.0,-4.4496,-4.5078,-4.5419,-4.5594,-4.5594,-4.5498,-4.5237,-4.4759,-4.4489,-4.4124,-4.3574,-4.3437,-4.3418,-4.3516,-4.2715,-4.2187,-4.207,-4.1387,-4.0544,-3.9559,-3.9533,-3.9003,-3.7981,-3.7248,-3.6777,-3.6535,-3.5821,-3.55,-3.5481,0.0,0.0,-3.4186,-3.409,-3.3583,-3.2891,-3.2891,-3.2833,-3.266,-3.1968,-3.1641,-3.1429,-3.0654,-3.0404,-3.0336,-2.988,-2.9607,-2.9434,-2.9412,-2.9129,-2.8858,-2.8968,-2.8858,-2.851,-2.7824,-2.7034,-2.6245,-2.5429,-2.4713,-2.419,-2.419,-2.419,-2.419,-2.419,-2.419,-2.419,-2.419,-2.419,-2.419,-2.419,-2.419,-2.419,-2.419,-2.3955,-2.3774,-2.3774,-2.3253,-2.3009,-2.3253,-2.3045,-2.2984,-2.3177,-2.2972,-2.2822,-2.2772,-2.2541,-2.2415,-2.2415,-2.2391,-2.2346,-2.2346,-2.2324,-2.2296,-2.2296,-2.2296,-2.2296,-3.8259,-3.899,-3.9691,-4.003,-3.9897,-3.9693,-3.9614,-3.9173,0.0,0.0,0.0,-3.8123,-3.6602,-3.8777,-4.0806,-4.0797,0.0,0.0,0.0,0.0,-4.5594,0.0,0.0,0.0,0.0,0.0,0.0,0.0,0.0,-4.1914,-4.2598,-4.1855,-4.1074,-4.0351,-4.0195,-3.9707,-3.8807,-3.8689,-3.8194,-3.7354,-3.7048,-3.6505,-3.5781,-3.5586,-3.55,-3.5462,0.0,0.0,-3.4148,-3.341,-3.3045,-3.2891,-3.2891,-3.2487,-3.1891,-3.1756,-3.1231,-3.0596,-3.0442,-3.0404,-3.0355,-3.0047,-2.9813,-2.9626,-2.9454,-2.8751,-2.8154,-2.8803,-2.8033,-2.6969,-2.6851,-2.6209,-2.5411,-2.4603,-2.43,-2.419,-2.419,-2.419,-2.419,-2.419,-2.419,-2.419,-2.419,-2.419,-2.419,-2.419,-2.419,-2.419,-2.419,-2.4151,-2.4103,-2.4103,-2.4006,-2.3847,-2.3621,-2.3816,-2.3724,-2.3224,-2.3403,-2.3403,-2.3129,-2.3075,-2.3038,-2.3038,-2.2776,-2.2621,-2.2621,-2.2398,-2.2296,-2.2296,-2.2296,-2.2296,-3.898,-3.9744,-4.0454,-4.0346,-3.996,-3.9486,-3.9035,0.0,0.0,0.0,0.0,-3.6971,-3.6066,0.0,0.0,0.0,0.0,0.0,0.0,0.0,0.0,0.0,0.0,0.0,0.0,0.0,0.0,0.0,0.0,-4.1367,-4.1758,-4.0976,-4.0117,-3.9258,-3.9219,-3.8809,-3.793,-3.7867,-3.7386,-3.6528,-3.6426,-3.6118,-3.5586,-3.509,-3.4859,-3.4776,-3.3891,0.0,-3.2872,-3.2449,-3.2006,-3.1596,-3.1596,-3.1365,-3.1019,-3.1019,-3.075,-3.0404,-3.0404,-3.0404,-3.0296,-2.9717,-2.9612,-2.9593,-2.91,-2.8403,-2.7787,-2.7758,-2.7189,-2.6502,-2.608,-2.5686,-2.5191,-2.4392,-2.419,-2.419,-2.419,-2.419,-2.419,-2.419,-2.419,-2.419,-2.419,-2.419,-2.419,-2.419,-2.419,-2.419,-2.419,-2.419,-2.419,-2.419,-2.4036,-2.3955,-2.3966,-2.3955,-2.3886,-2.3724,-2.3703,-2.3639,-2.3477,-2.3282,-2.3117,-2.2947,-2.2784,-2.2621,-2.2487,-2.236,-2.2296,-2.2296,-2.2296,-2.2296,-3.9691,-4.0365,-4.096,-4.0595,-3.9917,-3.9132,-3.8463,-3.7636,0.0,0.0,-3.5996,-3.5975,-3.5921,0.0,0.0,0.0,0.0,0.0,0.0,0.0,0.0,0.0,0.0,0.0,0.0,0.0,0.0,0.0,0.0,0.0,-4.0918,-4.0098,-3.9219,-3.8359,-3.832,-3.7891,-3.7031,-3.7012,-3.6657,-3.5916,-3.5711,-3.5541,-3.5357,-3.4434,-3.4,-3.3884,-3.3019,0.0,0.0,-3.1506,-3.1019,-3.0404,-3.0404,-3.0404,-3.0404,-3.0404,-3.0404,-3.0404,-3.0404,-3.0288,-3.0,-2.9319,-2.928,-2.9347,-2.8531,-2.7848,-2.7248,-2.6778,-2.6379,-2.5988,-2.5521,-2.5264,-2.4989,-2.4355,-2.419,-2.419,-2.419,-2.419,-2.419,-2.419,-2.419,-2.419,-2.419,-2.419,-2.419,-2.419,-2.419,-2.419,-2.419,-2.419,-2.4135,-2.3951,-2.3856,-2.3917,-2.418,-2.3966,-2.3917,-2.418,-2.3792,-2.3625,-2.3806,-2.3382,-2.3111,-2.3021,-2.296,-2.2781,-2.2494,-2.2429,-2.2363,-2.2296,-2.2296,-2.2296,-3.9962,-4.0138,-4.0253,-4.0441,-3.9447,-3.8405,-3.8327,0.0,0.0,-3.6016,-3.5996,-3.5996,-3.5996,0.0,0.0,0.0,0.0,0.0,0.0,0.0,0.0,0.0,0.0,0.0,0.0,0.0,0.0,0.0,0.0,0.0,-3.998,-3.9199,-3.832,-3.7441,-3.7422,-3.6992,-3.6133,-3.6113,-3.6074,-3.5976,-3.5137,-3.4704,-3.4653,-3.3604,-3.3127,-3.3068,0.0,0.0,0.0,-3.0846,-3.0462,-3.0404,-3.0404,-3.0404,-3.0404,-3.0404,-3.0404,-3.0404,-3.0404,-2.989,-2.9204,-2.9127,-2.9002,-2.872,-2.7856,-2.6803,-2.6033,-2.6684,-2.5689,-2.4575,-2.5227,-2.486,-2.4281,-2.4208,-2.419,-2.419,-2.419,-2.419,-2.419,-2.419,-2.419,-2.419,-2.419,-2.419,-2.419,-2.419,-2.419,-2.419,-2.419,-2.419,-2.3914,-2.3189,-2.3749,-2.417,-2.4208,-2.417,-2.417,-2.419,-2.3482,-2.34,-2.4124,-2.3408,-2.3352,-2.4046,-2.3756,-2.3455,-2.3123,-2.281,-2.2537,-2.2296,-2.2296,-2.2296,-3.9939,-4.0213,-4.0364,-4.0473,-3.9322,-3.819,-3.8276,0.0,-3.5948,-3.5996,-3.5996,-3.5996,-3.5996,-3.6248,0.0,0.0,0.0,0.0,0.0,0.0,0.0,0.0,0.0,0.0,0.0,0.0,0.0,0.0,0.0,0.0,-3.832,-3.8008,-3.7422,-3.6543,-3.6523,-3.6094,-3.5234,-3.5215,-3.4941,-3.4434,-3.406,-3.3853,-3.3789,-3.2832,-3.234,-3.2232,0.0,0.0,0.0,-3.0538,-3.0404,-3.0404,-3.0404,-3.0404,-3.0404,-3.0404,-3.0404,-3.0327,-2.9794,-2.939,-2.8934,-2.7909,-2.7539,-2.7393,-2.6912,-2.637,-2.5847,-2.5686,-2.5113,-2.4611,-2.4809,-2.4533,-2.419,-2.419,-2.419,-2.419,-2.419,-2.419,-2.419,-2.419,-2.419,-2.419,-2.419,-2.419,-2.419,-2.419,-2.419,-2.419,-2.419,-2.419,-2.3896,-2.3098,-2.3281,-2.329,-2.2804,-2.2767,-2.2767,-2.2767,-2.2446,-2.2648,-2.3428,-2.3171,-2.3289,-2.3888,-2.3774,-2.3533,-2.32,-2.3069,-2.2952,-2.2849,-2.263,-2.2537,-3.9742,-4.0186,-4.0512,-4.0545,-3.9347,-3.8186,0.0,-3.7071,-3.5946,-3.5996,-3.5996,-3.5996,-3.5996,-3.5996,-3.6171,0.0,0.0,0.0,0.0,0.0,0.0,0.0,0.0,0.0,0.0,0.0,0.0,0.0,0.0,0.0,0.0,-3.6289,-3.5976,-3.5625,-3.5371,-3.4941,-3.4316,-3.4316,-3.4004,-3.3398,-3.3164,-3.3025,-3.295,-3.2026,-3.1556,-3.1444,0.0,0.0,0.0,-3.0433,-3.0425,-3.0404,-3.0404,-3.0404,-3.0365,-3.0115,-3.0019,-2.989,-2.905,-2.8588,-2.8165,-2.6986,-2.6428,-2.6196,-2.6054,-2.5863,-2.5584,-2.4962,-2.4716,-2.4583,-2.4444,-2.4312,-2.419,-2.419,-2.419,-2.419,-2.419,-2.419,-2.419,-2.419,-2.419,-2.419,-2.419,-2.419,-2.419,-2.419,-2.419,-2.419,-2.419,-2.3988,-2.3547,-2.274,-2.2401,-2.2152,-2.1831,-2.1794,-2.1794,-2.1794,-2.1555,-2.1785,-2.2611,-2.2648,-2.2904,-2.3474,-2.3728,-2.3682,-2.3357,-2.3115,-2.2951,-2.2841,-2.2357,-2.2203,-3.941,-3.9946,-4.0523,-4.0655,-3.9491,-3.8314,0.0,-3.7157,-3.5996,-3.5996,-3.5996,-3.5996,-3.5996,-3.5996,-3.5996,0.0,0.0,0.0,0.0,0.0,0.0,0.0,0.0,0.0,0.0,0.0,0.0,0.0,0.0,0.0,0.0,-3.3906,-3.3828,-3.4687,-3.3887,-3.3418,-3.3418,-3.3418,-3.3418,-3.3398,-3.2598,-3.2207,-3.2187,-3.1178,-3.0714,0.0,0.0,0.0,0.0,-3.0498,-3.0462,-3.0404,-3.0404,-3.0404,-3.0308,-2.9429,-2.9107,-2.8992,-2.8184,-2.7351,-2.6621,-2.6621,-2.6019,-2.5308,-2.5303,-2.5176,-2.4968,-2.4835,-2.452,-2.4218,-2.4199,-2.419,-2.419,-2.419,-2.419,-2.419,-2.419,-2.419,-2.419,-2.419,-2.419,-2.419,-2.419,-2.419,-2.419,-2.419,-2.419,-2.419,-2.419,-2.3501,-2.2703,-2.1904,-2.1051,-2.0859,-2.1721,-2.1794,-2.1794,-2.1794,-2.0996,-2.0896,-2.1776,-2.1812,-2.2189,-2.2988,-2.3795,-2.4026,-2.3692,-2.2896,-2.2343,-2.1982,-2.1183,-2.1068,-3.8393,-3.8745,-3.8984,-3.8941,-3.8156,-3.743,-3.7503,-3.669,-3.5946,-3.5996,-3.5996,-3.5996,-3.5996,-3.5996,-3.6191,-3.6797,0.0,0.0,0.0,0.0,0.0,0.0,0.0,0.0,0.0,0.0,0.0,0.0,0.0,0.0,0.0,-3.3027,-3.2969,-3.3789,-3.3535,-3.3144,-3.2598,-3.2578,-3.2285,-3.1699,-3.1426,-3.1309,-3.1309,-3.0975,0.0,0.0,0.0,0.0,0.0,-3.0498,-3.0462,-3.0346,-2.9737,-2.9506,-2.941,-2.8588,-2.828,-2.8165,-2.7313,-2.6832,-2.6505,-2.5904,-2.5519,-2.5308,-2.5308,-2.5259,-2.5198,-2.5154,-2.4956,-2.4754,-2.4754,-2.4588,-2.441,-2.441,-2.4303,-2.419,-2.419,-2.419,-2.419,-2.419,-2.419,-2.419,-2.419,-2.419,-2.419,-2.419,-2.419,-2.4006,-2.3446,-2.3153,-2.2456,-2.1061,-2.0658,-2.0382,-2.0105,-2.0087,-2.0087,-2.0087,-1.9829,-2.0042,-2.0878,-2.1482,-2.218,-2.2988,-2.3244,-2.3335,-2.3213,-2.2419,-2.1841,-2.1501,-2.1068,-2.0826,0.0,-3.8,-3.8284,-3.8229,-3.761,-3.7066,-3.7142,-3.6528,-3.5948,-3.5996,-3.5996,-3.5996,-3.5973,-3.5702,-3.5683,-3.6207,0.0,0.0,0.0,0.0,0.0,0.0,0.0,0.0,0.0,0.0,0.0,0.0,0.0,0.0,0.0,-3.2168,-3.1934,-3.2441,-3.2461,-3.2226,-3.1719,-3.1719,-3.1445,-3.0898,-3.0898,-3.0723,-3.043,-3.0742,0.0,0.0,0.0,0.0,0.0,-3.0035,-2.9791,-2.941,-2.8852,-2.8646,-2.8549,-2.7717,-2.7409,-2.7274,-2.6409,-2.6115,-2.6019,-2.5481,-2.5308,-2.5308,-2.5308,-2.5253,-2.5198,-2.5198,-2.5053,-2.4911,-2.4911,-2.4708,-2.4503,-2.4503,-2.4358,-2.419,-2.419,-2.419,-2.419,-2.419,-2.419,-2.419,-2.419,-2.3951,-2.3749,-2.3749,-2.3492,-2.3107,-2.2611,-2.2254,-2.1667,-2.0613,-2.0236,-1.984,-1.9334,-1.9297,-1.9297,-1.9297,-1.9297,-1.951,-2.0034,-2.0868,-2.1547,-2.2052,-2.2382,-2.2556,-2.2556,-2.1712,-2.1048,-2.0553,-2.0687,-2.0578,0.0,-3.7551,-3.8157,-3.8207,-3.7617,-3.7045,-3.7187,-3.6582,0.0,-3.5996,-3.5996,-3.5953,-3.5905,-3.5223,-3.4703,-3.475,0.0,0.0,0.0,0.0,0.0,0.0,0.0,0.0,0.0,0.0,0.0,0.0,0.0,0.0,0.0,-3.1348,-3.0898,-3.0898,-3.084,-3.0801,-3.0801,-3.0801,-3.0801,-3.0801,-3.0742,-3.0312,-2.9629,-3.0371,0.0,0.0,0.0,0.0,0.0,-2.9175,-2.8637,-2.7895,-2.7838,-2.7818,-2.7698,-2.6832,-2.6505,-2.639,-2.5577,-2.5308,-2.5308,-2.5308,-2.5308,-2.5308,-2.5308,-2.5168,-2.5022,-2.5022,-2.493,-2.484,-2.4825,-2.467,-2.452,-2.4503,-2.4358,-2.419,-2.419,-2.419,-2.419,-2.419,-2.419,-2.4171,-2.4116,-2.3483,-2.2988,-2.2914,-2.2281,-2.1784,-2.1728,-2.1005,-2.0474,-2.0435,-1.9756,-1.9297,-1.9297,-1.9297,-1.9297,-1.9297,-1.9297,-1.9297,-1.9297,-2.0071,-2.0503,-2.0503,-2.129,-2.1684,-2.161,-2.0813,-2.0034,-1.9315,-2.0055,-2.0269,-3.6147,0.0,-3.653,-3.6492,-3.6372,-3.6268,0.0,-3.6108,-3.5917,0.0,0.0,0.0,-3.5758,-3.509,0.0,0.0,0.0,0.0,0.0,0.0,0.0,0.0,0.0,0.0,0.0,0.0,0.0,0.0,0.0,0.0,0.0,-3.1016,-3.0898,-3.0898,-3.0254,-2.9902,-2.9902,-2.9902,-2.9902,-2.9902,-2.9238,-2.9141,-2.957,-2.9121,0.0,0.0,0.0,0.0,-2.8402,-2.8322,-2.8134,-2.7838,-2.7178,-2.6909,-2.6794,-2.5923,-2.5615,-2.5577,-2.5365,-2.5308,-2.5308,-2.5308,-2.5308,-2.5308,-2.5308,-2.5269,-2.5224,-2.5224,-2.5217,-2.5149,-2.4999,-2.4836,-2.4693,-2.4545,-2.4358,-2.419,-2.419,-2.419,-2.419,-2.419,-2.419,-2.4006,-2.3391,-2.3134,-2.2786,-2.2171,-2.1923,-2.1614,-2.1101,-2.0718,-2.0328,-1.9859,-1.949,-1.9297,-1.9297,-1.9297,-1.9297,-1.9297,-1.9297,-1.9297,-1.9297,-2.0071,-2.0503,-2.0503,-2.0694,-2.0501,-1.9885,-1.9683,-1.9481,-1.9289,-1.9342,-1.9315,-3.5914,-3.619,-3.6488,-3.6421,-3.643,-3.6451,-3.6451,0.0,0.0,0.0,0.0,0.0,0.0,0.0,0.0,0.0,0.0,0.0,0.0,0.0,0.0,0.0,0.0,0.0,0.0,0.0,0.0,0.0,0.0,0.0,0.0,-3.0527,-3.0293,-3.0293,-2.9453,-2.9199,-2.9609,-2.9199,-2.9004,-2.9004,-2.8535,-2.834,-2.8398,-2.832,0.0,0.0,0.0,0.0,-2.749,-2.7426,-2.7121,-2.6659,-2.6192,-2.6,-2.5942,-2.5481,-2.5308,-2.5308,-2.5308,-2.5308,-2.5308,-2.5308,-2.5308,-2.5308,-2.5308,-2.5308,-2.5308,-2.5308,-2.5308,-2.5269,-2.5163,-2.5011,-2.4864,-2.4759,-2.4543,-2.4357,-2.4452,-2.441,-2.4366,-2.4452,-2.4105,-2.3646,-2.3221,-2.2501,-2.1814,-2.1288,-2.0968,-2.0632,-2.0167,-2.002,-1.9824,-1.9493,-1.9357,-1.9297,-1.9297,-1.938,-1.9394,-1.9305,-1.9297,-1.9297,-1.9297,-1.9711,-1.995,-1.995,-1.995,-1.973,-1.9297,-1.9297,-1.9297,-1.9297,-1.919,-1.9134,-3.6061,-3.6666,-3.7216,-3.6878,-3.6899,-3.6973,-3.6841,0.0,0.0,0.0,0.0,0.0,0.0,0.0,0.0,0.0,0.0,0.0,0.0,0.0,0.0,0.0,0.0,0.0,0.0,0.0,0.0,0.0,0.0,0.0,0.0,-3.0058,-2.9609,-2.9609,-2.8633,-2.8457,-2.9199,-2.8476,-2.8105,-2.8105,-2.7969,-2.7598,-2.7012,-2.7637,-2.75,0.0,0.0,0.0,-2.6615,-2.6533,-2.6024,-2.5317,-2.5293,-2.5308,-2.5308,-2.5308,-2.5308,-2.5308,-2.5308,-2.5308,-2.5308,-2.5308,-2.5308,-2.5308,-2.5308,-2.5308,-2.5308,-2.5308,-2.5308,-2.5284,-2.5264,-2.5135,-2.4979,-2.4974,-2.4752,-2.4583,-2.4768,-2.4662,-2.4554,-2.4591,-2.3911,-2.3246,-2.2985,-2.1753,-2.0704,-2.0418,-1.9908,-1.9513,-1.9383,-1.9357,-1.9365,-1.9405,-1.939,-1.9387,-1.9387,-1.953,-1.955,-1.9402,-1.9387,-1.9372,-1.9342,-1.9312,-1.9297,-1.9297,-1.9297,-1.9297,-1.9297,-1.9297,-1.9297,-1.9297,-1.9297,-1.9297,-3.6674,-3.7462,-3.7766,-3.6268,-3.6459,-3.6805,0.0,0.0,0.0,0.0,0.0,0.0,0.0,0.0,0.0,0.0,0.0,0.0,0.0,0.0,0.0,0.0,0.0,0.0,0.0,0.0,0.0,0.0,0.0,0.0,0.0,0.0,-2.9609,-2.9609,-2.8047,-2.7266,-2.7402,-2.7266,-2.7207,-2.7187,-2.6445,-2.6426,-2.6973,-2.6367,-2.6035,0.0,0.0,-2.591,-2.5764,-2.565,-2.5515,-2.5379,-2.5312,-2.5308,-2.5308,-2.5308,-2.5308,-2.5308,-2.5308,-2.5308,-2.5308,-2.5308,-2.5308,-2.5308,-2.5308,-2.5308,-2.5308,-2.5308,-2.5308,-2.5264,-2.5094,-2.5022,-2.4974,-2.4862,-2.4797,-2.476,-2.4797,-2.4775,-2.4534,-2.3844,-2.3578,-2.3011,-2.16,-2.1047,-2.0562,-1.9845,-1.9516,-1.9434,-1.9688,-1.963,-1.9631,-1.9871,-1.9783,-1.9719,-1.9719,-1.9743,-1.9762,-1.9719,-1.9719,-1.9676,-1.9555,-1.9387,-1.9297,-1.9297,-1.9297,-1.9297,-1.9297,-1.9297,-1.9297,-1.9297,-1.9297,-1.9297,-3.6117,-3.6588,-3.6791,-3.6357,-3.7249,-3.7887,0.0,0.0,0.0,0.0,0.0,0.0,0.0,0.0,0.0,0.0,0.0,0.0,0.0,0.0,0.0,0.0,0.0,0.0,0.0,0.0,0.0,0.0,0.0,0.0,0.0,0.0,-2.8203,-2.8203,-2.6953,-2.6309,-2.6309,-2.6309,-2.6309,-2.6289,-2.5898,-2.5918,-2.6289,-2.5879,-2.5703,-2.5703,0.0,-2.5634,-2.5599,-2.552,-2.5474,-2.5406,-2.5371,-2.5326,-2.5308,-2.5308,-2.5308,-2.5308,-2.5308,-2.5308,-2.5308,-2.5308,-2.5308,-2.5308,-2.5308,-2.5308,-2.5308,-2.5308,-2.5308,-2.5274,-2.5198,-2.5163,-2.5146,-2.5072,-2.4993,-2.4936,-2.5056,-2.4974,-2.4689,-2.3969,-2.3383,-2.262,-2.1387,-2.0717,-2.0225,-1.9763,-1.9695,-1.9706,-1.9784,-1.9744,-1.9756,-1.988,-1.9836,-1.979,-1.979,-1.9869,-1.988,-1.9796,-1.979,-1.978,-1.972,-1.9625,-1.9538,-1.9452,-1.9471,-1.9402,-1.9297,-1.9297,-1.9297,-1.9297,-1.9297,-1.9297,-3.5516,-3.556,-3.5523,-3.5991,0.0,-3.8161,-3.7219,0.0,0.0,0.0,0.0,0.0,0.0,0.0,0.0,0.0,0.0,0.0,0.0,0.0,0.0,0.0,0.0,0.0,0.0,0.0,0.0,0.0,0.0,0.0,0.0,0.0,-2.6971,-2.6971,-2.6131,-2.5662,-2.5659,-2.5659,-2.5662,-2.5703,-2.5703,-2.5703,-2.5703,-2.5703,-2.5703,-2.5703,-2.5703,-2.5662,-2.561,-2.5604,-2.5545,-2.545,-2.5401,-2.5354,-2.5308,-2.5308,-2.5308,-2.5308,-2.5308,-2.5308,-2.5308,-2.5308,-2.5308,-2.5308,-2.5308,-2.5308,-2.5308,-2.5308,-2.5308,-2.5308,-2.5308,-2.5308,-2.5308,-2.5308,-2.5173,-2.5053,-2.5038,-2.4905,-2.4536,-2.3664,-2.2863,-2.2067,-2.1216,-2.0466,-1.9973,-1.9863,-1.9912,-1.9938,-1.9858,-1.9847,-1.9858,-1.9909,-1.9915,-1.9915,-1.9915,-2.0012,-2.0026,-1.992,-1.9863,-1.983,-1.979,-1.9774,-1.9676,-1.9534,-1.9527,-1.9445,-1.9297,-1.9297,-1.9297,-1.9297,-1.9297,-1.9297,-3.5516,-3.5155,-3.454,-3.4416,0.0,0.0,-3.7584,0.0,0.0,0.0,0.0,0.0,0.0,0.0,0.0,0.0,0.0,0.0,0.0,0.0,0.0,0.0,0.0,0.0,0.0,0.0,0.0,0.0,0.0,0.0,0.0,0.0,0.0,-2.6914,-2.6054,-2.559,-2.5524,-2.5505,-2.5588,-2.5703,-2.5703,-2.5703,-2.5703,-2.5703,-2.5703,-2.5703,-2.5703,-2.5703,-2.5683,-2.5632,-2.5598,-2.5567,-2.5456,-2.5363,-2.5308,-2.5308,-2.5308,-2.5308,-2.5308,-2.5308,-2.5308,-2.5308,-2.5308,-2.5308,-2.5308,-2.5308,-2.5308,-2.5308,-2.5308,-2.5308,-2.5308,-2.5308,-2.5308,-2.5308,-2.5298,-2.5086,-2.4336,-2.4178,-2.3673,-2.2004,-2.163,-2.1319,-2.0507,-2.0177,-2.0007,-1.9998,-1.989,-1.9858,-1.9959,-1.9998,-2.006,-2.0237,-2.0264,-2.0264,-2.0264,-2.0273,-2.0277,-2.0269,-2.0097,-1.9938,-1.9815,-1.9682,-1.9527,-1.932,-1.932,-1.9312,-1.9297,-1.9297,-1.9297,-1.9297,-1.9297,-1.9297,-3.4759,-3.4338,-3.3891,-3.4795,0.0,0.0,0.0,0.0,0.0,0.0,0.0,0.0,0.0,0.0,0.0,0.0,0.0,0.0,0.0,0.0,0.0,0.0,0.0,0.0,0.0,0.0,0.0,0.0,0.0,0.0,0.0,0.0,0.0,-2.6032,-2.5718,-2.5533,-2.5491,-2.5491,-2.5533,-2.5588,-2.5629,-2.566,-2.5703,-2.5703,-2.5703,-2.5703,-2.5703,-2.5703,-2.5703,-2.5662,-2.5635,-2.5594,-2.5456,-2.5383,-2.5359,-2.5317,-2.5308,-2.5308,-2.5308,-2.5308,-2.5308,-2.5308,-2.5308,-2.5308,-2.5308,-2.5308,-2.5308,-2.5308,-2.5308,-2.5308,-2.5308,-2.5308,-2.5308,-2.5308,-2.4928,-2.4471,-2.4168,-2.3663,-2.2932,-2.1735,-2.1504,-2.1235,-2.0442,-2.0237,-2.0193,-2.0193,-2.0134,-2.0121,-2.0188,-2.0193,-2.0229,-2.0285,-2.0308,-2.0308,-2.0308,-2.0308,-2.0308,-2.0308,-2.0233,-2.0152,-2.0107,-2.0055,-1.995,-1.9729,-1.9748,-1.9694,-1.9606,-1.953,-1.9492,-1.9485,-1.935,-1.9365,-3.4038,-3.3446,-3.3099,0.0,0.0,0.0,0.0,0.0,0.0,0.0,0.0,0.0,0.0,0.0,0.0,0.0,0.0,0.0,0.0,0.0,0.0,0.0,0.0,0.0,0.0,0.0,0.0,0.0,0.0,0.0,0.0,0.0,0.0,0.0,0.0,-2.5462,-2.5438,-2.5438,-2.5453,-2.5479,-2.5541,-2.5603,-2.5662,-2.5683,-2.5703,-2.5703,-2.5703,-2.5703,-2.5703,-2.5703,-2.566,-2.5597,-2.5506,-2.5453,-2.5425,-2.5359,-2.533,-2.5321,-2.5303,-2.5308,-2.5308,-2.5308,-2.5308,-2.5308,-2.5308,-2.5308,-2.5308,-2.5308,-2.5308,-2.525,-2.4981,-2.4928,-2.4928,-2.4928,-2.4298,-2.3605,-2.3336,-2.2816,-2.2139,-2.1293,-2.1115,-2.0942,-2.0385,-2.0308,-2.0308,-2.0308,-2.0308,-2.0308,-2.0308,-2.0308,-2.0308,-2.0308,-2.0308,-2.0308,-2.0308,-2.0058,-1.9885,-1.9888,-1.9638,-1.97,-2.0186,-2.0201,-1.9996,-1.9544,-1.9539,-1.9354,-1.9013,-1.892,-1.8877,-1.8877,-1.8989,-1.9114,-3.3451,-3.2554,-3.2068,0.0,0.0,0.0,0.0,0.0,0.0,0.0,0.0,0.0,0.0,0.0,0.0,0.0,0.0,0.0,0.0,0.0,0.0,0.0,0.0,0.0,0.0,0.0,0.0,0.0,0.0,0.0,0.0,0.0,0.0,0.0,0.0,0.0,-2.5308,-2.5308,-2.5335,-2.539,-2.5477,-2.5522,-2.5603,-2.5662,-2.5703,-2.5703,-2.5703,-2.5703,-2.5703,-2.5703,-2.5661,-2.5602,-2.5602,-2.5559,-2.5484,-2.5428,-2.5406,-2.5387,-2.5312,-2.5288,-2.5288,-2.5288,-2.5308,-2.5308,-2.5308,-2.5308,-2.5288,-2.5288,-2.5288,-2.5096,-2.4298,-2.4072,-2.4072,-2.4091,-2.3413,-2.2547,-2.1696,-2.1485,-2.125,-2.0442,-2.0308,-2.0308,-2.0308,-2.0308,-2.0308,-2.0308,-2.0308,-2.0308,-2.0308,-2.0308,-2.0308,-2.0308,-2.0308,-2.0308,-2.0308,-1.9496,-1.9,-1.8992,-1.8184,-1.8383,-1.9902,-1.9974,-1.9501,-1.8518,-1.8493,-1.8106,-1.7294,-1.7294,-1.7289,-1.7326,-1.8124,-1.8493,-3.256,-3.2104,0.0,0.0,0.0,0.0,0.0,0.0,0.0,0.0,0.0,0.0,0.0,0.0,0.0,0.0,0.0,0.0,0.0,0.0,0.0,0.0,0.0,0.0,0.0,0.0,0.0,0.0,0.0,0.0,0.0,0.0,0.0,0.0,0.0,0.0,-2.5308,-2.5308,-2.5308,-2.533,-2.5406,-2.5481,-2.5603,-2.5662,-2.5703,-2.5703,-2.5703,-2.5703,-2.5703,-2.5703,-2.5683,-2.5661,-2.5629,-2.5595,-2.5561,-2.5506,-2.5479,-2.5474,-2.545,-2.5444,-2.5444,-2.5444,-2.5417,-2.5371,-2.5371,-2.4939,-2.4452,-2.4452,-2.4005,-2.3485,-2.3259,-2.274,-2.2432,-2.3047,-2.2528,-2.1812,-2.1562,-2.1058,-2.0596,-2.0346,-2.0308,-2.0308,-2.0308,-2.0308,-2.0308,-2.0308,-2.0308,-2.0308,-2.0308,-2.0308,-2.0308,-2.0308,-2.0308,-2.0308,-2.0308,-1.9504,-1.9007,-1.8992,-1.8184,-1.7916,-1.8367,-1.8383,-1.8233,-1.7944,-1.7944,-1.783,-1.7577,-1.7485,-1.7435,-1.7454,-1.8173,-1.8572,-3.3108,0.0,0.0,0.0,0.0,0.0,0.0,0.0,0.0,0.0,0.0,0.0,0.0,0.0,0.0,0.0,0.0,0.0,0.0,0.0,0.0,0.0,0.0,0.0,0.0,0.0,0.0,0.0,0.0,0.0,0.0,0.0,0.0,0.0,0.0,0.0,-2.5308,-2.5308,-2.5308,-2.5308,-2.5379,-2.5465,-2.5561,-2.5633,-2.5662,-2.5703,-2.5703,-2.5703,-2.5703,-2.5703,-2.5703,-2.5703,-2.566,-2.5636,-2.5633,-2.5563,-2.5545,-2.5541,-2.552,-2.5491,-2.5433,-2.5099,-2.4949,-2.4869,-2.4533,-2.4073,-2.3655,-2.3639,-2.3241,-2.2751,-2.2382,-2.1889,-2.1639,-2.2158,-2.1639,-2.1019,-2.1019,-2.0635,-2.0308,-2.0308,-2.0308,-2.0308,-2.0308,-2.0308,-2.0308,-2.0308,-2.0308,-2.0308,-2.0308,-2.0308,-2.0304,-2.0306,-2.0292,-2.0165,-1.9845,-1.9011,-1.839,-1.807,-1.7225,-1.6753,-1.6744,-1.7369,-1.7545,-1.7237,-1.7218,-1.7045,-1.6715,-1.6627,-1.659,-1.6609,-1.736,-1.7945,0.0,0.0,0.0,0.0,0.0,0.0,0.0,0.0,0.0,0.0,0.0,0.0,0.0,0.0,0.0,0.0,0.0,0.0,0.0,0.0,0.0,0.0,0.0,0.0,0.0,0.0,0.0,0.0,0.0,0.0,0.0,0.0,0.0,0.0,0.0,0.0,-2.5308,-2.5308,-2.5308,0.0,-2.5367,-2.5428,-2.5484,-2.5563,-2.5635,-2.5703,-2.5703,-2.5703,-2.5703,-2.5703,-2.5703,-2.5703,-2.5703,-2.5703,-2.5683,-2.5633,-2.5605,-2.5582,-2.5446,-2.541,-2.5254,-2.4391,-2.4092,-2.3951,-2.3225,-2.2943,-2.2865,-2.2801,-2.2717,-2.2464,-2.1606,-2.1389,-2.1389,-2.1389,-2.0827,-2.0308,-2.0308,-2.0308,-2.0308,-2.0308,-2.0308,-2.0308,-2.0308,-2.0296,-2.0308,-2.0315,-2.0315,-2.0315,-2.0315,-2.0315,-2.0271,-2.0194,-2.0192,-1.9854,-1.9046,-1.8191,-1.7382,-1.6658,-1.5776,-1.5299,-1.5291,-1.6709,-1.7128,-1.6407,-1.6388,-1.5984,-1.5192,-1.5192,-1.5192,-1.5212,-1.6099,-1.6894,0.0,-3.2452,0.0,0.0,0.0,0.0,0.0,0.0,0.0,0.0,0.0,0.0,0.0,0.0,0.0,0.0,0.0,0.0,0.0,0.0,0.0,0.0,0.0,0.0,0.0,0.0,0.0,0.0,0.0,0.0,0.0,0.0,0.0,0.0,0.0,-2.5308,-2.5308,-2.5308,-2.5308,0.0,-2.5317,-2.5354,-2.5437,-2.5547,-2.5635,-2.5703,-2.5703,-2.5703,-2.5703,-2.5703,-2.5703,-2.5703,-2.5703,-2.5703,-2.5703,-2.5683,-2.5683,-2.5585,-2.4879,-2.4644,-2.4507,-2.3687,-2.3382,-2.3301,-2.3125,-2.2529,-2.1894,-2.1878,-2.1384,-2.082,-2.0604,-2.0558,-2.0558,-2.0558,-2.0423,-2.0308,-2.0308,-2.0308,-2.0308,-2.0308,-2.0308,-2.0308,-2.0308,-2.0294,-2.0323,-2.0364,-2.0371,-2.0371,-2.0371,-2.0371,-2.0121,-1.9429,-1.9357,-1.9007,-1.815,-1.7328,-1.6784,-1.6603,-1.5776,-1.5293,-1.5303,-1.564,-1.5716,-1.5484,-1.5481,-1.5385,-1.5192,-1.5192,-1.5192,-1.5212,-1.6099,-1.6595,0.0,0.0,0.0,0.0,0.0,0.0,0.0,0.0,0.0,0.0,0.0,0.0,0.0,0.0,0.0,0.0,0.0,0.0,0.0,0.0,0.0,0.0,0.0,0.0,0.0,0.0,0.0,0.0,0.0,0.0,0.0,0.0,0.0,0.0,-2.5308,-2.5308,-2.5308,-2.5308,-2.5308,-2.5308,-2.5308,-2.5335,-2.5394,-2.5543,-2.5635,-2.5703,-2.5703,-2.5703,-2.5703,-2.5703,-2.5703,-2.5703,-2.5703,-2.5703,-2.5644,-2.5234,-2.5078,-2.4941,-2.4082,-2.3789,-2.3633,-2.2832,-2.2557,-2.2454,-2.2024,-2.1539,-2.1114,-2.107,-2.0752,-2.039,-2.0355,-2.0343,-2.0343,-2.0343,-2.0312,-2.0301,-2.0301,-2.0334,-2.0343,-2.0343,-2.0343,-2.0343,-2.0343,-2.0358,-2.0354,-2.0385,-2.0408,-2.0408,-2.0408,-2.0037,-1.9614,-1.9187,-1.8758,-1.8155,-1.7335,-1.6856,-1.6444,-1.6051,-1.5608,-1.5352,-1.5358,-1.536,-1.5329,-1.5257,-1.5257,-1.5257,-1.5257,-1.5257,-1.5257,-1.5257,-1.5719,-1.6159,0.0,0.0,0.0,0.0,0.0,0.0,0.0,0.0,0.0,0.0,0.0,0.0,0.0,0.0,0.0,0.0,0.0,0.0,0.0,0.0,0.0,0.0,0.0,0.0,0.0,0.0,0.0,0.0,0.0,0.0,0.0,0.0,-2.5308,-2.5308,-2.5308,-2.5308,-2.5308,-2.5308,-2.5308,-2.5308,-2.5308,-2.5339,-2.5397,-2.5369,-2.5489,-2.5683,-2.5683,-2.5703,-2.5684,-2.5547,-2.5566,-2.5664,-2.5371,-2.5352,-2.5371,-2.4512,-2.4199,-2.4062,-2.3203,-2.2891,-2.2754,-2.1934,-2.168,-2.1543,-2.082,-2.0586,-2.0565,-2.0513,-2.0484,-2.0475,-2.04,-2.0408,-2.0408,-2.0408,-2.0361,-2.0324,-2.0313,-2.0354,-2.0408,-2.0408,-2.0408,-2.0393,-2.0422,-2.0422,-2.0425,-2.0434,-2.0434,-2.0375,-2.0239,-1.9572,-1.9038,-1.8792,-1.8067,-1.731,-1.6543,-1.6419,-1.6105,-1.5449,-1.5391,-1.5409,-1.54,-1.54,-1.5373,-1.5314,-1.5303,-1.5296,-1.5296,-1.5296,-1.5296,-1.5296,-1.5296,-1.5684,0.0,0.0,0.0,0.0,0.0,0.0,0.0,0.0,0.0,0.0,0.0,0.0,0.0,0.0,0.0,0.0,0.0,0.0,0.0,0.0,0.0,0.0,0.0,0.0,0.0,0.0,0.0,0.0,0.0,0.0,0.0,-2.5308,-2.5308,-2.5308,-2.5308,-2.5308,-2.5308,-2.5308,-2.5308,-2.5308,-2.5308,-2.5339,-2.5374,-2.4704,-2.4849,-2.5628,-2.5662,-2.5703,-2.5644,-2.4883,-2.5019,-2.5566,-2.4102,-2.3965,-2.4473,-2.3652,-2.3359,-2.3242,-2.2363,-2.2051,-2.1914,-2.1055,-2.0762,-2.0742,-2.0644,-2.0563,-2.0511,-2.0509,-2.0468,-2.0418,-2.0391,-2.0408,-2.0408,-2.0408,-2.0437,-2.0468,-2.0408,-2.0385,-2.0408,-2.0408,-2.0408,-2.0423,-2.0477,-2.0482,-2.051,-2.0564,-2.0565,-2.0291,-1.9549,-1.9354,-1.871,-1.7187,-1.6913,-1.6503,-1.5644,-1.5566,-1.5508,-1.541,-1.5391,-1.5391,-1.539,-1.539,-1.541,-1.539,-1.5324,-1.5296,-1.5296,-1.5296,-1.5296,-1.5296,-1.5296,-1.5388,0.0,0.0,0.0,0.0,0.0,0.0,0.0,0.0,0.0,0.0,0.0,0.0,0.0,0.0,0.0,0.0,0.0,0.0,0.0,0.0,0.0,0.0,0.0,0.0,0.0,0.0,0.0,0.0,0.0,0.0,-2.5025,-2.5025,-2.5049,-2.5135,-2.5122,-2.5198,-2.5303,-2.5308,-2.5308,-2.5308,-2.5308,-2.5072,-2.4651,-2.4346,-2.4455,-2.4859,-2.4424,-2.4236,-2.4219,-2.3828,-2.3906,-2.418,-2.3437,-2.3359,-2.3574,-2.2773,-2.2461,-2.2344,-2.1465,-2.1172,-2.1113,-2.0723,-2.0605,-2.0605,-2.0605,-2.0585,-2.0562,-2.0562,-2.0539,-2.0512,-2.0512,-2.0512,-2.0512,-2.0512,-2.0539,-2.0541,-2.0514,-2.0512,-2.0512,-2.0512,-2.0512,-2.0515,-2.0542,-2.0562,-2.0564,-2.0605,-2.0176,-1.9727,-1.9355,-1.8457,-1.7559,-1.6777,-1.6269,-1.582,-1.543,-1.5391,-1.5391,-1.5391,-1.5391,-1.5391,-1.5391,-1.5391,-1.5391,-1.5391,-1.5367,-1.536,-1.536,-1.536,-1.536,-1.536,-1.536,-1.5364,0.0,0.0,0.0,0.0,0.0,0.0,0.0,0.0,0.0,0.0,0.0,0.0,0.0,0.0,0.0,0.0,0.0,0.0,0.0,0.0,0.0,0.0,0.0,0.0,0.0,0.0,0.0,0.0,0.0,0.0,-2.4804,-2.4804,-2.4849,-2.4943,-2.4771,-2.4771,-2.4912,-2.4755,-2.4769,-2.4981,-2.4769,-2.4351,-2.3764,-2.3582,-2.3542,-2.3584,-2.3256,-2.3099,-2.3086,-2.2871,-2.293,-2.3086,-2.2637,-2.2598,-2.2695,-2.1875,-2.1562,-2.1484,-2.082,-2.0605,-2.0605,-2.0605,-2.0605,-2.0605,-2.0605,-2.0605,-2.0605,-2.0605,-2.0605,-2.0605,-2.0605,-2.0605,-2.0605,-2.0605,-2.0605,-2.0605,-2.0605,-2.0605,-2.0605,-2.0605,-2.0605,-2.0605,-2.0605,-2.043,-2.0273,-2.0273,-1.9531,-1.8887,-1.8672,-1.75,-1.6621,-1.6387,-1.5781,-1.5409,-1.5409,-1.5388,-1.5367,-1.5367,-1.5389,-1.5409,-1.5409,-1.539,-1.5391,-1.5391,-1.5391,-1.5391,-1.5391,-1.5391,-1.5391,-1.5391,-1.5391,-1.539,0.0,0.0,0.0,0.0,0.0,0.0,0.0,0.0,0.0,0.0,0.0,0.0,0.0,0.0,0.0,0.0,0.0,0.0,0.0,0.0,0.0,0.0,0.0,0.0,0.0,0.0,0.0,0.0,0.0,0.0,-2.4804,-2.4804,-2.4804,-2.4818,-2.4189,-2.3873,-2.3879,-2.3252,-2.3336,-2.4149,-2.3317,-2.2913,-2.2836,-2.2013,-2.1687,-2.1784,-2.2707,-2.3099,-2.3047,-2.2285,-2.2441,-2.3027,-2.1387,-2.123,-2.1855,-2.0996,-2.0664,-2.0664,-2.0625,-2.0605,-2.0605,-2.0605,-2.0605,-2.0605,-2.0605,-2.0605,-2.0605,-2.0605,-2.0605,-2.0605,-2.0605,-2.0605,-2.0605,-2.0605,-2.0605,-2.0605,-2.0605,-2.0605,-2.0605,-2.0605,-2.0605,-2.0605,-2.0605,-1.9902,-1.9375,-1.9375,-1.8633,-1.7773,-1.6934,-1.6758,-1.6387,-1.5566,-1.5424,-1.5396,-1.5396,-1.5338,-1.5302,-1.5302,-1.5366,-1.5396,-1.5396,-1.5408,-1.5391,-1.5391,-1.5391,-1.5391,-1.5391,-1.5391,-1.5391,-1.5391,-1.5391,-1.5408,0.0,0.0,0.0,0.0,0.0,0.0,0.0,0.0,0.0,0.0,0.0,0.0,0.0,0.0,0.0,0.0,0.0,0.0,0.0,0.0,0.0,0.0,0.0,0.0,0.0,0.0,0.0,0.0,0.0,0.0,-2.44,-2.44,-2.4228,-2.3858,-2.3688,-2.3466,-2.3165,-2.2929,-2.2951,-2.3259,-2.2951,-2.2509,-2.1966,-2.1639,-2.1228,-2.0797,-2.1148,-2.1354,-2.1418,-2.1125,-2.1208,-2.1465,-2.084,-2.0781,-2.1035,-2.0723,-2.0605,-2.0605,-2.0605,-2.0605,-2.0605,-2.0605,-2.0605,-2.0605,-2.0605,-2.0605,-2.0605,-2.0605,-2.0605,-2.0605,-2.0605,-2.0605,-2.0586,-2.0541,-2.0509,-2.0475,-2.0475,-2.054,-2.0605,-2.0605,-2.0605,-2.0605,-2.0605,-1.9883,-1.9297,-1.9234,-1.8046,-1.705,-1.6682,-1.62,-1.5733,-1.5369,-1.5339,-1.5332,-1.5332,-1.5303,-1.5296,-1.5296,-1.5326,-1.5332,-1.5332,-1.5343,-1.5348,-1.5348,-1.5348,-1.5361,-1.5391,-1.5407,-1.5403,-1.5403,-1.5354,-1.5343,-2.6,0.0,0.0,0.0,0.0,0.0,0.0,0.0,0.0,0.0,0.0,0.0,0.0,0.0,0.0,0.0,0.0,0.0,0.0,0.0,0.0,0.0,0.0,0.0,0.0,0.0,0.0,0.0,0.0,0.0,-2.419,-2.3933,-2.3407,-2.2548,-2.2614,-2.2575,-2.237,-2.21,-2.21,-2.235,-2.2081,-2.1658,-2.1096,-2.1096,-2.0808,-2.0305,-2.0305,-2.0388,-2.0508,-2.0508,-2.054,-2.0605,-2.0605,-2.0605,-2.0605,-2.0565,-2.0564,-2.0564,-2.054,-2.0538,-2.0539,-2.0563,-2.0564,-2.0565,-2.0586,-2.0605,-2.0605,-2.0565,-2.0564,-2.0563,-2.0539,-2.0538,-2.0516,-2.0477,-2.0432,-2.0408,-2.0408,-2.0475,-2.0538,-2.0538,-2.0538,-2.0538,-2.0538,-1.9581,-1.8817,-1.8764,-1.7311,-1.6218,-1.6165,-1.5706,-1.5358,-1.5299,-1.5303,-1.5294,-1.5294,-1.528,-1.5268,-1.5268,-1.5285,-1.5294,-1.5294,-1.5308,-1.5271,-1.5235,-1.5289,-1.5293,-1.5298,-1.5349,-1.5364,-1.5364,-1.5274,-1.5218,0.0,0.0,0.0,0.0,0.0,0.0,0.0,0.0,0.0,0.0,0.0,0.0,0.0,0.0,0.0,0.0,0.0,0.0,0.0,0.0,0.0,0.0,0.0,0.0,0.0,0.0,0.0,0.0,0.0,-2.4162,-2.4143,-2.3373,-2.2331,-2.1036,-2.0979,-2.1113,-2.1457,-2.0692,-2.0692,-2.1466,-2.0673,-2.0308,-2.0308,-2.0308,-2.0308,-2.0308,-2.0308,-2.0363,-2.0485,-2.0485,-2.0539,-2.0605,-2.0605,-2.0605,-2.0586,-2.0516,-2.0508,-2.0484,-2.0427,-2.0408,-2.0418,-2.0477,-2.0507,-2.0511,-2.0565,-2.0586,-2.0585,-2.0513,-2.0507,-2.0481,-2.0422,-2.0408,-2.0406,-2.0406,-2.0406,-2.0404,-2.0404,-2.0404,-2.0404,-2.0408,-2.0389,-2.035,-2.035,-1.8969,-1.7858,-1.7858,-1.6402,-1.5296,-1.5293,-1.5295,-1.5295,-1.5293,-1.5292,-1.5298,-1.5298,-1.5237,-1.5192,-1.5192,-1.526,-1.5295,-1.5295,-1.5287,-1.523,-1.5095,-1.5227,-1.5229,-1.5095,-1.523,-1.5293,-1.5292,-1.5164,-1.5025,-2.5308,0.0,0.0,0.0,0.0,0.0,0.0,0.0,0.0,0.0,0.0,0.0,0.0,0.0,0.0,0.0,0.0,0.0,0.0,0.0,0.0,0.0,0.0,0.0,0.0,0.0,0.0,0.0,-2.366,-2.3573,-2.3001,-2.1835,-2.1092,-2.0863,-2.0377,-2.0221,-2.0403,-2.0348,-2.0404,-2.0635,-2.0404,-2.0308,-2.0308,-2.0308,-2.0308,-2.0308,-2.0308,-2.0318,-2.0369,-2.0369,-2.0427,-2.0537,-2.0537,-2.0563,-2.0586,-2.0516,-2.0508,-2.0484,-2.0427,-2.0408,-2.0393,-2.0425,-2.043,-2.0432,-2.0443,-2.0467,-2.0444,-2.0434,-2.043,-2.0427,-2.0393,-2.0359,-2.0322,-2.0322,-2.0337,-2.033,-2.033,-2.033,-2.035,-2.0394,-1.9926,-1.954,-1.954,-1.8102,-1.6945,-1.6893,-1.5979,-1.5274,-1.5229,-1.5278,-1.5287,-1.5222,-1.5237,-1.5224,-1.5224,-1.5204,-1.5192,-1.5192,-1.5212,-1.5182,-1.5089,-1.5072,-1.5041,-1.4962,-1.4988,-1.4988,-1.4962,-1.5096,-1.5156,-1.5154,-1.5017,-1.495,0.0,0.0,0.0,0.0,0.0,0.0,0.0,-2.6306,0.0,0.0,0.0,0.0,0.0,0.0,0.0,0.0,0.0,0.0,0.0,0.0,0.0,0.0,0.0,0.0,0.0,0.0,0.0,0.0,-2.3426,-2.3257,-2.226,-2.1122,-2.0441,-2.0308,-1.9913,-1.9786,-1.9922,-2.0036,-2.0088,-2.0088,-2.0143,-2.0165,-2.0188,-2.0249,-2.0308,-2.0308,-2.0308,-2.0304,-2.0295,-2.0295,-2.0351,-2.0468,-2.0468,-2.0481,-2.0511,-2.0438,-2.0422,-2.0414,-2.0373,-2.0369,-2.0355,-2.0364,-2.0352,-2.0359,-2.0383,-2.0408,-2.0385,-2.0361,-2.0351,-2.0369,-2.0369,-2.0334,-2.0295,-2.0295,-2.0292,-2.0308,-2.0308,-2.0004,-1.9771,-1.9815,-1.9446,-1.9003,-1.8637,-1.7454,-1.6551,-1.6515,-1.5799,-1.5221,-1.5124,-1.5151,-1.5148,-1.5077,-1.5066,-1.5066,-1.5066,-1.5066,-1.5084,-1.5101,-1.5087,-1.504,-1.4995,-1.497,-1.4913,-1.4813,-1.4877,-1.4877,-1.4813,-1.495,-1.4988,-1.4928,-1.4857,-1.4738,-2.5308,-2.5308,0.0,0.0,0.0,0.0,-2.5116,-2.4759,0.0,0.0,0.0,0.0,0.0,0.0,0.0,0.0,0.0,0.0,0.0,0.0,0.0,0.0,0.0,0.0,0.0,0.0,-2.266,-2.2574,-2.3009,-2.2811,-2.1703,-2.0849,-2.0112,-1.9574,-1.9601,-1.9669,-1.978,-1.9784,-1.979,-1.9796,-1.9943,-1.9988,-2.0012,-2.0205,-2.0308,-2.0308,-2.0308,-2.0308,-2.0288,-2.0192,-2.0241,-2.0381,-2.0381,-2.0385,-2.0383,-2.0319,-2.0233,-2.0182,-2.0265,-2.0231,-2.0169,-2.0273,-2.0295,-2.031,-2.0374,-2.039,-2.0378,-2.0316,-2.0297,-2.0308,-2.0308,-2.0308,-2.0308,-2.0308,-2.0308,-2.0269,-2.0173,-1.9546,-1.8934,-1.8761,-1.8722,-1.8472,-1.7699,-1.6885,-1.6337,-1.6337,-1.5674,-1.5121,-1.5007,-1.4996,-1.4977,-1.4913,-1.4904,-1.4904,-1.4904,-1.4904,-1.4928,-1.4988,-1.4921,-1.4923,-1.4958,-1.4905,-1.4809,-1.4687,-1.479,-1.4785,-1.4642,-1.4799,-1.4804,-1.4682,-1.4648,-1.4478,-2.5308,-2.5308,-2.5308,-2.5308,0.0,0.0,0.0,-2.424,0.0,0.0,0.0,0.0,0.0,0.0,0.0,0.0,0.0,0.0,0.0,0.0,0.0,0.0,0.0,0.0,0.0,0.0,-2.244,-2.1784,-2.1167,-2.0789,-2.0759,-1.9987,-1.9478,-1.935,-1.9513,-1.9609,-1.9642,-1.9744,-1.979,-1.9796,-1.9943,-1.9988,-2.0012,-2.0205,-2.0308,-2.0308,-2.0308,-2.0308,-2.025,-1.9535,-1.9664,-2.0313,-2.0313,-2.0347,-2.0383,-2.0319,-1.9884,-1.943,-2.0072,-1.9831,-1.9377,-2.0065,-2.03,-2.0304,-2.0322,-2.0329,-2.0325,-2.0304,-2.0304,-2.0308,-2.0308,-2.0308,-2.0308,-2.0308,-2.0308,-2.0119,-1.9411,-1.9126,-1.8607,-1.7257,-1.6987,-1.693,-1.6756,-1.5932,-1.5291,-1.5291,-1.5103,-1.494,-1.4919,-1.4919,-1.4911,-1.4904,-1.4904,-1.4904,-1.4904,-1.4904,-1.4913,-1.4915,-1.4917,-1.4854,-1.4766,-1.4756,-1.4677,-1.4545,-1.4567,-1.4492,-1.4295,-1.4582,-1.4671,-1.4539,-1.4374,-1.4258,-2.5308,-2.5308,-2.5308,-2.5308,0.0,0.0,0.0,0.0,0.0,0.0,0.0,0.0,0.0,0.0,0.0,0.0,0.0,0.0,0.0,0.0,0.0,0.0,0.0,0.0,0.0,0.0,-2.2788,-2.2052,-2.1192,-2.0644,-2.0513,-1.9748,-1.9297,-1.9297,-1.9413,-1.9456,-1.9456,-1.9518,-1.9547,-1.9547,-1.9719,-1.9836,-1.9912,-2.006,-2.0201,-2.0288,-1.9831,-1.9642,-1.9584,-1.8715,-1.8608,-1.8998,-1.8998,-1.9026,-1.9057,-1.9017,-1.9018,-1.9108,-1.9503,-1.9642,-1.9719,-2.0154,-2.0308,-2.0308,-2.0308,-2.0308,-2.0308,-2.0308,-2.0308,-2.0308,-2.0308,-1.9985,-1.9642,-1.9642,-1.9311,-1.8888,-1.8453,-1.7975,-1.7405,-1.6554,-1.6021,-1.5716,-1.5746,-1.5308,-1.4954,-1.4954,-1.4923,-1.4882,-1.4804,-1.4799,-1.4771,-1.4702,-1.4692,-1.4692,-1.4692,-1.4692,-1.4722,-1.4794,-1.4732,-1.4666,-1.4553,-1.4489,-1.4374,-1.4201,-1.4195,-1.4149,-1.4045,-1.4227,-1.4265,-1.4195,-1.3968,-1.3828,0.0,0.0,0.0,0.0,0.0,-2.305,0.0,0.0,0.0,0.0,0.0,0.0,0.0,0.0,0.0,0.0,0.0,0.0,0.0,0.0,0.0,0.0,0.0,0.0,0.0,0.0,-2.2963,-2.2441,-2.1515,-2.0761,-2.0283,-1.9656,-1.9297,-1.9297,-1.9297,-1.9297,-1.9297,-1.9297,-1.9297,-1.9297,-1.9506,-1.9669,-1.9796,-1.9772,-1.9862,-2.0004,-1.9123,-1.8742,-1.8684,-1.7815,-1.7468,-1.7487,-1.7641,-1.7699,-1.7699,-1.7699,-1.8145,-1.8761,-1.8934,-1.945,-2.0081,-2.025,-2.0308,-2.0308,-2.0308,-2.0308,-2.0308,-2.0308,-2.0308,-2.0308,-2.0308,-1.9773,-1.92,-1.9012,-1.8428,-1.7825,-1.7465,-1.6801,-1.6222,-1.6066,-1.5409,-1.4889,-1.4966,-1.4909,-1.485,-1.485,-1.485,-1.478,-1.4677,-1.4666,-1.4619,-1.4505,-1.4464,-1.4447,-1.4447,-1.4447,-1.4475,-1.4539,-1.4487,-1.4404,-1.4307,-1.4208,-1.4076,-1.3906,-1.3906,-1.3853,-1.3773,-1.3773,-1.3795,-1.3814,-1.3569,-1.3375,0.0,0.0,0.0,0.0,-2.3956,0.0,0.0,0.0,0.0,0.0,0.0,0.0,0.0,0.0,0.0,0.0,0.0,0.0,0.0,0.0,0.0,0.0,0.0,0.0,0.0,0.0,0.0,-2.2061,-2.0648,-1.9686,-1.9452,-1.9352,-1.9297,-1.9297,-1.9297,-1.9297,-1.9297,-1.9297,-1.9297,-1.9297,-1.9506,-1.9669,-1.9777,-1.9196,-1.902,-1.9107,-1.8238,-1.7853,-1.7776,-1.6968,-1.6641,-1.6718,-1.743,-1.7699,-1.7699,-1.7699,-1.7757,-1.7968,-1.8722,-1.9069,-1.928,-2.0042,-2.0308,-2.0308,-2.0308,-2.0308,-2.0308,-2.0308,-2.0308,-2.0308,-2.0308,-2.0231,-1.9927,-1.9024,-1.8759,-1.8232,-1.6623,-1.6204,-1.5907,-1.519,-1.4888,-1.4766,-1.4885,-1.4809,-1.4727,-1.4727,-1.4614,-1.4539,-1.4522,-1.4522,-1.4511,-1.4493,-1.435,-1.422,-1.422,-1.422,-1.4169,-1.3993,-1.4131,-1.4156,-1.3958,-1.3931,-1.3927,-1.3906,-1.3906,-1.3714,-1.3378,-1.3378,-1.3433,-1.3534,-1.3401,-1.3193,0.0,0.0,0.0,0.0,0.0,0.0,-2.133,0.0,-2.0231,0.0,0.0,0.0,0.0,0.0,0.0,0.0,0.0,0.0,0.0,0.0,0.0,0.0,0.0,0.0,0.0,0.0,0.0,0.0,0.0,-1.9996,-1.9341,-1.9297,-1.9297,-1.9297,-1.9297,-1.9297,-1.9297,-1.9297,-1.9297,-1.9297,-1.9398,-1.9296,-1.9038,-1.8753,-1.8483,-1.8203,-1.7372,-1.7007,-1.6949,-1.6099,-1.5753,-1.5772,-1.6118,-1.6561,-1.7007,-1.7007,-1.7622,-1.8511,-1.8876,-1.9334,-1.9812,-2.0173,-2.0308,-2.0308,-2.0308,-2.0308,-2.0277,-2.0156,-2.012,-2.0106,-2.0031,-1.9292,-1.845,-1.8023,-1.7216,-1.633,-1.5572,-1.5334,-1.5193,-1.4841,-1.4677,-1.4592,-1.4669,-1.4614,-1.4576,-1.4576,-1.444,-1.4338,-1.4338,-1.4214,-1.4156,-1.4156,-1.4089,-1.4024,-1.4024,-1.4024,-1.399,-1.3913,-1.3878,-1.3802,-1.3721,-1.365,-1.3542,-1.3378,-1.337,-1.3219,-1.2893,-1.2893,-1.2833,-1.2738,-1.2692,-1.2604,-2.5308,0.0,0.0,0.0,0.0,0.0,0.0,0.0,0.0,0.0,0.0,0.0,0.0,0.0,0.0,0.0,0.0,0.0,0.0,0.0,0.0,0.0,0.0,0.0,0.0,0.0,0.0,0.0,0.0,0.0,-1.9331,-1.9297,-1.9297,-1.9297,-1.9297,-1.9297,-1.9297,-1.9297,-1.9297,-1.9297,-1.9297,-1.9015,-1.8467,-1.8264,-1.7833,-1.7209,-1.6465,-1.6125,-1.6032,-1.5452,-1.5192,-1.5212,-1.5462,-1.608,-1.6795,-1.6583,-1.7564,-1.8992,-1.9007,-1.9523,-2.0229,-2.0229,-2.0188,-2.0162,-2.0162,-2.0162,-2.0125,-1.9997,-1.9953,-1.9908,-1.9824,-1.872,-1.7588,-1.7326,-1.62,-1.5095,-1.4846,-1.4712,-1.4645,-1.4645,-1.4521,-1.4429,-1.4429,-1.4464,-1.4476,-1.4435,-1.4289,-1.4175,-1.4129,-1.399,-1.3906,-1.3906,-1.3838,-1.3827,-1.3827,-1.3827,-1.3827,-1.3827,-1.364,-1.3516,-1.3435,-1.3346,-1.3165,-1.2896,-1.2896,-1.2759,-1.2485,-1.241,-1.223,-1.1956,-1.203,-1.203,0.0,0.0,0.0,-2.325,0.0,0.0,0.0,0.0,-2.0262,0.0,0.0,0.0,0.0,0.0,0.0,0.0,0.0,0.0,0.0,0.0,0.0,0.0,0.0,0.0,0.0,0.0,0.0,0.0,0.0,0.0,-1.9327,-1.9297,-1.9297,-1.9297,-1.9297,-1.9297,-1.9297,-1.9297,-1.9297,-1.9297,-1.9297,-1.8984,-1.8385,-1.7663,-1.6898,-1.6124,-1.5506,-1.5169,-1.5063,-1.5162,-1.5192,-1.5288,-1.6138,-1.6949,-1.7564,-1.6795,-1.7564,-1.8992,-1.9,-1.9432,-2.0017,-2.0017,-1.9927,-1.9826,-1.9826,-1.9826,-1.9807,-1.9802,-1.9821,-1.9815,-1.979,-1.9179,-1.8327,-1.7418,-1.6524,-1.5623,-1.471,-1.4505,-1.4517,-1.4517,-1.4356,-1.4201,-1.4201,-1.4375,-1.4422,-1.4245,-1.4195,-1.4136,-1.3941,-1.3888,-1.3906,-1.3906,-1.3739,-1.3617,-1.3617,-1.3617,-1.3617,-1.3617,-1.3486,-1.3286,-1.3024,-1.3022,-1.2896,-1.262,-1.261,-1.2475,-1.22,-1.189,-1.1596,-1.133,-1.1596,-1.1574,0.0,0.0,-2.3486,-2.2839,0.0,0.0,0.0,0.0,0.0,0.0,0.0,0.0,0.0,0.0,0.0,0.0,0.0,0.0,0.0,0.0,0.0,0.0,0.0,0.0,0.0,0.0,0.0,0.0,0.0,0.0,0.0,-1.9365,-1.9297,-1.9297,-1.9297,-1.9297,-1.9297,-1.9297,-1.9297,-1.9297,-1.9297,-1.8963,-1.8317,-1.7528,-1.6785,-1.6059,-1.5377,-1.5039,-1.5018,-1.514,-1.5538,-1.6074,-1.6245,-1.7179,-1.8408,-1.8213,-1.8793,-1.9657,-1.9563,-1.9673,-1.9869,-1.9869,-1.9836,-1.979,-1.979,-1.979,-1.9786,-1.9695,-1.9663,-1.9637,-1.9504,-1.8475,-1.7361,-1.6902,-1.5763,-1.4648,-1.421,-1.4092,-1.4092,-1.4092,-1.4045,-1.4004,-1.4004,-1.4051,-1.4072,-1.4011,-1.3892,-1.3773,-1.3706,-1.3619,-1.3575,-1.3575,-1.351,-1.3462,-1.3462,-1.3303,-1.3132,-1.2949,-1.29,-1.2834,-1.2741,-1.2741,-1.2617,-1.2342,-1.2118,-1.1879,-1.1597,-1.1307,-1.0994,-1.0649,-1.0499,-1.0499,-2.3644,-2.322,0.0,-2.2321,-2.1746,0.0,-2.0804,0.0,0.0,0.0,0.0,0.0,0.0,0.0,0.0,0.0,0.0,0.0,0.0,0.0,0.0,0.0,0.0,0.0,0.0,0.0,-2.0295,-2.0026,-1.9657,0.0,0.0,0.0,-1.9297,-1.9297,-1.9297,-1.9297,-1.9297,-1.9297,-1.9297,-1.9297,-1.9297,-1.8926,-1.8194,-1.7455,-1.669,-1.5929,-1.5245,-1.4954,-1.4962,-1.5059,-1.5433,-1.6009,-1.6438,-1.7273,-1.8308,-1.869,-1.9297,-1.9922,-1.9824,-1.9774,-1.9726,-1.9726,-1.9682,-1.9619,-1.9619,-1.9619,-1.9593,-1.9516,-1.9442,-1.9361,-1.923,-1.7959,-1.6646,-1.6515,-1.5257,-1.4051,-1.3934,-1.3906,-1.3906,-1.3906,-1.3831,-1.3766,-1.3691,-1.364,-1.364,-1.3808,-1.3693,-1.3555,-1.3402,-1.3312,-1.3217,-1.3122,-1.3113,-1.3113,-1.3113,-1.2961,-1.2778,-1.261,-1.2601,-1.2498,-1.2289,-1.2279,-1.2113,-1.1743,-1.1538,-1.1267,-1.0933,-1.065,-1.0308,-0.9945,-0.9599,-0.9494]},{"header":{"parameterUnit":"m.s-1","parameterCategory":1,"la1":30.6,"la2":29.2853,"lo1":-89.7004,"lo2":-87.6739,"dy":0.0162,"dx":0.0183,"nx":112,"ny":82,"refTime":"2026-03-20T00:00:00:Z","depth":0,"parameterNumber":3,"parameterNumberName":"V-component_of_WINDS"},"data":[0.0,0.0,0.0,0.0,0.0,0.0,0.0,0.0,0.0,0.0,0.0,0.0,0.0,0.0,0.0,0.0,0.0,0.0,0.0,0.0,0.0,0.0,0.0,0.0,0.0,0.0,0.0,0.0,0.0,0.0,0.0,0.0,0.0,0.0,0.0,0.0,0.0,0.0,0.0,0.0,0.0,0.0,0.0,0.0,0.0,0.0,0.0,0.0,0.0,0.0,0.0,0.0,0.0,0.0,0.0,0.0,0.0,0.0,0.0,0.0,0.0,0.0,0.0,0.0,0.0,0.0,0.0,0.0,0.0,0.0,0.0,0.0,0.0,0.0,0.0,0.0,0.0,0.0,0.0,0.0,0.0,0.0,0.0,0.0,0.0,0.0,0.0,0.0,0.0,0.0,-1.1278,-1.1265,-1.1005,-1.1709,-1.392,-1.4315,-1.4766,-1.5498,0.0,0.0,0.0,0.0,0.0,0.0,0.0,0.0,0.0,0.0,0.0,0.0,0.0,0.0,0.0,0.0,0.0,0.0,0.0,0.0,0.0,0.0,0.0,0.0,0.0,0.0,0.0,0.0,0.0,0.0,0.0,0.0,0.0,0.0,0.0,0.0,0.0,0.0,0.0,0.0,0.0,0.0,0.0,0.0,0.0,0.0,0.0,0.0,0.0,0.0,0.0,0.0,0.0,0.0,0.0,0.0,0.0,0.0,0.0,0.0,0.0,0.0,0.0,0.0,0.0,0.0,0.0,0.0,0.0,0.0,0.0,0.0,0.0,0.0,0.0,0.0,0.0,0.0,0.0,0.0,0.0,0.0,0.0,0.0,0.0,0.0,0.0,0.0,0.0,0.0,0.0,0.0,0.0,0.0,0.0,0.0,0.0,0.0,0.0,0.0,0.0,0.0,0.0,0.0,-1.1975,-1.2016,-1.2996,-1.381,-1.4068,-1.5268,-1.592,-1.5862,0.0,0.0,0.0,0.0,0.0,0.0,0.0,0.0,0.0,0.0,0.0,0.0,0.0,0.0,0.0,0.0,0.0,0.0,0.0,0.0,0.0,0.0,0.0,0.0,0.0,0.0,0.0,0.0,0.0,0.0,0.0,0.0,0.0,0.0,0.0,0.0,0.0,0.0,0.0,0.0,0.0,0.0,0.0,0.0,0.0,0.0,0.0,0.0,0.0,0.0,0.0,0.0,0.0,0.0,0.0,0.0,0.0,0.0,0.0,0.0,0.0,0.0,0.0,0.0,0.0,0.0,0.0,0.0,0.0,0.0,0.0,0.0,0.0,0.0,0.0,0.0,0.0,0.0,0.0,0.0,0.0,0.0,0.0,0.0,0.0,0.0,0.0,0.0,0.0,0.0,0.0,0.0,0.0,0.0,0.0,0.0,0.0,0.0,0.0,0.0,0.0,0.0,0.0,-1.3028,-1.2574,-1.3066,-1.3708,-1.4346,-1.4946,-1.5641,-1.616,-1.6408,-1.6746,0.0,0.0,0.0,0.0,0.0,0.0,0.0,0.0,0.0,0.0,0.0,0.0,0.0,0.0,0.0,0.0,0.0,0.0,0.0,0.0,0.0,0.0,0.0,0.0,0.0,0.0,0.0,0.0,0.0,0.0,0.0,0.0,0.0,0.0,0.0,0.0,0.0,0.0,0.0,0.0,0.0,0.0,0.0,0.0,0.0,0.0,0.0,0.0,0.0,0.0,0.0,0.0,0.0,0.0,0.0,0.0,0.0,0.0,0.0,0.0,0.0,0.0,0.0,0.0,0.0,0.0,0.0,0.0,0.0,0.0,0.0,0.0,0.0,0.0,0.0,0.0,0.0,0.0,0.0,0.0,0.0,0.0,0.0,0.0,0.0,0.0,0.0,0.0,0.0,0.0,0.0,0.0,0.0,0.0,0.0,0.0,0.0,0.0,0.0,0.0,0.0,0.0,-1.3332,-1.3598,-1.4297,-1.4364,-1.4752,-1.573,-1.5705,-1.5965,-1.6861,-1.6782,0.0,0.0,0.0,0.0,0.0,0.0,0.0,0.0,0.0,0.0,0.0,0.0,0.0,0.0,0.0,0.0,0.0,0.0,0.0,0.0,0.0,0.0,0.0,0.0,0.0,0.0,0.0,0.0,0.0,0.0,0.0,0.0,0.0,0.0,0.0,0.0,0.0,0.0,0.0,0.0,0.0,0.0,0.0,0.0,0.0,0.0,0.0,0.0,0.0,0.0,0.0,0.0,0.0,0.0,0.0,0.0,0.0,0.0,0.0,0.0,0.0,0.0,0.0,0.0,0.0,0.0,0.0,0.0,0.0,0.0,0.0,0.0,0.0,0.0,0.0,0.0,0.0,0.0,0.0,0.0,0.0,0.0,0.0,0.0,0.0,0.0,0.0,0.0,0.0,0.0,0.0,0.0,0.0,0.0,0.0,0.0,0.0,0.0,0.0,0.0,0.0,0.0,-1.4941,-1.5617,-1.5676,-1.5683,-1.5683,-1.5778,-1.5337,-1.5558,-1.6829,-1.6361,0.0,0.0,0.0,0.0,0.0,0.0,0.0,0.0,0.0,0.0,0.0,0.0,0.0,0.0,0.0,0.0,0.0,0.0,0.0,0.0,0.0,0.0,0.0,0.0,0.0,0.0,0.0,0.0,0.0,0.0,0.0,0.0,0.0,0.0,0.0,0.0,0.0,0.0,0.0,0.0,0.0,0.0,0.0,0.0,0.0,0.0,0.0,0.0,0.0,0.0,0.0,0.0,0.0,0.0,0.0,0.0,0.0,0.0,0.0,0.0,0.0,0.0,0.0,0.0,0.0,0.0,0.0,0.0,0.0,0.0,0.0,0.0,0.0,0.0,0.0,0.0,0.0,0.0,0.0,0.0,0.0,0.0,0.0,0.0,0.0,0.0,0.0,0.0,0.0,0.0,0.0,0.0,0.0,0.0,0.0,0.0,0.0,0.0,0.0,0.0,0.0,0.0,-1.4472,-1.5224,0.0,-1.5784,-1.5784,-1.5784,-1.6084,-1.6315,-1.6533,0.0,0.0,0.0,0.0,0.0,0.0,0.0,0.0,0.0,0.0,0.0,0.0,0.0,0.0,0.0,0.0,0.0,0.0,0.0,0.0,0.0,0.0,0.0,0.0,0.0,0.0,0.0,0.0,0.0,0.0,0.0,0.0,0.0,0.0,0.0,0.0,0.0,0.0,0.0,0.0,0.0,0.0,0.0,0.0,0.0,0.0,0.0,0.0,0.0,0.0,0.0,0.0,0.0,0.0,0.0,0.0,0.0,0.0,0.0,0.0,0.0,0.0,0.0,0.0,0.0,0.0,0.0,0.0,0.0,0.0,0.0,0.0,0.0,0.0,0.0,0.0,0.0,0.0,0.0,0.0,0.0,0.0,0.0,0.0,0.0,0.0,0.0,0.0,0.0,0.0,0.0,0.0,0.0,0.0,0.0,0.0,0.0,0.0,0.0,0.0,0.0,0.0,-1.41,-1.4487,-1.5199,0.0,-1.6386,-1.6479,-1.6747,-1.6967,-1.6985,-1.669,0.0,0.0,0.0,0.0,0.0,0.0,0.0,0.0,0.0,0.0,0.0,0.0,0.0,0.0,0.0,0.0,0.0,0.0,0.0,0.0,0.0,0.0,0.0,0.0,0.0,0.0,0.0,0.0,0.0,0.0,0.0,0.0,0.0,0.0,0.0,0.0,0.0,0.0,0.0,0.0,0.0,0.0,0.0,0.0,0.0,0.0,0.0,0.0,0.0,0.0,0.0,0.0,0.0,0.0,0.0,0.0,0.0,0.0,0.0,0.0,0.0,0.0,0.0,0.0,0.0,0.0,0.0,0.0,0.0,0.0,0.0,0.0,0.0,0.0,0.0,0.0,0.0,0.0,0.0,0.0,0.0,0.0,0.0,0.0,0.0,0.0,0.0,0.0,0.0,0.0,0.0,0.0,0.0,0.0,0.0,0.0,0.0,0.0,0.0,0.0,0.0,0.0,-1.4973,-1.5212,-1.6001,-1.7546,-1.7677,-1.7995,-1.8754,-1.7869,-1.7347,0.0,0.0,0.0,0.0,0.0,0.0,0.0,0.0,0.0,0.0,0.0,0.0,0.0,0.0,0.0,0.0,0.0,0.0,0.0,0.0,0.0,0.0,0.0,0.0,0.0,0.0,0.0,0.0,0.0,0.0,0.0,0.0,0.0,0.0,0.0,0.0,0.0,0.0,0.0,0.0,0.0,0.0,0.0,0.0,0.0,0.0,0.0,0.0,0.0,0.0,0.0,0.0,0.0,0.0,0.0,0.0,0.0,0.0,0.0,0.0,0.0,0.0,0.0,0.0,0.0,0.0,0.0,0.0,0.0,0.0,0.0,0.0,0.0,0.0,0.0,0.0,0.0,0.0,0.0,0.0,0.0,0.0,0.0,0.0,0.0,0.0,0.0,0.0,0.0,0.0,0.0,0.0,0.0,0.0,0.0,0.0,0.0,0.0,0.0,0.0,0.0,0.0,0.0,-1.4379,-1.5928,-1.7052,-1.6944,-1.7598,-1.8125,-1.8371,-1.8311,-1.7821,-1.6651,0.0,0.0,0.0,0.0,0.0,0.0,0.0,0.0,0.0,0.0,0.0,0.0,0.0,0.0,0.0,0.0,0.0,0.0,0.0,0.0,0.0,0.0,0.0,0.0,0.0,0.0,0.0,0.0,0.0,0.0,0.0,0.0,0.0,0.0,0.0,0.0,0.0,0.0,0.0,0.0,0.0,0.0,0.0,0.0,0.0,0.0,0.0,0.0,0.0,0.0,0.0,0.0,0.0,0.0,0.0,0.0,0.0,0.0,0.0,0.0,0.0,0.0,0.0,0.0,0.0,0.0,0.0,0.0,0.0,0.0,0.0,0.0,0.0,0.0,0.0,0.0,0.0,0.0,0.0,0.0,0.0,0.0,0.0,0.0,0.0,0.0,0.0,0.0,0.0,0.0,0.0,0.0,0.0,0.0,0.0,0.0,0.0,0.0,0.0,0.0,0.0,0.0,-1.5161,-1.6499,-1.7645,-1.7919,-1.8536,-1.9042,-1.9368,-1.9245,-1.8516,-1.7024,0.0,0.0,0.0,0.0,0.0,0.0,0.0,0.0,0.0,0.0,0.0,0.0,0.0,0.0,0.0,0.0,0.0,0.0,0.0,0.0,0.0,0.0,0.0,0.0,0.0,0.0,0.0,0.0,0.0,0.0,0.0,0.0,0.0,0.0,0.0,0.0,0.0,0.0,0.0,0.0,0.0,0.0,0.0,0.0,0.0,0.0,0.0,0.0,0.0,0.0,0.0,0.0,0.0,0.0,0.0,0.0,0.0,0.0,0.0,0.0,0.0,0.0,0.0,0.0,0.0,0.0,0.0,0.0,0.0,0.0,0.0,0.0,0.0,0.0,0.0,0.0,0.0,0.0,0.0,0.0,0.0,0.0,0.0,0.0,0.0,0.0,0.0,0.0,0.0,0.0,0.0,0.0,0.0,0.0,0.0,0.0,0.0,0.0,0.0,0.0,0.0,0.0,-1.6563,-1.703,-1.7948,-1.9659,-1.988,-2.0241,-2.1013,-2.0264,-1.9248,-1.7978,0.0,0.0,0.0,0.0,0.0,0.0,0.0,0.0,0.0,0.0,0.0,0.0,0.0,0.0,0.0,0.0,0.0,0.0,0.0,0.0,0.0,0.0,0.0,0.0,0.0,0.0,0.0,0.0,0.0,0.0,0.0,0.0,0.0,0.0,0.0,0.0,0.0,0.0,0.0,0.0,0.0,0.0,0.0,0.0,0.0,0.0,0.0,0.0,0.0,0.0,0.0,0.0,0.0,0.0,0.0,0.0,0.0,0.0,0.0,0.0,-1.1144,0.0,0.0,0.0,0.0,0.0,0.0,0.0,0.0,0.0,0.0,0.0,0.0,0.0,0.0,0.0,0.0,0.0,0.0,0.0,0.0,0.0,0.0,0.0,0.0,0.0,0.0,0.0,0.0,0.0,0.0,0.0,0.0,0.0,0.0,0.0,0.0,0.0,0.0,0.0,0.0,0.0,-1.5938,-1.765,-1.8788,-1.8686,-1.9125,-1.9658,-2.0138,-1.9368,-1.8334,-1.7058,-1.6084,0.0,0.0,0.0,0.0,0.0,0.0,0.0,0.0,0.0,0.0,0.0,0.0,0.0,0.0,0.0,0.0,0.0,0.0,0.0,0.0,0.0,0.0,0.0,0.0,0.0,0.0,0.0,0.0,0.0,0.0,0.0,0.0,0.0,0.0,0.0,0.0,0.0,0.0,0.0,0.0,0.0,0.0,0.0,0.0,0.0,0.0,0.0,0.0,0.0,0.0,0.0,0.0,0.0,0.0,0.0,0.0,0.0,0.0,0.0,0.0,-1.1317,0.0,0.0,0.0,0.0,0.0,0.0,0.0,0.0,0.0,0.0,0.0,0.0,0.0,0.0,0.0,0.0,0.0,0.0,0.0,0.0,0.0,0.0,0.0,0.0,0.0,0.0,0.0,0.0,0.0,0.0,0.0,0.0,0.0,0.0,0.0,0.0,0.0,0.0,0.0,0.0,-1.6435,-1.7944,-1.8914,-1.8807,-1.9073,-1.9375,-1.959,-1.8978,-1.8237,-1.7369,-1.6328,0.0,0.0,0.0,0.0,0.0,0.0,0.0,0.0,0.0,0.0,0.0,0.0,0.0,0.0,0.0,0.0,0.0,0.0,0.0,0.0,0.0,0.0,0.0,0.0,0.0,0.0,0.0,0.0,0.0,0.0,0.0,0.0,0.0,0.0,0.0,0.0,0.0,0.0,0.0,0.0,0.0,0.0,0.0,0.0,0.0,0.0,0.0,0.0,0.0,0.0,0.0,0.0,0.0,-0.8045,-0.8066,-0.8069,-0.8248,-0.8238,-0.8142,-0.9566,-1.1049,-1.2374,0.0,0.0,0.0,0.0,0.0,0.0,0.0,0.0,0.0,0.0,0.0,0.0,0.0,0.0,0.0,0.0,0.0,0.0,0.0,0.0,0.0,0.0,0.0,0.0,0.0,-1.6549,-1.6468,0.0,0.0,0.0,0.0,0.0,0.0,0.0,0.0,0.0,0.0,0.0,0.0,-1.71,-1.7939,-1.8578,-1.9121,-1.9111,-1.9092,-1.917,-1.8779,-1.8315,-1.793,-1.678,-1.5899,0.0,0.0,0.0,0.0,0.0,0.0,0.0,0.0,0.0,0.0,0.0,0.0,0.0,0.0,0.0,0.0,0.0,0.0,0.0,0.0,0.0,0.0,0.0,0.0,0.0,0.0,0.0,0.0,0.0,0.0,0.0,0.0,0.0,0.0,0.0,0.0,0.0,0.0,0.0,0.0,0.0,0.0,0.0,0.0,0.0,0.0,0.0,0.0,-0.7897,-0.8106,-0.8241,-0.8211,-0.8353,-0.8425,-0.8425,-0.8445,-0.8442,-0.8467,-0.853,0.0,-1.0044,-1.0949,0.0,0.0,0.0,0.0,0.0,0.0,0.0,0.0,0.0,0.0,0.0,0.0,0.0,0.0,0.0,0.0,0.0,0.0,0.0,0.0,0.0,0.0,-1.683,-1.7,-1.7441,-1.7663,0.0,-1.6461,-1.585,-1.5264,0.0,0.0,0.0,0.0,0.0,0.0,0.0,0.0,-1.6619,-1.7246,-1.7852,-1.8607,-1.8398,-1.833,-1.8656,-1.834,-1.791,-1.749,-1.6613,-1.5899,-1.543,-1.4504,0.0,0.0,0.0,0.0,0.0,0.0,0.0,0.0,0.0,0.0,0.0,0.0,0.0,0.0,0.0,0.0,0.0,0.0,0.0,0.0,0.0,0.0,0.0,0.0,0.0,0.0,0.0,0.0,0.0,0.0,0.0,0.0,-0.047,-0.079,0.0,0.0,0.0,0.0,0.0,0.0,0.0,0.0,0.0,-0.7877,-0.7963,-0.8038,-0.8167,-0.8316,-0.8431,-0.852,-0.8581,-0.8655,-0.8733,-0.8648,-0.8611,-0.8598,-0.837,-0.8494,-0.8935,-1.0607,-1.1743,-1.249,0.0,0.0,0.0,0.0,0.0,-1.326,-1.3587,-1.342,0.0,0.0,0.0,0.0,0.0,0.0,0.0,0.0,0.0,0.0,0.0,0.0,0.0,-1.8371,-1.8344,-1.8276,-1.8091,-1.7598,-1.6885,0.0,-1.5654,-1.5244,-1.427,0.0,0.0,0.0,0.0,0.0,-1.625,-1.6738,-1.7126,-1.7496,-1.7369,-1.733,-1.7516,-1.7369,-1.7184,-1.7031,-1.6447,-1.6007,-1.5811,-1.4951,-1.4459,0.0,0.0,0.0,0.0,0.0,0.0,0.0,0.0,0.0,0.0,0.0,0.0,0.0,0.0,0.0,0.0,0.0,0.0,0.0,0.0,0.0,0.0,0.0,0.0,0.0,0.0,0.0,0.0,0.0416,0.0334,0.0047,0.0,0.0,0.0,0.0,0.0,0.0,0.0,0.0,-0.5076,-0.5478,-0.6265,-0.7585,-0.8114,-0.8401,-0.8442,-0.8547,-0.8655,-0.8767,-0.8767,-0.8808,-0.8821,-0.8764,-0.8689,-0.8638,-0.8381,-0.8323,-0.8449,-1.0633,-1.1821,-1.2445,-1.3796,-1.4041,-1.3687,-1.386,-1.3794,-1.3607,-1.4048,-1.3955,-1.354,-1.3213,0.0,-1.3719,-1.3257,0.0,0.0,0.0,0.0,-1.7163,-1.8434,0.0,-1.8984,-1.9092,-1.8789,-1.8442,-1.8442,-1.8198,-1.7686,0.0,-1.6339,-1.5889,-1.4814,0.0,0.0,0.0,0.0,-1.5449,-1.6026,-1.6357,-1.6602,-1.6687,-1.6697,-1.6697,-1.6697,-1.6697,-1.6697,-1.6697,-1.6309,-1.6095,-1.6095,-1.5371,-1.4986,-1.503,0.0,0.0,0.0,0.0,0.0,0.0,0.0,0.0,0.0,0.0,0.0,0.0,0.0,0.0,0.0,0.0,0.0,0.0,0.0,0.0,0.0,0.0,0.0,0.0,0.0,0.0,0.0,0.0,0.0,0.0147,0.0,0.0,0.0,0.0,0.0,-0.1708,-0.1832,-0.2476,-0.3803,-0.5197,-0.617,-0.6552,-0.7923,-0.8757,-0.8848,-0.8858,-0.8865,-0.8871,-0.8871,-0.8855,-0.872,-0.8713,-0.8632,-0.8486,-0.8336,-0.8323,-0.8449,-1.0633,-1.1534,-1.1775,-1.4055,-1.4948,-1.4921,-1.4934,-1.471,-1.4456,-1.4489,-1.4079,-1.3646,-1.3935,-1.3682,-1.337,-1.4115,-1.4258,0.0,0.0,-1.6955,-1.7352,-1.8877,-1.8662,-1.8174,-1.8539,-1.8315,-1.8047,-1.8047,-1.8027,-1.7871,0.0,-1.6982,-1.6543,-1.6075,0.0,-1.4883,-1.5283,-1.5049,-1.5146,-1.5987,-1.6114,-1.629,-1.6658,-1.6697,-1.6697,-1.6697,-1.6697,-1.6697,-1.6697,-1.6309,-1.6095,-1.6095,-1.5625,-1.5186,-1.4812,-1.4353,0.0,0.0,0.0,0.0,0.0,0.0,0.0,0.0,0.0,0.0,0.0,0.0,0.0,0.0,0.0,0.0,0.0,0.0,0.0,0.0,0.0,0.0,0.0,0.0,0.0,0.0,0.0,0.0,0.1446,0.1384,0.0,0.0098,0.0,-0.0199,-0.0604,-0.0659,-0.124,-0.2672,-0.4224,-0.5511,-0.6578,-0.8081,-0.8828,-0.8885,-0.8885,-0.8885,-0.8881,-0.8838,-0.8764,-0.8703,-0.8513,-0.8397,-0.8336,-0.8187,-0.8123,-0.8213,-0.9853,-1.0919,-1.1728,-1.4287,-1.513,-1.4988,-1.475,-1.4609,-1.4496,-1.4309,-1.4102,-1.3915,-1.3828,-1.3534,-1.3246,-1.3548,-1.4006,-1.4546,-1.5077,-1.6289,-1.7385,-1.7113,-1.7718,-1.8273,-1.7806,-1.7849,-1.7939,-1.7666,-1.7607,-1.748,-1.7051,-1.6804,-1.6473,-1.5771,-1.5391,-1.5146,-1.5029,-1.5107,-1.5303,-1.5605,-1.5644,-1.5703,-1.5839,-1.5849,-1.5849,-1.5849,-1.5849,-1.5742,-1.5498,-1.5332,-1.5263,-1.5263,-1.4824,-1.4494,-1.4338,-1.3919,-1.3618,0.0,0.0,0.0,0.0,0.0,0.0,0.0,0.0,0.0,0.0,0.0,0.0,0.0,0.0,0.0,0.0,0.0,0.0,0.0,0.0,0.0,0.0,0.0,0.0,0.0,0.0,0.4208,0.2995,0.2465,0.1799,0.0817,0.0307,0.0,0.0,0.0,-0.0428,-0.143,-0.2914,-0.4417,-0.5917,-0.7371,-0.8355,-0.8807,-0.8807,-0.8835,-0.8784,-0.8682,-0.8608,-0.8557,-0.836,-0.8241,-0.8187,-0.8032,-0.7988,-0.8088,-0.946,-1.0607,-1.1743,-1.4019,-1.4982,-1.5129,-1.489,-1.4689,-1.4476,-1.4188,-1.4088,-1.4055,-1.3854,-1.3661,-1.3507,-1.3507,-1.3862,-1.4309,-1.4519,-1.5513,-1.647,-1.6317,-1.7099,-1.7839,-1.7523,-1.764,-1.7715,-1.7451,-1.7266,-1.7031,-1.6592,-1.6514,-1.6318,-1.5732,-1.5508,-1.5312,-1.5039,-1.5234,-1.541,-1.541,-1.541,-1.541,-1.541,-1.541,-1.5352,-1.5215,-1.5205,-1.5019,-1.459,-1.4561,-1.4561,-1.4561,-1.426,-1.4104,-1.4104,-1.3695,-1.3322,-1.2922,0.0,0.0,0.0,0.0,0.0,0.0,0.0,0.0,0.0,0.0,0.0,0.0,0.0,0.0,0.0,0.0,0.0,0.0,0.0,0.0,0.0,0.0,0.0,0.5824,0.5889,0.5688,0.4707,0.3206,0.2263,0.2186,0.0845,0.0,0.0,0.0,0.0,0.0,-0.1399,-0.2905,-0.4359,-0.5917,-0.7306,-0.8602,-0.8652,-0.8628,-0.8482,-0.8476,-0.8404,-0.8323,-0.8316,-0.818,-0.7988,-0.7988,-0.7988,-0.8088,-0.9406,-1.055,-1.1616,-1.323,-1.4483,-1.5384,-1.5371,-1.5003,-1.4469,-1.4182,-1.4088,-1.4088,-1.4088,-1.4082,-1.4075,-1.4075,-1.3868,-1.3825,-1.4915,-1.4732,-1.4642,-1.6539,-1.6794,-1.6775,-1.7638,-1.7575,-1.7307,-1.7311,-1.6947,-1.6519,-1.6153,-1.6075,-1.6075,-1.6075,-1.5693,-1.541,-1.541,-1.541,0.0,-1.541,-1.54,-1.5391,-1.5391,-1.5381,-1.5205,-1.4805,-1.4766,-1.458,-1.4114,-1.4085,-1.4085,-1.4085,-1.4075,-1.4065,-1.4065,-1.3665,-1.3303,-1.2974,0.0,0.0,0.0,0.0,0.0,0.0,0.0,0.0,0.0,0.0,0.0,0.0,0.0,0.0,0.0,0.0,0.0,0.0,0.0,0.0,0.0,0.0,0.7596,0.7348,0.7591,0.7349,0.6107,0.4707,0.3429,0.2302,0.0881,0.0,0.0,0.0,0.0,0.0,-0.1399,-0.2403,-0.2794,-0.5239,-0.6725,-0.7075,-0.8059,-0.8523,-0.8479,-0.8377,-0.8361,-0.832,-0.8153,-0.8029,-0.7988,-0.7988,-0.7988,-0.8031,-0.8307,-0.914,-1.0478,-1.2667,-1.4198,-1.5102,-1.4836,-1.4522,-1.4195,-1.4115,-1.4088,-1.4088,-1.4088,-1.3941,-1.3726,-1.3726,-1.352,-1.332,-1.3436,-1.3811,-1.4111,-1.3748,-1.4621,-1.5414,-1.4737,-1.5044,-1.5462,-1.5556,-1.5501,-1.543,-1.5555,-1.5586,-1.5586,-1.5586,-1.5488,-1.541,-1.541,0.0,0.0,-1.541,-1.5146,-1.4951,-1.4951,-1.4668,-1.4406,-1.4299,-1.428,-1.4104,-1.3685,-1.3656,-1.3656,-1.3656,-1.3389,-1.3223,-1.3223,-1.3115,-1.2846,0.0,0.0,0.0,0.0,0.0,0.0,0.0,0.0,0.0,0.0,0.0,0.0,0.0,0.0,0.0,0.0,0.0,0.0,0.0,0.0,0.0,0.0,0.8545,0.8663,0.834,0.8469,0.8311,0.7577,0.5718,0.4136,0.324,0.1231,0.0,0.0,0.0,0.0,0.0,-0.084,-0.1562,-0.2159,-0.4378,-0.5836,-0.6389,-0.7746,-0.836,-0.8296,-0.8214,-0.8174,-0.817,-0.8029,-0.7955,0.0,-0.7894,-0.786,-0.7848,-0.776,-0.8434,0.0,0.0,0.0,0.0,0.0,-1.4229,-1.4088,-1.4088,-1.4088,-1.4068,-1.3941,-1.374,-1.358,-1.346,-1.3253,-1.3018,-1.2837,-1.3106,-1.3326,-1.2965,-1.3633,-1.4331,-1.3951,-1.405,-1.4246,-1.4334,-1.4488,-1.4666,-1.4862,0.0,0.0,-1.541,-1.541,-1.541,-1.541,-1.5264,-1.5146,0.0,-1.4775,-1.4512,-1.4512,-1.426,-1.4036,-1.386,-1.3851,0.0,0.0,0.0,-1.3242,-1.3242,-1.3008,0.0,0.0,0.0,0.0,0.0,0.0,0.0,0.0,-1.276,-1.2764,0.0,0.0,0.0,0.0,0.0,0.0,0.0,0.0,0.0,0.0,0.0,0.0,0.0,0.0,0.0,0.0,1.0074,0.9888,0.8854,0.8737,0.8784,0.8868,0.6422,0.4693,0.4528,0.1903,0.0168,0.0,0.0,0.0,0.0,0.0,0.0,0.0,0.0,-0.4797,-0.6036,-0.7524,-0.8177,-0.7988,-0.7988,-0.7988,-0.7988,-0.7971,-0.7891,-0.7811,-0.7794,-0.7716,-0.7597,-0.758,-0.8256,-0.9405,-1.0854,-1.2025,-1.3044,-1.3828,-1.4088,0.0,0.0,0.0,0.0,-1.3653,-1.3533,-1.3453,-1.324,-1.2939,-1.273,-1.273,-1.2543,-1.2475,-1.3302,-1.3334,-1.3341,-1.411,-1.377,-1.3339,-1.3385,-1.3651,-1.3903,-1.3993,-1.4556,-1.5061,-1.5119,-1.5255,-1.5342,-1.5342,-1.498,0.0,-1.4717,-1.4336,-1.4036,-1.4036,0.0,0.0,-1.3467,-1.3437,-1.3281,-1.2925,-1.2905,-1.2905,-1.2905,-1.2905,-1.2905,-1.2905,-1.2905,-1.2905,-1.2905,-1.2905,-1.2905,-1.2905,-1.2905,-1.2905,0.0,0.0,0.0,0.0,0.0,0.0,0.0,0.0,0.0,0.0,0.0,0.0,0.0,0.0,0.0,1.0285,1.0429,1.0322,0.903,0.8841,0.8851,0.8878,0.7371,0.5808,0.4637,0.285,0.1287,0.0112,0.0,0.0,0.0,0.0,0.0,-0.0438,-0.2757,-0.4159,-0.4437,-0.6867,-0.8019,-0.7988,0.0,0.0,-0.7985,-0.7913,-0.7838,-0.7804,-0.7689,-0.7624,-0.759,-0.7465,-0.8571,-1.0415,-1.1635,-1.2807,-1.3851,-1.4024,-1.4088,-1.4055,-1.3773,-1.3686,-1.364,-1.3387,-1.3126,-1.2945,-1.2891,-1.2663,0.0,-1.2385,-1.2345,-1.2281,-1.2262,-1.2224,-1.2095,-1.1801,-1.1624,-1.1625,-1.2047,-1.1996,-1.2083,-1.2777,-1.2829,-1.2895,-1.346,-1.4306,-1.4902,-1.4902,-1.4541,-1.4231,-1.4231,-1.386,-1.3633,-1.3633,-1.333,-1.3096,-1.3032,-1.3023,-1.2993,-1.2905,-1.2905,-1.2905,-1.2905,-1.2905,-1.2905,-1.2905,-1.2905,-1.2905,-1.2905,-1.2905,-1.2905,-1.2905,-1.2905,-1.2905,0.0,0.0,0.0,0.0,0.0,0.0,0.0,0.0,0.0,0.0,0.0,1.5342,1.457,0.0,1.41,1.2516,1.2024,1.142,1.0163,0.9372,0.8885,0.8885,0.7595,0.6142,0.4639,0.3129,0.1566,0.0112,0.0,0.0,0.0,0.0,0.0,0.0,-0.1932,-0.3342,-0.397,-0.6002,-0.7335,-0.7988,-0.7988,-0.7948,-0.7923,-0.7845,-0.7729,-0.7587,-0.7516,-0.7441,-0.7363,-0.7288,-0.8222,-0.9826,-1.0873,-1.2397,-1.4068,-1.3921,-1.3868,-1.3821,-1.3487,-1.3387,-1.338,-1.3073,-1.2911,-1.2757,-1.2603,-1.2418,-1.2305,-1.2305,-1.2198,-1.2051,-1.194,-1.1685,-1.1356,-1.1062,-1.0914,-1.0857,-1.1136,-1.1244,-1.1419,-1.187,-1.2032,-1.2206,-1.2538,-1.3177,-1.3831,-1.4369,-1.4065,-1.3792,-1.3792,-1.3457,-1.3193,-1.3193,-1.3032,-1.2905,-1.2905,-1.2905,-1.2905,-1.2905,-1.2905,-1.2905,-1.2905,-1.2905,-1.2905,-1.2905,-1.2905,-1.2905,-1.2905,-1.2905,-1.2905,-1.2905,-1.2905,-1.2905,0.0,0.0,0.0,0.0,0.0,0.0,0.0,0.0,1.7452,1.7415,1.7237,1.7091,1.6896,1.6551,1.5939,1.4684,1.3606,1.2476,1.1248,0.9834,0.8841,0.8841,0.7858,0.6422,0.4693,0.3353,0.1901,0.0112,0.0,0.0,0.0,0.0,0.0,0.0,-0.129,-0.2654,-0.3966,-0.5322,-0.6681,-0.7988,-0.7961,-0.788,-0.7811,-0.775,-0.7597,-0.7415,-0.7339,-0.7255,-0.7095,-0.7065,-0.7793,-0.8944,-0.9592,-1.1297,-1.3374,-1.3477,-1.352,-1.3473,-1.322,-1.312,-1.3073,-1.2797,-1.2697,-1.2656,-1.2378,-1.2305,-1.2291,-1.2231,-1.2087,-1.1879,-1.1765,-1.1349,-1.0982,-1.0922,-1.072,-1.0506,-1.0506,-1.0721,-1.088,-1.088,-1.12,-1.1501,-1.1631,-1.1821,-1.2385,-1.3618,-1.3549,-1.3389,-1.3389,-1.3096,-1.2905,-1.2905,-1.2905,-1.2905,-1.2905,-1.2905,-1.2905,-1.2905,-1.2905,-1.2905,-1.2905,-1.2905,-1.2905,-1.2905,-1.2905,-1.2905,-1.2905,-1.2905,-1.2905,-1.2905,-1.2905,-1.2905,1.7767,1.7379,1.7369,1.853,1.8839,1.9176,0.0,0.0,2.0533,1.9952,2.0025,1.9582,1.7535,1.7752,1.7379,1.4889,1.3793,1.2753,1.1319,0.9733,0.8737,0.8737,0.8688,0.754,0.4751,0.4359,0.3075,0.0224,0.0,0.0,0.0,0.0,0.0,0.0,-0.1325,-0.262,-0.3966,-0.5322,-0.6681,-0.7988,-0.7902,-0.7828,-0.7801,-0.7539,-0.745,-0.7409,-0.7224,-0.7112,-0.7085,-0.696,-0.7629,-0.8704,-0.8632,-0.9428,-1.0843,-1.2616,-1.326,-1.3213,-1.2945,-1.2837,-1.2784,-1.2452,-1.2351,-1.2345,-1.2311,-1.2305,-1.2245,-1.2027,-1.1933,-1.1785,-1.1229,-1.1042,-1.0929,-1.07,-1.0381,-1.0167,-1.0167,-0.9784,-0.9444,-0.9444,-0.9289,-0.9369,-0.9952,-1.007,-1.0683,-1.2428,-1.2837,-1.2974,-1.2974,-1.2935,-1.2905,-1.2905,-1.2905,-1.2905,-1.2905,-1.2905,-1.2905,-1.2905,-1.2905,-1.2905,-1.2905,-1.2905,-1.2905,-1.2905,-1.2905,-1.2905,-1.2905,-1.2905,-1.2905,-1.2905,-1.2905,-1.2905,1.8375,1.8613,0.0,0.0,1.9863,2.0566,2.1073,2.158,2.1896,2.1588,2.07,1.9715,1.8715,1.7819,1.6881,0.0,1.4227,1.2806,1.2268,1.0184,0.8676,0.8587,0.8635,0.7532,0.4608,0.4339,0.3148,0.0218,0.0,0.0,0.0,0.0,0.0,0.0,-0.0557,-0.146,-0.2815,-0.4076,-0.5387,-0.6718,-0.7369,-0.7641,-0.755,-0.7473,-0.7322,-0.7227,-0.7038,-0.6974,-0.6964,-0.6858,-0.7084,-0.756,-0.7992,-0.848,-0.9159,-1.1274,-1.2031,-1.2072,-1.2403,-1.2522,-1.2509,-1.2345,-1.2305,-1.2271,-1.2098,-1.2087,-1.1984,-1.1697,-1.149,-1.1303,-1.1056,-1.0868,-1.07,-1.0367,-1.0207,-1.0067,-0.99,-0.9511,-0.9211,-0.9211,-0.8978,-0.8883,-0.9159,-0.9536,-1.0066,-1.0803,-1.169,-1.2403,-1.2847,-1.2905,-1.2905,-1.2905,-1.2905,-1.2905,-1.2905,-1.2905,-1.2905,-1.2905,-1.2905,-1.2905,-1.2905,-1.2905,-1.2905,-1.2905,-1.2905,-1.2905,-1.2905,-1.2905,-1.2905,-1.2905,-1.2905,-1.2905,1.8754,0.0,0.0,1.9629,2.0198,2.0785,2.1014,2.1372,2.1655,2.1655,2.0526,1.9405,1.9039,1.7804,1.68,1.671,1.4505,1.2825,1.2973,1.0514,0.8591,0.8442,0.8387,0.726,0.4441,0.4166,0.3027,0.0213,0.0,0.0,0.0,0.0,0.0,0.0,0.0,-0.0654,-0.1998,-0.3199,-0.4481,-0.581,-0.6985,-0.7478,-0.7412,-0.7285,-0.719,-0.7031,-0.6886,-0.6865,-0.6854,-0.6702,-0.6637,-0.6702,-0.7299,-0.7545,-0.7737,-0.9573,-1.0429,-1.0791,-1.1614,-1.1885,-1.1909,-1.2131,-1.2184,-1.2131,-1.1837,-1.175,-1.1683,-1.139,-1.1156,-1.0975,-1.0895,-1.0687,-1.0412,-1.0167,-0.9963,-0.979,-0.9606,-0.9304,-0.9091,-0.9091,-0.8924,-0.8804,-0.8804,-0.9211,-0.9588,-0.9762,-1.0788,-1.1774,-1.251,-1.2774,-1.2905,-1.2905,-1.2905,-1.2905,-1.2905,-1.2905,-1.2905,-1.2905,-1.2905,-1.2905,-1.2905,-1.2905,-1.2905,-1.2905,-1.2905,-1.2905,-1.2905,-1.2905,-1.2905,-1.2905,-1.2905,-1.2905,0.0,0.0,1.8939,2.0253,2.0008,1.97,2.0508,2.0146,1.9571,1.9571,1.9534,1.9131,1.7956,1.7906,1.7751,1.6853,1.4505,1.2825,1.2973,1.0403,0.8435,0.8344,0.8143,0.6942,0.0,0.4105,0.3027,0.0213,0.0,0.0,0.0,0.0,0.0,0.0,0.0,-0.065,-0.2008,-0.3178,-0.4452,-0.5834,-0.6888,-0.7422,-0.7405,-0.7075,-0.6896,-0.6883,-0.6773,-0.6709,-0.6695,-0.6542,-0.6518,-0.6504,-0.64,-0.6342,-0.6497,-0.7522,-0.8513,-0.9496,-1.049,-1.0864,-1.0971,-1.1677,-1.1919,-1.1866,-1.153,-1.1409,-1.1342,-1.1089,-1.1002,-1.0929,-1.068,-1.0354,-1.0097,-1.009,-0.965,-0.9237,-0.9224,-0.8998,-0.8824,-0.8824,-0.8811,-0.8804,-0.8804,-0.8804,-0.9061,-0.9718,-1.0389,-1.1065,-1.174,-1.2452,-1.2905,-1.2905,-1.2905,-1.2905,-1.2905,-1.2905,-1.2905,-1.2905,-1.2905,-1.2905,-1.2905,-1.2905,-1.2905,-1.2905,-1.2905,-1.2905,-1.2905,-1.2905,-1.2905,-1.2905,-1.2905,-1.2905,0.0,0.0,1.8581,1.9344,1.9012,1.8406,1.8226,1.7337,1.6573,1.658,1.5286,1.4572,1.5732,1.5523,1.5373,1.6024,1.4099,1.256,1.2618,1.025,0.8391,0.8147,0.8022,0.0,0.0,0.0,0.0,0.0206,0.0,0.0,0.0,0.0,0.0,0.0,0.0,-0.0196,-0.0673,-0.2651,-0.3887,-0.4368,-0.6283,-0.717,-0.7075,-0.6933,-0.6829,-0.677,-0.6617,-0.6549,-0.6536,-0.6429,-0.6371,-0.6368,-0.632,-0.63,-0.6416,-0.7442,-0.7887,-0.8231,-1.0124,-1.112,-1.1552,-1.1826,-1.1737,-1.1516,-1.1229,-1.1136,-1.1082,-1.0821,-1.0734,-1.0713,-1.062,-1.0341,-1.0067,-0.9873,-0.9497,-0.9158,-0.8964,-0.8878,-0.8804,-0.8804,-0.8804,-0.8804,-0.8804,-0.8804,-0.9035,-0.9684,-1.0745,-1.1724,-1.2452,-1.2749,-1.2905,-1.2905,-1.2905,-1.2905,-1.2905,-1.2905,-1.2905,-1.2905,-1.2905,-1.2905,-1.2905,-1.2905,-1.2905,-1.2905,-1.2905,-1.2905,-1.2905,-1.2905,-1.2905,-1.2905,-1.2905,-1.2905,1.8489,1.8396,1.8246,1.8046,1.7366,1.6417,1.5239,1.4021,1.307,1.2624,1.1276,1.0799,1.2817,1.2682,1.289,1.4893,1.3122,1.1745,1.2339,1.0123,0.8316,0.8019,0.7988,0.693,0.0,0.0,0.0,0.0202,0.0,0.0,0.0,0.0,0.0,0.0,0.0,0.0,0.0,-0.2412,-0.4036,-0.4867,-0.6331,-0.6974,-0.6883,-0.6814,-0.6712,-0.661,-0.6501,-0.6436,-0.6429,-0.6337,-0.63,-0.63,-0.63,-0.63,-0.637,-0.6954,-0.7264,-0.7688,-0.9885,-1.0888,-1.1221,-1.1486,-1.1423,-1.1216,-1.0929,-1.0868,-1.0827,-1.0646,-1.0593,-1.0593,-1.0593,-1.0291,-0.9913,-0.9726,-0.9379,-0.9004,-0.8844,-0.8804,-0.8804,-0.8804,-0.8804,-0.8804,-0.8804,-0.8804,-0.9035,-0.9684,-1.0542,-1.135,-1.2049,-1.2353,-1.2501,-1.2501,-1.2749,-1.2905,-1.2905,-1.2905,-1.2905,-1.2905,-1.2905,-1.2905,-1.2905,-1.2905,-1.2905,-1.2905,-1.2905,-1.2905,-1.2905,-1.2905,-1.2905,-1.2905,-1.2905,-1.2905,1.8344,1.8178,1.7743,1.6433,1.5077,1.3592,1.1708,1.0299,0.905,0.7908,0.7632,0.8007,0.0,0.0,1.0566,1.3452,1.1736,1.056,1.2034,0.9973,0.8214,0.0,0.0,0.0,0.0,0.0,0.0,0.0202,0.0,0.0,0.0,0.0,0.0,0.0,0.0,0.0,0.0,-0.2393,-0.4729,-0.6993,-0.695,-0.6876,-0.6852,-0.6603,-0.6508,-0.6494,-0.6358,-0.63,-0.63,-0.63,-0.63,-0.63,-0.63,-0.6293,-0.6269,-0.6122,-0.6678,-0.7755,-0.9641,-1.0096,-0.9955,-1.0703,-1.0916,-1.0883,-1.0641,-1.0593,-1.0593,-1.0593,-1.0593,-1.0586,-1.0573,-1.0144,-0.9708,-0.9666,-0.9225,-0.8804,-0.8804,-0.8804,-0.8804,-0.8804,-0.8804,-0.8804,-0.8804,-0.8804,-0.9008,-0.9666,-0.9744,-0.9987,-1.072,-1.1366,-1.174,-1.174,-1.2378,-1.2808,-1.2847,-1.2808,-1.2822,-1.2905,-1.2847,-1.2847,-1.2905,-1.2905,-1.2905,-1.2905,-1.2905,-1.2905,-1.2905,-1.2905,-1.2905,-1.2905,-1.2905,-1.2905,1.8226,1.6739,1.5013,1.4664,1.2382,0.9898,0.8536,0.6586,0.501,0.4735,0.3978,0.4245,0.0,0.0,0.0,1.147,1.089,0.0,1.0573,0.9295,0.0,0.8008,0.0,0.693,0.4266,0.4017,0.0,0.0,0.0,0.0,0.0,0.0,0.0,0.0,0.0,0.0,0.0,-0.2388,-0.4271,-0.5621,-0.6506,-0.681,-0.6586,-0.6549,-0.6453,-0.6351,-0.6317,-0.63,-0.63,-0.63,-0.63,-0.63,-0.63,-0.619,-0.6156,-0.6853,-0.7105,-0.7216,-0.8492,-0.8861,-0.891,-0.9767,-0.9888,-0.9846,-1.0423,-1.0593,-1.0593,-1.0593,-1.0593,-1.0539,-1.0287,-0.996,-0.9626,-0.9377,-0.9044,-0.8804,-0.8804,-0.8804,-0.8804,-0.8804,-0.8804,-0.8804,-0.8804,-0.8804,-0.8857,-0.9035,-0.9061,-0.9484,-1.0644,-1.0939,-1.104,-1.104,-1.1225,-1.1534,-1.203,-1.1633,-1.1792,-1.2832,-1.2369,-1.232,-1.2881,-1.2905,-1.2905,-1.2905,-1.2905,-1.2905,-1.2905,-1.2905,-1.2905,-1.2905,-1.2905,-1.2905,1.6731,1.5311,1.3796,1.2188,0.9909,0.7632,0.5924,0.412,0.2619,0.2103,0.1469,0.0,0.0,0.0,0.0,0.0,0.0,0.0,0.9903,0.8957,0.8136,0.0,0.7988,0.0,0.427,0.3983,0.2875,0.0,0.0,0.0,0.0,0.0,0.0,0.0,0.0,-0.0271,-0.0796,-0.2117,-0.3571,-0.5111,-0.5742,-0.6182,-0.6511,-0.6446,-0.6375,-0.63,0.0,-0.6259,-0.6159,-0.6159,-0.6118,-0.6098,-0.6098,-0.6006,-0.5958,-0.6465,-0.653,-0.639,-0.6916,-0.7082,-0.7283,-0.8546,-0.9119,-0.9402,-0.9881,-1.0301,-1.0593,-1.0593,-1.0593,-1.0519,-1.0194,-0.99,-0.9613,-0.9284,-0.8991,-0.8804,-0.8804,-0.8804,-0.8804,-0.8804,-0.8804,-0.8804,-0.8804,-0.8804,-0.8804,-0.8804,-0.8804,-0.9087,-0.9814,-1.0192,-1.0364,-1.0364,-1.0889,-1.1266,-1.1366,-1.1291,-1.145,-1.195,-1.1882,-1.1996,-1.2393,-1.2715,-1.2905,-1.2905,-1.2905,-1.2905,-1.2905,-1.2905,-1.2905,-1.2905,-1.2905,-1.2905,1.4767,1.3949,1.3083,0.9747,0.7753,0.6116,0.4082,0.2551,0.1245,0.021,0.0,0.063,0.2704,0.3459,0.4886,0.8282,0.0,0.8247,0.953,0.8726,0.7988,0.7988,0.7971,0.6912,0.426,0.399,0.2892,0.019,0.0,0.0,0.0,0.0,0.0,0.0,0.0,-0.0487,-0.1554,-0.1726,-0.277,-0.4621,-0.4821,-0.5373,-0.6278,-0.6276,-0.63,-0.6296,0.0,0.0,-0.599,-0.5973,-0.5922,-0.58,-0.58,-0.5789,-0.5759,-0.5637,-0.5579,-0.5542,-0.544,-0.5395,-0.5657,-0.7312,-0.842,-0.9139,-0.9274,-0.9888,-1.0539,-1.0579,-1.0539,-1.0412,-1.0127,-0.984,-0.9552,-0.9224,-0.8964,-0.8804,-0.8804,-0.8804,-0.8804,-0.8804,-0.8804,-0.8804,-0.8804,-0.8804,-0.8804,-0.8804,-0.8804,-0.8804,-0.8804,-0.9316,-0.9666,-0.9666,-1.072,-1.1191,-1.072,-1.1116,-1.1241,-1.0838,-1.1266,-1.1566,-1.1665,-1.227,-1.2618,-1.2618,-1.27,-1.274,-1.274,-1.2856,-1.2905,-1.2905,-1.2905,-1.2905,1.44,1.2668,1.0868,0.9288,0.6542,0.4084,0.3684,0.1882,0.0,0.0,0.0,0.0374,0.1678,0.2924,0.4334,0.5961,0.0,0.0,0.0,0.0,0.7988,0.0,0.0,0.0,0.0,0.0,0.0,0.0,0.0,0.0,0.0,0.0,0.0,0.0,0.0,-0.0087,-0.0296,-0.1309,-0.1918,-0.2244,-0.4017,-0.4928,-0.5029,-0.5915,-0.63,-0.6293,0.0,0.0,-0.5983,-0.5891,-0.5827,-0.58,-0.58,-0.5728,-0.5623,-0.5599,-0.5542,-0.5429,-0.5402,-0.5395,-0.5557,-0.6593,-0.7502,-0.8355,-0.9075,-0.9725,-1.0247,-1.0519,-1.0238,-0.9849,-0.9773,-0.9539,-0.9217,-0.8924,-0.8844,-0.8804,-0.8804,-0.8804,-0.8804,-0.8804,-0.8804,-0.8804,-0.8804,-0.8804,-0.8804,-0.8804,-0.8804,-0.8804,-0.8804,-0.891,-0.8982,-0.8982,-0.9185,-0.9484,-0.9935,-0.9562,-0.9736,-1.0737,-1.0389,-1.0389,-1.0939,-1.1099,-1.1174,-1.1174,-1.1699,-1.1996,-1.1996,-1.2608,-1.2905,-1.2905,-1.2905,-1.2905,1.276,1.1116,0.9619,0.83,0.5749,0.3585,0.3587,0.0,0.0,0.0,0.0,0.0323,0.1417,0.0,0.0,0.0,0.0,0.0,0.0,0.0,0.0,0.0,0.0,0.0,0.0,0.0,0.0,0.0,0.0,0.0,0.0,0.0,0.0,0.0,0.0,0.0,0.0,-0.0578,-0.1101,-0.1595,-0.2667,-0.3716,-0.4724,-0.5166,-0.5638,-0.6132,-0.5976,0.0,-0.5796,-0.5722,-0.5644,-0.5607,-0.5607,-0.5566,-0.5504,-0.5504,-0.5457,-0.5395,-0.5395,-0.5395,-0.5444,-0.5776,-0.6836,-0.8033,-0.8276,-0.916,-1.0114,-1.0137,-0.993,-0.9646,-0.9492,-0.9317,-0.9138,-0.8878,-0.8804,-0.8804,-0.8804,-0.8804,-0.8804,-0.8804,-0.8804,-0.8804,-0.8804,-0.8804,-0.8804,-0.8804,-0.8804,-0.8804,-0.8804,-0.8804,-0.8804,-0.8804,-0.9106,-0.9316,-0.929,-0.9316,-0.9439,-0.9736,-0.9788,-0.9943,-1.0269,-1.061,-1.0965,-1.1316,-1.1641,-1.1996,-1.2369,-1.2715,-1.2905,-1.2905,-1.2905,-1.2905,1.0868,0.9737,0.8893,0.7432,0.5344,0.3596,0.3619,0.1726,0.0,0.0,0.0,0.0275,0.1097,0.0,0.0,0.0,0.0,0.0,0.0,0.0,0.0,0.0,0.0,0.0,0.0,0.0,0.0,0.0,0.0,0.0,0.0,0.0,0.0,0.0,0.0,0.0,0.0,0.0,-0.044,-0.1254,-0.1481,-0.2446,-0.4028,-0.4342,-0.493,-0.567,-0.5748,0.0,0.0,-0.5555,-0.5504,-0.5395,-0.5395,-0.5395,-0.5395,-0.5395,-0.5395,-0.5395,-0.5395,-0.5375,-0.5324,-0.5137,-0.6257,-0.759,-0.7312,-0.8381,-0.9649,-0.9515,-0.9471,-0.9459,-0.9257,-0.9164,-0.9064,-0.8864,-0.8804,-0.8804,-0.8804,-0.8804,-0.8804,-0.8804,-0.8804,-0.8804,-0.8804,-0.8804,-0.8804,-0.8804,-0.8804,-0.8804,-0.8804,-0.8804,-0.8784,-0.8717,-0.9247,-0.9361,-0.8831,-0.929,-0.9361,-0.8831,-0.9252,-0.9515,-0.9588,-1.0046,-1.0563,-1.1166,-1.1291,-1.1733,-1.2437,-1.2593,-1.2749,-1.2905,-1.2905,-1.2905,0.941,0.899,0.8648,0.7404,0.5325,0.3613,0.3606,0.0,0.0,0.0,0.0,0.0039,0.0118,0.0,0.0,0.0,0.0,0.0,0.0,0.0,0.0,0.0,0.0,0.0,0.0,0.0,0.0,0.0,0.0,0.0,0.0,0.0,0.0,0.0,0.0,0.0,0.0,0.0,-0.0039,-0.0157,-0.115,-0.1705,-0.193,-0.3717,-0.4545,-0.4684,0.0,0.0,0.0,-0.5474,-0.5405,-0.5395,-0.5395,-0.5395,-0.5395,-0.5395,-0.5395,-0.5395,-0.5395,-0.527,-0.5117,-0.5103,-0.5769,-0.6532,-0.6367,-0.7276,-0.8427,-0.8638,-0.8783,-0.8945,-0.9151,-0.9018,-0.8838,-0.8811,-0.8804,-0.8804,-0.8804,-0.8804,-0.8804,-0.8804,-0.8804,-0.8804,-0.8804,-0.8804,-0.8804,-0.8804,-0.8804,-0.8804,-0.8804,-0.8804,-0.8704,-0.8469,-0.8703,-0.8857,-0.8811,-0.8857,-0.8857,-0.8804,-0.8634,-0.8633,-0.887,-0.8723,-0.876,-0.908,-0.9658,-1.032,-1.0998,-1.1591,-1.2236,-1.2905,-1.2905,-1.2905,0.8808,0.8364,0.7709,0.7228,0.5789,0.4351,0.3728,0.0,0.0784,0.0118,0.0,0.0,0.0,0.0395,0.0,0.0,0.0,0.0,0.0,0.0,0.0,0.0,0.0,0.0,0.0,0.0,0.0,0.0,0.0,0.0,0.0,0.0,0.0,0.0,0.0,0.0,0.0,0.0,0.0,0.0,-0.0446,-0.096,-0.1623,-0.226,-0.3221,-0.4315,0.0,0.0,0.0,-0.5419,-0.5395,-0.5395,-0.5395,-0.5395,-0.5395,-0.5395,-0.5395,-0.5382,-0.5254,-0.5182,-0.5069,-0.4921,-0.5104,-0.5449,-0.5843,-0.6697,-0.7503,-0.7426,-0.7439,-0.7613,-0.8151,-0.8537,-0.8804,-0.8804,-0.8804,-0.8804,-0.8804,-0.8804,-0.8804,-0.8804,-0.8804,-0.8804,-0.8804,-0.8804,-0.8804,-0.8804,-0.8804,-0.8804,-0.8804,-0.8804,-0.8697,-0.8435,-0.8502,-0.8477,-0.8272,-0.8258,-0.8258,-0.8258,-0.817,-0.8243,-0.8556,-0.8462,-0.8707,-0.938,-0.9666,-1.0141,-1.0788,-1.1065,-1.135,-1.1642,-1.2064,-1.2236,0.7635,0.7493,0.7007,0.6694,0.5617,0.4393,0.0,0.2064,0.0902,0.0157,0.0,0.0,0.0,0.0,0.0276,0.0,0.0,0.0,0.0,0.0,0.0,0.0,0.0,0.0,0.0,0.0,0.0,0.0,0.0,0.0,0.0,0.0,0.0,0.0,0.0,0.0,0.0,0.0,0.0,0.0,0.0,-0.0396,-0.1115,-0.1258,-0.2034,-0.334,0.0,0.0,0.0,-0.499,-0.516,-0.5395,-0.5395,-0.5395,-0.5388,-0.5344,-0.5327,-0.527,-0.509,-0.5009,-0.4935,-0.4758,-0.466,-0.4737,-0.5271,-0.5971,-0.6616,-0.6601,-0.6912,-0.7369,-0.7883,-0.8401,-0.8804,-0.8804,-0.8804,-0.8804,-0.8804,-0.8804,-0.8804,-0.8804,-0.8804,-0.8804,-0.8804,-0.8804,-0.8804,-0.8804,-0.8804,-0.8804,-0.8804,-0.8731,-0.8571,-0.8277,-0.8181,-0.8063,-0.7919,-0.7905,-0.7905,-0.7905,-0.7819,-0.7929,-0.823,-0.8243,-0.862,-0.9365,-0.9467,-0.984,-1.0491,-1.0412,-1.049,-1.0681,-1.1056,-1.1405,0.5451,0.6237,0.6827,0.5714,0.4499,0.331,0.0,0.0892,0.0,0.0,0.0,0.0,0.0,0.0,0.0,0.0,0.0,0.0,0.0,0.0,0.0,0.0,0.0,0.0,0.0,0.0,0.0,0.0,0.0,0.0,0.0,0.0,0.0,0.0,0.0,0.0,0.0,0.0,0.0,0.0,0.0,0.0,-0.0035,-0.0919,-0.1307,0.0,0.0,0.0,0.0,-0.4015,-0.4553,-0.5395,-0.5395,-0.5395,-0.5378,-0.5189,-0.51,-0.5079,-0.4938,-0.4823,-0.4694,-0.4694,-0.4617,-0.4491,-0.4519,-0.4979,-0.5678,-0.6394,-0.7643,-0.8785,-0.8778,-0.8804,-0.8804,-0.8804,-0.8804,-0.8804,-0.8804,-0.8804,-0.8804,-0.8804,-0.8804,-0.8804,-0.8804,-0.8804,-0.8804,-0.8804,-0.8804,-0.8804,-0.8804,-0.8583,-0.8263,-0.7945,-0.7662,-0.7618,-0.7879,-0.7905,-0.7905,-0.7905,-0.7642,-0.7631,-0.7899,-0.7912,-0.8076,-0.8395,-0.869,-0.9133,-0.9814,-0.9542,-0.9744,-1.0397,-1.0075,-1.0447,0.4799,0.4972,0.4787,0.5127,0.4305,0.311,0.2047,0.1442,0.0902,0.0157,0.0,0.0,0.0,0.0,0.0,0.0,0.0,0.0,0.0,0.0,0.0,0.0,0.0,0.0,0.0,0.0,0.0,0.0,0.0,0.0,0.0,0.0,0.0,0.0,0.0,0.0,0.0,0.0,0.0,0.0,0.0,0.0,0.0,-0.027,0.0,0.0,0.0,0.0,0.0,-0.4015,-0.4553,-0.5385,-0.5243,-0.5203,-0.5186,-0.5009,-0.4955,-0.4935,-0.4816,-0.4731,-0.4674,-0.4597,-0.4528,-0.4491,-0.4491,-0.4653,-0.4869,-0.5089,-0.5819,-0.6546,-0.6546,-0.7283,-0.8049,-0.8049,-0.8427,-0.8804,-0.8804,-0.8804,-0.8804,-0.8804,-0.8804,-0.8804,-0.8804,-0.8804,-0.8804,-0.8804,-0.8804,-0.8738,-0.8563,-0.8456,-0.8201,-0.7692,-0.7544,-0.7444,-0.7293,-0.7286,-0.7286,-0.7286,-0.7193,-0.7295,-0.7625,-0.7792,-0.8045,-0.8395,-0.8489,-0.8638,-0.8853,-0.8522,-0.8714,-0.9377,-0.9629,-1.0186,0.0,0.3743,0.3644,0.3807,0.329,0.247,0.1378,0.1036,0.0824,0.0157,0.0,0.0118,0.051,0.0273,0.0117,0.0553,0.0,0.0,0.0,0.0,0.0,0.0,0.0,0.0,0.0,0.0,0.0,0.0,0.0,0.0,0.0,0.0,0.0,0.0,0.0,0.0,0.0,0.0,0.0,0.0,0.0,0.0,0.0,0.0,0.0,0.0,0.0,0.0,0.0,-0.3788,-0.4419,-0.5186,-0.5087,-0.5019,-0.5002,-0.4887,-0.4833,-0.4809,-0.4657,-0.4634,-0.4617,-0.4522,-0.4491,-0.4491,-0.4491,-0.468,-0.4869,-0.4869,-0.5382,-0.5923,-0.5923,-0.6794,-0.7696,-0.7696,-0.8268,-0.8804,-0.8804,-0.8804,-0.8804,-0.8804,-0.8804,-0.8804,-0.8804,-0.8717,-0.8644,-0.8644,-0.855,-0.841,-0.823,-0.8127,-0.7913,-0.7553,-0.739,-0.7221,-0.7013,-0.7,-0.7,-0.7,-0.7,-0.7101,-0.7316,-0.7595,-0.7842,-0.8053,-0.8174,-0.821,-0.821,-0.7903,-0.7896,-0.82,-0.8648,-0.9243,0.0,0.2543,0.3087,0.2044,0.1725,0.1375,0.0243,0.004,0.0,0.0118,0.0157,0.051,0.1528,0.0884,0.053,0.1555,0.0,0.0,0.0,0.0,0.0,0.0,0.0,0.0,0.0,0.0,0.0,0.0,0.0,0.0,0.0,0.0,0.0,0.0,0.0,0.0,0.0,0.0,0.0,0.0,0.0,0.0,0.0,0.0,0.0,0.0,0.0,0.0,0.0,-0.3421,-0.4216,-0.4887,-0.4877,-0.4874,-0.4884,-0.4731,-0.4674,-0.4653,-0.4539,-0.4491,-0.4491,-0.4491,-0.4491,-0.4491,-0.4491,-0.4921,-0.5433,-0.5433,-0.5928,-0.6453,-0.6507,-0.7074,-0.7643,-0.7696,-0.8268,-0.8804,-0.8804,-0.8804,-0.8804,-0.8804,-0.8804,-0.8798,-0.8778,-0.8576,-0.8395,-0.8368,-0.811,-0.7875,-0.7801,-0.7619,-0.7477,-0.7413,-0.7166,-0.7,-0.7,-0.7,-0.7,-0.7,-0.7,-0.7,-0.7,-0.733,-0.7513,-0.7513,-0.7749,-0.7866,-0.7839,-0.7575,-0.7316,-0.7006,-0.7374,-0.7857,0.1341,0.0,0.0957,0.1514,0.1032,0.0356,0.0,0.063,0.1215,0.0,0.0,0.0,0.2696,0.2454,0.0,0.0,0.0,0.0,0.0,0.0,0.0,0.0,0.0,0.0,0.0,0.0,0.0,0.0,0.0,0.0,0.0,0.0,0.0,0.0,0.0,0.0,0.0,0.0,0.0,0.0,0.0,0.0,0.0,0.0,0.0,0.0,0.0,0.0,-0.2547,-0.3321,-0.4142,-0.4877,-0.4792,-0.4745,-0.4724,-0.46,-0.4545,-0.4539,-0.4501,-0.4491,-0.4491,-0.4491,-0.4491,-0.4491,-0.4491,-0.4598,-0.4732,-0.4732,-0.4873,-0.5117,-0.5628,-0.6308,-0.6993,-0.7563,-0.8268,-0.8804,-0.8804,-0.8804,-0.8804,-0.8804,-0.8804,-0.8738,-0.8543,-0.8449,-0.8322,-0.807,-0.7952,-0.7654,-0.6984,-0.726,-0.7249,-0.6572,-0.6806,-0.7,-0.7,-0.7,-0.7,-0.7,-0.7,-0.7,-0.7,-0.733,-0.7513,-0.7513,-0.7558,-0.7462,-0.7213,-0.714,-0.7066,-0.7021,-0.7546,-0.7877,0.1293,0.1224,0.1075,0.2148,0.1989,0.1552,0.1552,0.0,0.0,0.0,0.0,0.0,0.0,0.0,0.0,0.0,0.0,0.0,0.0,0.0,0.0,0.0,0.0,0.0,0.0,0.0,0.0,0.0,0.0,0.0,0.0,0.0,0.0,0.0,0.0,0.0,0.0,0.0,0.0,0.0,0.0,0.0,0.0,0.0,0.0,0.0,0.0,0.0,-0.2435,-0.3246,-0.4053,-0.4701,-0.4648,-0.4614,-0.4604,-0.4522,-0.4491,-0.4491,-0.4491,-0.4491,-0.4491,-0.4491,-0.4491,-0.4491,-0.4491,-0.4491,-0.4491,-0.4491,-0.4491,-0.4598,-0.4948,-0.5574,-0.6199,-0.6605,-0.7503,-0.8209,-0.7857,-0.8049,-0.8182,-0.7857,-0.7978,-0.8055,-0.7911,-0.772,-0.7618,-0.7696,-0.7374,-0.7029,-0.6821,-0.7065,-0.7093,-0.6617,-0.6831,-0.7,-0.7,-0.6768,-0.6725,-0.6979,-0.7,-0.7,-0.7,-0.7174,-0.7261,-0.7261,-0.7261,-0.7181,-0.7,-0.7,-0.7,-0.7,-0.7342,-0.7489,0.1535,0.1962,0.2276,0.3145,0.335,0.3397,0.3345,0.0,0.0,0.0,0.0,0.0,0.0,0.0,0.0,0.0,0.0,0.0,0.0,0.0,0.0,0.0,0.0,0.0,0.0,0.0,0.0,0.0,0.0,0.0,0.0,0.0066,0.0,0.0,0.0,0.0,0.0,0.0,0.0,0.0,0.0,0.0,0.0,0.0,0.0,0.0,0.0,0.0,-0.2124,-0.314,-0.386,-0.4322,-0.446,-0.4491,-0.4491,-0.4491,-0.4491,-0.4491,-0.4491,-0.4491,-0.4491,-0.4491,-0.4491,-0.4491,-0.4491,-0.4491,-0.4491,-0.4491,-0.4491,-0.4515,-0.4625,-0.5085,-0.5538,-0.5651,-0.6632,-0.7369,-0.6723,-0.7101,-0.7331,-0.6704,-0.6885,-0.7135,-0.7055,-0.6807,-0.6752,-0.723,-0.6734,-0.6435,-0.6698,-0.6831,-0.681,-0.6634,-0.6677,-0.6747,-0.6747,-0.6322,-0.6258,-0.6704,-0.6747,-0.6789,-0.6873,-0.6958,-0.7,-0.7,-0.7,-0.7,-0.7,-0.7,-0.7,-0.7,-0.7,-0.7,0.2484,0.3195,0.3304,0.3173,0.323,0.3301,0.0,0.0,0.0,0.0,0.0,0.0,0.0,0.0,0.0,0.0,0.0,0.0,0.0,0.0,0.0,0.0,0.0,0.0,0.0,0.0,0.0,0.0,0.0,0.0,0.0,0.0,0.0,0.0,0.0,0.0,0.0,0.0,0.0,0.0,0.0,0.0,0.0,0.0,0.0,0.0,0.0,-0.1188,-0.1378,-0.2781,-0.3416,-0.3539,-0.4236,-0.4491,-0.4491,-0.4491,-0.4491,-0.4491,-0.4491,-0.4491,-0.4491,-0.4491,-0.4491,-0.4491,-0.4491,-0.4491,-0.4491,-0.4491,-0.4491,-0.4625,-0.5191,-0.5433,-0.5651,-0.6285,-0.6615,-0.675,-0.6615,-0.6696,-0.6689,-0.6473,-0.6483,-0.6409,-0.6016,-0.6309,-0.6557,-0.6424,-0.6672,-0.655,-0.5669,-0.6002,-0.5932,-0.4908,-0.5255,-0.5561,-0.5561,-0.5475,-0.548,-0.5561,-0.5561,-0.5782,-0.6307,-0.6747,-0.7,-0.7,-0.7,-0.7,-0.7,-0.7,-0.7,-0.7,-0.7,-0.7,0.2605,0.3322,0.3664,0.4706,0.5111,0.5198,0.0,0.0,0.0,0.0,0.0,0.0,0.0,0.0,0.0,0.0,0.0,0.0,0.0,0.0,0.0,0.0,0.0,0.0,0.0,0.0,0.0,0.0,0.0,0.0,0.0,0.0,0.0,0.0,0.0,0.0,0.0,0.0,0.0,0.0,0.0,0.0,0.0,0.0,0.0,-0.0028,0.0,-0.0727,-0.1146,-0.184,-0.2593,-0.3345,-0.3735,-0.4153,-0.4491,-0.4491,-0.4491,-0.4491,-0.4491,-0.4491,-0.4491,-0.4491,-0.4491,-0.4491,-0.4491,-0.4491,-0.4491,-0.4491,-0.4491,-0.457,-0.4869,-0.4948,-0.503,-0.5386,-0.5741,-0.59,-0.5555,-0.5737,-0.5842,-0.5314,-0.5425,-0.5509,-0.5209,-0.531,-0.549,-0.569,-0.5647,-0.5535,-0.5324,-0.5545,-0.5502,-0.4957,-0.513,-0.5303,-0.5303,-0.5,-0.4957,-0.5281,-0.5303,-0.5416,-0.5701,-0.5953,-0.6231,-0.6556,-0.6562,-0.6704,-0.7,-0.7,-0.7,-0.7,-0.7,-0.7,0.2522,0.3189,0.3773,0.5861,0.0,0.6729,0.6563,0.0,0.0,0.0,0.0,0.0,0.0,0.0,0.0,0.0,0.0,0.0,0.0,0.0,0.0,0.0,0.0,0.0,0.0,0.0,0.0,0.0,0.0,0.0,0.0,0.0,0.0265,0.0265,0.0257,0.0336,0.0504,0.0504,0.0336,0.0,0.0,0.0,0.0,0.0,0.0,0.0,0.0,-0.0308,-0.0866,-0.1034,-0.1758,-0.2815,-0.3231,-0.3846,-0.4491,-0.4491,-0.4491,-0.4491,-0.4491,-0.4491,-0.4491,-0.4491,-0.4491,-0.4491,-0.4491,-0.4491,-0.4491,-0.4491,-0.4491,-0.4491,-0.4491,-0.4491,-0.4491,-0.4491,-0.4893,-0.5097,-0.4556,-0.4841,-0.4992,-0.4252,-0.4392,-0.459,-0.4461,-0.442,-0.4565,-0.5022,-0.4826,-0.4718,-0.5043,-0.5087,-0.5043,-0.4918,-0.4896,-0.4896,-0.4896,-0.4482,-0.4417,-0.4874,-0.5022,-0.5151,-0.5303,-0.5437,-0.5782,-0.6371,-0.6392,-0.6577,-0.7,-0.7,-0.7,-0.7,-0.7,-0.7,0.2522,0.3114,0.3592,0.5566,0.0,0.0,0.6627,0.0,0.0,0.0,0.0,0.0,0.0,0.0,0.0,0.0,0.0,0.0,0.0,0.0,0.0,0.0,0.0,0.0,0.0,0.0,0.0,0.0,0.0,0.0,0.0,0.0,0.0,0.1028,0.1024,0.1341,0.2037,0.2035,0.1369,0.0,0.0,0.0,0.0,0.0,0.0,0.0,0.0,-0.0028,-0.014,-0.0811,-0.1174,-0.1396,-0.276,-0.379,-0.4491,-0.4491,-0.4491,-0.4491,-0.4491,-0.4491,-0.4491,-0.4491,-0.4491,-0.4491,-0.4491,-0.4491,-0.4491,-0.4491,-0.4491,-0.4491,-0.4491,-0.4491,-0.4491,-0.4491,-0.4546,-0.4508,-0.4264,-0.4263,-0.4201,-0.388,-0.3863,-0.3831,-0.3708,-0.4082,-0.4413,-0.4456,-0.4913,-0.5043,-0.4539,-0.4456,-0.4264,-0.3774,-0.3733,-0.3733,-0.3733,-0.3689,-0.3667,-0.3711,-0.418,-0.4718,-0.5286,-0.583,-0.6392,-0.6937,-0.6937,-0.6958,-0.7,-0.7,-0.7,-0.7,-0.7,-0.7,0.2431,0.3042,0.36,0.5667,0.0,0.0,0.0,0.0,0.0,0.0,0.0,0.0,0.0,0.0,0.0,0.0,0.0,0.0,0.0,0.0,0.0,0.0,0.0,0.0,0.0,0.0,0.0,0.0,0.0,0.0,0.0,0.0,0.0,0.1792,0.1798,0.1925,0.2202,0.2202,0.1925,0.1369,0.0895,0.0448,0.0,0.0,0.0,0.0,0.0,0.0,-0.0028,-0.0308,-0.0699,-0.1257,-0.276,-0.3511,-0.3818,-0.4322,-0.4491,-0.4491,-0.4491,-0.4491,-0.4491,-0.4491,-0.4491,-0.4491,-0.4491,-0.4491,-0.4491,-0.4491,-0.4491,-0.4491,-0.4491,-0.4491,-0.4491,-0.4491,-0.4395,-0.4287,-0.4207,-0.4146,-0.4018,-0.3832,-0.3792,-0.3744,-0.3628,-0.3774,-0.3902,-0.3902,-0.4096,-0.4162,-0.3924,-0.3902,-0.3818,-0.3622,-0.3604,-0.3604,-0.3604,-0.3604,-0.3604,-0.3604,-0.3796,-0.4008,-0.4228,-0.4469,-0.4836,-0.5379,-0.5384,-0.5578,-0.5947,-0.6322,-0.6498,-0.652,-0.6852,-0.681,0.238,0.2926,0.3479,0.0,0.0,0.0,0.0,0.0,0.0,0.0,0.0,0.0,0.0,0.0,0.0,0.0,0.0,0.0,0.0,0.0,0.0,0.0,0.0,0.0,0.0,0.0,0.0,0.0,0.0,0.0,0.0,0.0,0.0,0.0,0.0,0.2704,0.2926,0.2926,0.2788,0.2538,0.1814,0.1062,0.0336,0.0112,0.0,0.0,0.0,0.0,0.0,0.0,-0.0448,-0.1202,-0.2259,-0.2788,-0.3037,-0.3818,-0.4125,-0.4181,-0.4405,-0.4491,-0.4491,-0.4491,-0.4491,-0.4491,-0.4491,-0.4491,-0.4491,-0.4491,-0.4491,-0.4481,-0.4433,-0.4395,-0.4395,-0.4395,-0.4257,-0.4136,-0.4089,-0.3998,-0.3904,-0.3754,-0.3747,-0.3716,-0.3617,-0.3604,-0.3604,-0.3604,-0.3604,-0.3604,-0.3604,-0.3604,-0.3604,-0.3604,-0.3604,-0.3604,-0.3604,-0.3559,-0.3529,-0.3507,-0.3463,-0.3562,-0.3832,-0.3858,-0.4091,-0.4602,-0.4623,-0.4803,-0.5184,-0.5582,-0.5794,-0.5794,-0.6216,-0.6211,0.2376,0.2812,0.3194,0.0,0.0,0.0,0.0,0.0,0.0,0.0,0.0,0.0,0.0,0.0,0.0,0.0,0.0,0.0,0.0,0.0,0.0,0.0,0.0,0.0,0.0,0.0,0.0,0.0,0.0,0.0,0.0,0.0,0.0,0.0,0.0,0.0,0.4491,0.4491,0.4098,0.3314,0.2565,0.1813,0.1062,0.0336,0.0,0.0,0.0,0.0,0.0,0.0,-0.042,-0.109,-0.109,-0.1535,-0.2286,-0.301,-0.3345,-0.3483,-0.4236,-0.4487,-0.4487,-0.4487,-0.4491,-0.4491,-0.4491,-0.4491,-0.4487,-0.4487,-0.4487,-0.4453,-0.4257,-0.419,-0.419,-0.4194,-0.4102,-0.395,-0.3826,-0.3788,-0.3771,-0.3628,-0.3604,-0.3604,-0.3604,-0.3604,-0.3604,-0.3604,-0.3604,-0.3604,-0.3604,-0.3604,-0.3604,-0.3604,-0.3604,-0.3604,-0.3604,-0.3482,-0.3372,-0.3306,-0.3165,-0.349,-0.4344,-0.4382,-0.4614,-0.507,-0.5085,-0.5021,-0.4877,-0.4877,-0.4896,-0.4907,-0.5026,-0.5085,0.2241,0.2809,0.0,0.0,0.0,0.0,0.0,0.0,0.0,0.0,0.0,0.0,0.0,0.0,0.0,0.0,0.0,0.0,0.0,0.0,0.0,0.0,0.0,0.0,0.0,0.0,0.0,0.0,0.0,0.0,0.0,0.0,0.0,0.0,0.0,0.0,0.4491,0.4491,0.4377,0.4125,0.3345,0.2313,0.1062,0.0336,0.0,0.0,0.0,0.0,0.0,0.0,-0.014,-0.0364,-0.0895,-0.1229,-0.1507,-0.2259,-0.2538,-0.2593,-0.2815,-0.2871,-0.2871,-0.2871,-0.3262,-0.3735,-0.3735,-0.3978,-0.4284,-0.4284,-0.4233,-0.4141,-0.4075,-0.3984,-0.393,-0.4038,-0.3947,-0.3846,-0.3802,-0.3737,-0.3655,-0.361,-0.3604,-0.3604,-0.3604,-0.3604,-0.3604,-0.3604,-0.3604,-0.3604,-0.3604,-0.3604,-0.3604,-0.3604,-0.3604,-0.3604,-0.3604,-0.3439,-0.333,-0.3306,-0.3165,-0.322,-0.3466,-0.349,-0.3544,-0.3692,-0.3692,-0.3668,-0.3636,-0.4057,-0.4266,-0.4271,-0.4848,-0.4868,0.2243,0.0,0.0,0.0,0.0,0.0,0.0,0.0,0.0,0.0,0.0,0.0,0.0,0.0,0.0,0.0,0.0,0.0,0.0,0.0,0.0,0.0,0.0,0.0,0.0,0.0,0.0,0.0,0.0,0.0,0.0,0.0,0.0,0.0,0.0,0.0,0.4491,0.4491,0.4491,0.4491,0.368,0.2676,0.1507,0.0783,0.028,0.0,0.0,0.0,0.0,0.0,0.0,-0.0056,-0.0476,-0.0671,-0.0755,-0.148,-0.1758,-0.1814,-0.2093,-0.2202,-0.2197,-0.2196,-0.254,-0.2916,-0.2931,-0.3143,-0.3456,-0.3691,-0.3707,-0.368,-0.3871,-0.386,-0.3816,-0.3907,-0.3816,-0.373,-0.373,-0.3662,-0.3604,-0.3604,-0.3604,-0.3604,-0.3604,-0.3604,-0.3604,-0.3604,-0.3604,-0.3604,-0.3604,-0.3604,-0.3512,-0.3262,-0.3464,-0.3397,-0.2922,-0.2947,-0.2872,-0.264,-0.2478,-0.2466,-0.2652,-0.2946,-0.3074,-0.302,-0.3017,-0.2986,-0.2947,-0.3307,-0.3489,-0.3493,-0.3988,-0.406,0.0,0.0,0.0,0.0,0.0,0.0,0.0,0.0,0.0,0.0,0.0,0.0,0.0,0.0,0.0,0.0,0.0,0.0,0.0,0.0,0.0,0.0,0.0,0.0,0.0,0.0,0.0,0.0,0.0,0.0,0.0,0.0,0.0,0.0,0.0,0.0,0.4491,0.4491,0.4491,0.0,0.3763,0.301,0.2286,0.148,0.0699,0.0,0.0,0.0,0.0,0.0,0.0,0.0,0.0,0.0,-0.0084,-0.0755,-0.1006,-0.1089,-0.1779,-0.2,-0.1988,-0.2,-0.2055,-0.2095,-0.2109,-0.2184,-0.2378,-0.2926,-0.3117,-0.3232,-0.3664,-0.3771,-0.3771,-0.3771,-0.3696,-0.3604,-0.3604,-0.3604,-0.3604,-0.3604,-0.3604,-0.3604,-0.3604,-0.3556,-0.349,-0.3445,-0.3445,-0.3445,-0.3445,-0.3445,-0.3233,-0.2681,-0.3108,-0.2989,-0.1897,-0.2173,-0.2192,-0.1641,-0.1415,-0.149,-0.1911,-0.2628,-0.2962,-0.2893,-0.289,-0.2818,-0.2696,-0.2696,-0.2696,-0.2699,-0.2839,-0.2941,0.0,0.1772,0.0,0.0,0.0,0.0,0.0,0.0,0.0,0.0,0.0,0.0,0.0,0.0,0.0,0.0,0.0,0.0,0.0,0.0,0.0,0.0,0.0,0.0,0.0,0.0,0.0,0.0,0.0,0.0,0.0,0.0,0.0,0.0,0.0,0.4491,0.4491,0.4491,0.4491,0.0,0.4322,0.3846,0.3095,0.173,0.0699,0.0,0.0,0.0,0.0,0.0,0.0,0.0,0.0,0.0,-0.0028,-0.0168,-0.0224,-0.0251,-0.0407,-0.0484,-0.0481,-0.0465,-0.0868,-0.1349,-0.1338,-0.1996,-0.2785,-0.2905,-0.3196,-0.3507,-0.361,-0.3648,-0.3648,-0.3648,-0.3624,-0.3604,-0.3604,-0.3604,-0.3604,-0.3604,-0.3604,-0.3604,-0.3604,-0.3214,-0.2743,-0.2253,-0.2186,-0.2186,-0.2186,-0.2186,-0.2137,-0.1999,-0.212,-0.2082,-0.1828,-0.1802,-0.1746,-0.1599,-0.1415,-0.1338,-0.144,-0.1955,-0.2401,-0.273,-0.2747,-0.273,-0.2696,-0.2696,-0.2696,-0.2699,-0.2839,-0.2721,0.0,0.0,0.0,0.0,0.0,0.0,0.0,0.0,0.0,0.0,0.0,0.0,0.0,0.0,0.0,0.0,0.0,0.0,0.0,0.0,0.0,0.0,0.0,0.0,0.0,0.0,0.0,0.0,0.0,0.0,0.0,0.0,0.0,0.0,0.4491,0.4491,0.4491,0.4491,0.4491,0.4491,0.4491,0.4098,0.3287,0.1786,0.0699,0.0,0.0,0.0,0.0,0.0,0.0,0.0,0.0,0.0,0.0,0.0,0.0,0.0,0.0,0.0,0.0,0.0,-0.0271,-0.0563,-0.0577,-0.1011,-0.1569,-0.1867,-0.2112,-0.2368,-0.2657,-0.2746,-0.2746,-0.2746,-0.2968,-0.317,-0.317,-0.2948,-0.2746,-0.2746,-0.2746,-0.2746,-0.2746,-0.2477,-0.2162,-0.1851,-0.1808,-0.1808,-0.1808,-0.1797,-0.1694,-0.1405,-0.1621,-0.1568,-0.0984,-0.1142,-0.115,-0.0859,-0.0733,-0.0771,-0.1007,-0.1243,-0.1577,-0.2026,-0.2026,-0.2026,-0.2026,-0.2026,-0.2026,-0.2026,-0.2104,-0.2056,0.0,0.0,0.0,0.0,0.0,0.0,0.0,0.0,0.0,0.0,0.0,0.0,0.0,0.0,0.0,0.0,0.0,0.0,0.0,0.0,0.0,0.0,0.0,0.0,0.0,0.0,0.0,0.0,0.0,0.0,0.0,0.0,0.4491,0.4491,0.4491,0.4491,0.4491,0.4491,0.4491,0.4491,0.4491,0.407,0.3259,0.2024,0.0974,0.0196,0.0056,0.0,0.0,0.0,0.0,0.0,0.0,0.0,0.0,0.0,0.0,0.0,0.0,0.0,0.0,0.0,0.0,0.0,0.0,-0.0067,-0.0269,-0.0761,-0.0984,-0.1163,-0.1673,-0.1808,-0.1808,-0.1808,-0.2095,-0.2428,-0.2517,-0.2162,-0.1808,-0.1808,-0.1808,-0.1762,-0.1652,-0.1652,-0.1607,-0.1496,-0.1496,-0.1492,-0.1482,-0.1497,-0.129,-0.08,-0.1184,-0.1078,-0.009,-0.0466,-0.0527,-0.0034,0.0,-0.0168,-0.0571,-0.0571,-0.0738,-0.1071,-0.1221,-0.1305,-0.1305,-0.1305,-0.1305,-0.1305,-0.1305,-0.1355,0.0,0.0,0.0,0.0,0.0,0.0,0.0,0.0,0.0,0.0,0.0,0.0,0.0,0.0,0.0,0.0,0.0,0.0,0.0,0.0,0.0,0.0,0.0,0.0,0.0,0.0,0.0,0.0,0.0,0.0,0.0,0.4491,0.4491,0.4491,0.4491,0.4491,0.4491,0.4491,0.4491,0.4491,0.4491,0.407,0.3284,0.2979,0.2147,0.0923,0.028,0.0,0.0,0.0,0.0,0.0,0.0,0.0,0.0,0.0,0.0,0.0,0.0,0.0,0.0,0.0,0.0,0.0,0.0,-0.0359,-0.0806,-0.0873,-0.1274,-0.1697,-0.1784,-0.1808,-0.1808,-0.1808,-0.1451,-0.1274,-0.1808,-0.1851,-0.1808,-0.1808,-0.1808,-0.163,-0.1118,-0.1029,-0.0851,-0.0314,-0.0247,-0.0243,-0.0235,-0.0232,-0.0204,-0.0131,-0.0184,-0.018,-0.0017,-0.0068,-0.0085,0.0,0.0,-0.0034,-0.0084,-0.0101,-0.0118,-0.0168,-0.092,-0.1305,-0.1305,-0.1305,-0.1305,-0.1305,-0.1305,-0.1127,0.0,0.0,0.0,0.0,0.0,0.0,0.0,0.0,0.0,0.0,0.0,0.0,0.0,0.0,0.0,0.0,0.0,0.0,0.0,0.0,0.0,0.0,0.0,0.0,0.0,0.0,0.0,0.0,0.0,0.0,0.5691,0.5691,0.5496,0.5085,0.5054,0.4869,0.4519,0.4491,0.4491,0.4491,0.4491,0.4252,0.3794,0.3313,0.2382,0.1085,0.0666,0.0317,0.0,0.0,0.0,0.0,0.0,0.0,0.0,0.0,0.0,0.0,0.0,0.0,0.0,0.0,0.0,0.0,0.0,-0.018,-0.0404,-0.0404,-0.0583,-0.0784,-0.0784,-0.0784,-0.0784,-0.0784,-0.0583,-0.0471,-0.0739,-0.0784,-0.0784,-0.0784,-0.0784,-0.0716,-0.0448,-0.0404,-0.0314,-0.0045,0.0,0.0,0.0,0.0,0.0,0.0,0.0,0.0,0.0,0.0,0.0,0.0,0.0,0.0,0.0,0.0,0.0,0.0,-0.0369,-0.057,-0.057,-0.057,-0.057,-0.057,-0.057,-0.0469,0.0,0.0,0.0,0.0,0.0,0.0,0.0,0.0,0.0,0.0,0.0,0.0,0.0,0.0,0.0,0.0,0.0,0.0,0.0,0.0,0.0,0.0,0.0,0.0,0.0,0.0,0.0,0.0,0.0,0.0,0.6588,0.6588,0.634,0.5787,0.5577,0.5209,0.4701,0.4476,0.4395,0.4433,0.4395,0.4294,0.4137,0.3551,0.2656,0.152,0.1092,0.0554,0.0,0.0,0.0,0.0,0.0,0.0,0.0,0.0,0.0,0.0,0.0,0.0,0.0,0.0,0.0,0.0,0.0,0.0,0.0,0.0,0.0,0.0,0.0,0.0,0.0,0.0,0.0,0.0,0.0,0.0,0.0,0.0,0.0,0.0,0.0,0.0,0.0,0.0,0.0,0.0,0.0,0.0,0.0,0.0,0.0103,0.0185,0.0185,0.0269,0.0335,0.0335,0.0235,0.0185,0.0185,0.0067,0.0,0.0,0.0,0.0,0.0,0.0,0.0,0.0,0.0,0.0067,0.0,0.0,0.0,0.0,0.0,0.0,0.0,0.0,0.0,0.0,0.0,0.0,0.0,0.0,0.0,0.0,0.0,0.0,0.0,0.0,0.0,0.0,0.0,0.0,0.0,0.0,0.0,0.0,0.0,0.0,0.6588,0.6588,0.6588,0.6534,0.5751,0.5293,0.5267,0.4441,0.4089,0.4204,0.4085,0.4014,0.4001,0.3832,0.3411,0.2723,0.1463,0.0554,0.0,0.0,0.0,0.0,0.0,0.0,0.0,0.0,0.0,0.0,0.0,0.0,0.0,0.0,0.0,0.0,0.0,0.0,0.0,0.0,0.0,0.0,0.0,0.0,0.0,0.0,0.0,0.0,0.0,0.0,0.0,0.0,0.0,0.0,0.0,0.0,0.0,0.0,0.0,0.0,0.0,0.0,0.0,0.0,0.0404,0.0655,0.0655,0.1005,0.1238,0.1238,0.0873,0.0655,0.0655,0.0235,0.0,0.0,0.0,0.0,0.0,0.0,0.0,0.0,0.0,0.0235,0.0,0.0,0.0,0.0,0.0,0.0,0.0,0.0,0.0,0.0,0.0,0.0,0.0,0.0,0.0,0.0,0.0,0.0,0.0,0.0,0.0,0.0,0.0,0.0,0.0,0.0,0.0,0.0,0.0,0.0,0.8017,0.8017,0.7726,0.7067,0.6375,0.5498,0.4477,0.4146,0.4021,0.4075,0.4021,0.3944,0.3873,0.3816,0.3433,0.2738,0.2269,0.1493,0.0584,0.0576,0.0347,0.0,0.0,0.0,0.0,0.0,0.0,0.0,0.0,0.0,0.0,0.0,0.0,0.0,0.0,0.0,0.0,0.0,0.0,0.0,0.0,0.0,0.009,0.0493,0.0873,0.1163,0.1163,0.0538,0.0,0.0,0.0,0.0,0.0,0.0,0.0105,0.0399,0.0197,0.0205,0.0765,0.0601,0.0549,0.0805,0.0989,0.1089,0.1089,0.1221,0.1305,0.1305,0.1173,0.1089,0.1089,0.0922,0.0838,0.0838,0.0838,0.0553,0.0,0.0303,0.0454,0.0454,0.0721,0.0922,-0.4614,0.0,0.0,0.0,0.0,0.0,0.0,0.0,0.0,0.0,0.0,0.0,0.0,0.0,0.0,0.0,0.0,0.0,0.0,0.0,0.0,0.0,0.0,0.0,0.0,0.0,0.0,0.0,0.0,0.0,0.8804,0.8711,0.8088,0.6813,0.6378,0.5446,0.3944,0.3897,0.3897,0.3941,0.3894,0.3819,0.3744,0.3744,0.3459,0.3012,0.3012,0.221,0.0895,0.0895,0.0538,0.0,0.0,0.0,0.0022,0.0224,0.0292,0.0337,0.0538,0.0605,0.056,0.0359,0.0292,0.0269,0.0067,0.0,0.0045,0.0247,0.0292,0.0359,0.056,0.0605,0.0694,0.1118,0.1518,0.1808,0.1808,0.1163,0.0605,0.0605,0.0605,0.0605,0.0605,0.0577,0.0637,0.0963,0.068,0.0637,0.1219,0.1064,0.1007,0.1271,0.144,0.154,0.154,0.1673,0.1773,0.1773,0.1623,0.154,0.154,0.139,0.137,0.1534,0.1388,0.1086,0.0668,0.0821,0.0906,0.0906,0.1336,0.17,0.0,0.0,0.0,0.0,0.0,0.0,0.0,0.0,0.0,0.0,0.0,0.0,0.0,0.0,0.0,0.0,0.0,0.0,0.0,0.0,0.0,0.0,0.0,0.0,0.0,0.0,0.0,0.0,0.0,0.8824,0.8817,0.8536,0.7553,0.5784,0.5695,0.5093,0.3832,0.3672,0.3672,0.3785,0.3668,0.3604,0.3604,0.3604,0.3604,0.3604,0.3604,0.2591,0.0962,0.0962,0.0583,0.0022,0.0022,0.0022,0.0067,0.0672,0.0895,0.0984,0.1585,0.1808,0.1697,0.1118,0.0918,0.0828,0.0224,0.0045,0.018,0.0761,0.0918,0.1051,0.1652,0.1808,0.183,0.183,0.183,0.1852,0.1852,0.1852,0.1852,0.1808,0.1806,0.1803,0.1803,0.168,0.1602,0.1602,0.1435,0.1305,0.1338,0.1321,0.1321,0.1338,0.1742,0.2014,0.2014,0.243,0.2696,0.2696,0.2281,0.2031,0.2031,0.1607,0.1584,0.2054,0.1617,0.1601,0.2054,0.1584,0.1338,0.1355,0.1828,0.2514,-0.4491,0.0,0.0,0.0,0.0,0.0,0.0,0.0,0.0,0.0,0.0,0.0,0.0,0.0,0.0,0.0,0.0,0.0,0.0,0.0,0.0,0.0,0.0,0.0,0.0,0.0,0.0,0.0,0.9891,0.9434,0.9235,0.83,0.7314,0.6378,0.5747,0.5042,0.4244,0.3817,0.3621,0.3662,0.3621,0.3604,0.3604,0.3604,0.3604,0.3604,0.3604,0.3059,0.2208,0.2208,0.1585,0.065,0.065,0.0381,0.0067,0.0672,0.0895,0.0984,0.1585,0.1808,0.1762,0.1607,0.1541,0.1518,0.1362,0.1297,0.134,0.1496,0.1541,0.1585,0.1762,0.2117,0.245,0.245,0.279,0.3106,0.3106,0.3106,0.2837,0.1964,0.1721,0.1645,0.1645,0.1504,0.1501,0.1831,0.1556,0.1538,0.2225,0.2011,0.1945,0.2275,0.243,0.2513,0.2513,0.263,0.2696,0.2696,0.258,0.2643,0.2933,0.281,0.2975,0.3437,0.3323,0.3323,0.3437,0.2679,0.2316,0.2332,0.3089,0.3572,0.0,0.0,0.0,0.0,0.0,0.0,0.0,-0.2301,0.0,0.0,0.0,0.0,0.0,0.0,0.0,0.0,0.0,0.0,0.0,0.0,0.0,0.0,0.0,0.0,0.0,0.0,0.0,0.0,1.0338,0.9485,0.8825,0.7976,0.7163,0.6452,0.5946,0.5394,0.4783,0.4465,0.4316,0.4316,0.4052,0.3943,0.3924,0.3707,0.3604,0.3604,0.3604,0.3398,0.3078,0.3078,0.2364,0.1274,0.1274,0.1051,0.0828,0.1429,0.1652,0.1741,0.2344,0.2546,0.2499,0.2253,0.2184,0.2117,0.1873,0.1808,0.1851,0.2095,0.2364,0.2546,0.2546,0.2812,0.3078,0.3078,0.335,0.3604,0.3604,0.3527,0.3264,0.2565,0.2366,0.2291,0.2226,0.2085,0.2069,0.2339,0.2097,0.2139,0.2854,0.2706,0.2722,0.3187,0.3237,0.3237,0.3237,0.3237,0.3155,0.297,0.3138,0.3266,0.329,0.349,0.3805,0.4248,0.4091,0.4091,0.4248,0.3572,0.3323,0.3498,0.4016,0.4436,-0.4491,-0.4491,0.0,0.0,0.0,0.0,-0.3446,-0.2848,0.0,0.0,0.0,0.0,0.0,0.0,0.0,0.0,0.0,0.0,0.0,0.0,0.0,0.0,0.0,0.0,0.0,0.0,1.1796,1.1751,1.0456,0.913,0.7926,0.7589,0.7098,0.6313,0.6227,0.5943,0.5416,0.5324,0.5303,0.5281,0.4696,0.4408,0.4391,0.3836,0.3604,0.3604,0.3604,0.3604,0.36,0.3583,0.2912,0.1895,0.1895,0.1851,0.1873,0.2472,0.2686,0.2769,0.3391,0.359,0.3488,0.2962,0.2807,0.2696,0.2164,0.2008,0.2119,0.2652,0.3192,0.3604,0.3604,0.3604,0.3604,0.3604,0.3604,0.3597,0.358,0.3425,0.3296,0.3266,0.3259,0.3216,0.3101,0.2996,0.2954,0.2954,0.2887,0.2973,0.3327,0.3376,0.3544,0.3961,0.3993,0.3993,0.3993,0.3993,0.3826,0.3409,0.3772,0.3842,0.3453,0.3837,0.4264,0.4666,0.4328,0.4344,0.474,0.4296,0.428,0.4682,0.4724,0.5163,-0.4491,-0.4491,-0.4491,-0.4491,0.0,0.0,0.0,-0.3893,0.0,0.0,0.0,0.0,0.0,0.0,0.0,0.0,0.0,0.0,0.0,0.0,0.0,0.0,0.0,0.0,0.0,0.0,1.1712,1.1491,0.9786,0.8399,0.7607,0.7275,0.7017,0.6852,0.6435,0.6136,0.6029,0.5545,0.5303,0.5281,0.4696,0.4408,0.4391,0.3836,0.3604,0.3604,0.3604,0.3604,0.3593,0.3488,0.3071,0.2517,0.2517,0.2228,0.1873,0.2472,0.264,0.2644,0.3359,0.3497,0.3373,0.3403,0.342,0.3398,0.3287,0.3243,0.3265,0.3398,0.3512,0.3604,0.3604,0.3604,0.3604,0.3604,0.3604,0.3548,0.3401,0.3329,0.3239,0.3023,0.2976,0.2966,0.2936,0.3097,0.3215,0.3215,0.3521,0.3777,0.3858,0.3858,0.3891,0.3993,0.3993,0.3993,0.3993,0.3993,0.3961,0.3875,0.3945,0.4102,0.4339,0.4441,0.4698,0.5151,0.5087,0.5239,0.5649,0.4861,0.4714,0.5166,0.55,0.5743,-0.4491,-0.4491,-0.4491,-0.4491,0.0,0.0,0.0,0.0,0.0,0.0,0.0,0.0,0.0,0.0,0.0,0.0,0.0,0.0,0.0,0.0,0.0,0.0,0.0,0.0,0.0,0.0,1.0656,1.043,0.9352,0.8341,0.7542,0.7188,0.7,0.7,0.6732,0.6605,0.6605,0.6295,0.614,0.614,0.5561,0.513,0.4826,0.4264,0.3858,0.36,0.3497,0.3441,0.3431,0.33,0.3114,0.2903,0.2903,0.2716,0.2488,0.2778,0.2906,0.2962,0.3329,0.3441,0.3455,0.3576,0.3604,0.3604,0.3604,0.3604,0.3604,0.3604,0.3604,0.3604,0.3604,0.3524,0.3441,0.3441,0.3405,0.3331,0.3212,0.3331,0.3403,0.3274,0.3351,0.3376,0.3132,0.3411,0.3642,0.3642,0.3842,0.4075,0.428,0.4296,0.4393,0.4618,0.465,0.465,0.465,0.465,0.4554,0.4312,0.4522,0.473,0.4887,0.5131,0.5446,0.5882,0.5898,0.6006,0.6198,0.5766,0.5673,0.5898,0.6274,0.6577,0.0,0.0,0.0,0.0,0.0,-0.435,0.0,0.0,0.0,0.0,0.0,0.0,0.0,0.0,0.0,0.0,0.0,0.0,0.0,0.0,0.0,0.0,0.0,0.0,0.0,0.0,0.8959,0.8897,0.8584,0.81,0.7432,0.7154,0.7,0.7,0.7,0.7,0.7,0.7,0.7,0.7,0.6456,0.5873,0.5281,0.4656,0.4064,0.3527,0.335,0.3262,0.3252,0.3121,0.306,0.3064,0.3091,0.3101,0.3101,0.3101,0.3159,0.3266,0.3296,0.3408,0.3541,0.3593,0.3604,0.3604,0.3604,0.3604,0.3604,0.3604,0.3604,0.3604,0.3604,0.3487,0.3364,0.3416,0.3353,0.3284,0.3296,0.3533,0.3708,0.3691,0.3913,0.3972,0.3507,0.3821,0.4118,0.4118,0.4188,0.4361,0.4698,0.473,0.4874,0.5261,0.5372,0.5419,0.5419,0.5419,0.5286,0.4988,0.5255,0.5421,0.5456,0.5813,0.6175,0.6503,0.6503,0.657,0.6736,0.6736,0.6691,0.6607,0.697,0.7376,0.0,0.0,0.0,0.0,-0.4602,0.0,0.0,0.0,0.0,0.0,0.0,0.0,0.0,0.0,0.0,0.0,0.0,0.0,0.0,0.0,0.0,0.0,0.0,0.0,0.0,0.0,0.0,0.7062,0.6734,0.6658,0.7032,0.702,0.7,0.7,0.7,0.7,0.7,0.7,0.7,0.7,0.6456,0.5873,0.5276,0.4542,0.3891,0.3326,0.3195,0.3128,0.3114,0.2973,0.2916,0.2929,0.3054,0.3101,0.3101,0.3101,0.3111,0.3148,0.3259,0.3319,0.3356,0.3534,0.3604,0.3604,0.3604,0.3604,0.3604,0.3604,0.3604,0.3604,0.3604,0.359,0.3626,0.3871,0.3902,0.3938,0.4049,0.4115,0.4095,0.3981,0.4269,0.4409,0.3988,0.4264,0.4538,0.4538,0.489,0.5166,0.5214,0.5214,0.5246,0.5293,0.5617,0.5836,0.5836,0.5836,0.596,0.6267,0.5998,0.5991,0.6343,0.6404,0.6457,0.6503,0.6503,0.6856,0.7569,0.7569,0.735,0.6952,0.7409,0.781,0.0,0.0,0.0,0.0,0.0,0.0,-0.5591,0.0,-0.6041,0.0,0.0,0.0,0.0,0.0,0.0,0.0,0.0,0.0,0.0,0.0,0.0,0.0,0.0,0.0,0.0,0.0,0.0,0.0,0.0,0.6594,0.6992,0.7,0.7,0.7,0.7,0.7,0.7,0.7,0.7,0.7,0.6774,0.6154,0.5168,0.4872,0.4161,0.3169,0.3044,0.298,0.2969,0.2839,0.2778,0.2781,0.2842,0.292,0.298,0.298,0.3087,0.3222,0.3286,0.3387,0.3493,0.358,0.3604,0.3604,0.3604,0.3604,0.3667,0.3987,0.4071,0.4136,0.4487,0.4388,0.4217,0.4327,0.4173,0.4015,0.4064,0.4271,0.441,0.4361,0.4698,0.4953,0.4784,0.489,0.5001,0.5001,0.5381,0.5648,0.5648,0.5851,0.5991,0.5991,0.6145,0.6244,0.6244,0.6244,0.632,0.6488,0.6564,0.6676,0.6841,0.7068,0.7314,0.753,0.7545,0.7806,0.8333,0.8333,0.8354,0.8391,0.8601,0.8764,-0.4491,0.0,0.0,0.0,0.0,0.0,0.0,0.0,0.0,0.0,0.0,0.0,0.0,0.0,0.0,0.0,0.0,0.0,0.0,0.0,0.0,0.0,0.0,0.0,0.0,0.0,0.0,0.0,0.0,0.0,0.6964,0.7,0.7,0.7,0.7,0.7,0.7,0.7,0.7,0.7,0.7,0.6385,0.5252,0.5108,0.4446,0.3384,0.3014,0.2916,0.2989,0.2794,0.2696,0.2699,0.2744,0.2835,0.2943,0.2905,0.3077,0.3306,0.333,0.3552,0.3818,0.3818,0.3924,0.4056,0.4056,0.4056,0.414,0.4548,0.4652,0.4757,0.5173,0.4994,0.4692,0.4764,0.4512,0.4257,0.4345,0.4586,0.4794,0.4794,0.516,0.5467,0.5467,0.5372,0.534,0.5451,0.5719,0.5944,0.6052,0.632,0.6503,0.6503,0.6601,0.6669,0.6669,0.6669,0.6669,0.6669,0.7044,0.732,0.7428,0.7705,0.8048,0.8435,0.8435,0.8606,0.8967,0.9037,0.9279,0.966,0.9569,0.9569,0.0,0.0,0.0,-0.4126,0.0,0.0,0.0,0.0,-0.7375,0.0,0.0,0.0,0.0,0.0,0.0,0.0,0.0,0.0,0.0,0.0,0.0,0.0,0.0,0.0,0.0,0.0,0.0,0.0,0.0,0.0,0.6915,0.7,0.7,0.7,0.7,0.7,0.7,0.7,0.7,0.7,0.7,0.6537,0.5665,0.5148,0.4627,0.4114,0.3137,0.2931,0.3253,0.2861,0.2696,0.2713,0.2846,0.2969,0.3077,0.2943,0.3077,0.3306,0.3372,0.3821,0.4369,0.4369,0.4761,0.5243,0.5243,0.5243,0.5238,0.526,0.5265,0.5286,0.5303,0.5094,0.4954,0.5221,0.5072,0.4945,0.5209,0.5261,0.5284,0.5284,0.5601,0.5882,0.5882,0.5554,0.5428,0.5828,0.5898,0.6037,0.6427,0.6495,0.6503,0.6503,0.685,0.7089,0.7089,0.7089,0.7089,0.7089,0.7456,0.7846,0.8237,0.8276,0.8435,0.8775,0.8789,0.8981,0.9383,0.9649,0.997,1.0359,0.997,0.9995,0.0,0.0,-0.4247,-0.4517,0.0,0.0,0.0,0.0,0.0,0.0,0.0,0.0,0.0,0.0,0.0,0.0,0.0,0.0,0.0,0.0,0.0,0.0,0.0,0.0,0.0,0.0,0.0,0.0,0.0,0.0,0.0,0.681,0.7,0.7,0.7,0.7,0.7,0.7,0.7,0.7,0.7,0.6599,0.5819,0.5463,0.4952,0.4284,0.3462,0.3179,0.3278,0.2874,0.2757,0.287,0.3324,0.3632,0.3766,0.3334,0.3526,0.4089,0.4517,0.4814,0.5,0.5,0.513,0.5303,0.5303,0.5303,0.5394,0.5787,0.5894,0.598,0.6337,0.6092,0.5851,0.6214,0.5913,0.5659,0.6013,0.6091,0.6091,0.6091,0.6198,0.629,0.629,0.6183,0.6137,0.6275,0.6533,0.6736,0.6871,0.7127,0.7294,0.7294,0.7412,0.75,0.75,0.7739,0.7988,0.821,0.8358,0.8495,0.8634,0.8634,0.8814,0.9195,0.9361,0.9662,1.0059,1.0384,1.0687,1.1003,1.1039,1.1039,-0.4142,-0.4068,0.0,-0.4415,-0.4597,0.0,-0.5043,0.0,0.0,0.0,0.0,0.0,0.0,0.0,0.0,0.0,0.0,0.0,0.0,0.0,0.0,0.0,0.0,0.0,0.0,0.0,-0.1753,0.0721,0.2719,0.0,0.0,0.0,0.7,0.7,0.7,0.7,0.7,0.7,0.7,0.7,0.7,0.6702,0.6132,0.5692,0.5262,0.4813,0.3925,0.3556,0.3523,0.327,0.3105,0.3112,0.3814,0.4187,0.4311,0.4037,0.4278,0.4783,0.5173,0.5437,0.561,0.561,0.576,0.5905,0.5905,0.5905,0.599,0.6365,0.6647,0.688,0.7238,0.7006,0.6768,0.7031,0.6594,0.6183,0.6442,0.6503,0.6503,0.6503,0.6616,0.6751,0.6901,0.7044,0.7044,0.6753,0.694,0.7207,0.7486,0.7763,0.7961,0.808,0.8095,0.8095,0.8095,0.8336,0.8578,0.8789,0.8803,0.8915,0.9135,0.9148,0.94,0.9919,1.0097,1.037,1.0721,1.1029,1.1323,1.1592,1.188,1.1989]}]]